<?xml version="1.0" encoding="UTF-8" standalone="no" ?>
<gpx xmlns="http://www.topografix.com/GPX/1/1" xmlns:xsi="http://www.w3.org/2001/XMLSchema-instance" xsi:schemaLocation="http://www.topografix.com/GPX/1/1 http://www.topografix.com/GPX/1/1/gpx.xsd" version="1.1" creator="VisuGPX - https://www.visugpx.com">
  <metadata>
    <name>Bouchain Forêt de St Amands</name>
    <desc><![CDATA[Bouchain Forêt de St Amands]]></desc>
  </metadata>
  <trk>
    <name><![CDATA[2011-08-21T06:07:42Z]]></name>
    <trkseg>
      <trkpt lat="50.33097" lon="3.41349">
        <ele>30.8995361</ele>
        <time>2011-08-21T06:07:42Z</time>
      </trkpt>
      <trkpt lat="50.33097" lon="3.4135">
        <ele>31.380127</ele>
        <time>2011-08-21T06:07:43Z</time>
      </trkpt>
      <trkpt lat="50.33108" lon="3.4135">
        <ele>32.3415527</ele>
        <time>2011-08-21T06:07:49Z</time>
      </trkpt>
      <trkpt lat="50.33128" lon="3.41351">
        <ele>32.8222656</ele>
        <time>2011-08-21T06:07:57Z</time>
      </trkpt>
      <trkpt lat="50.33149" lon="3.41352">
        <ele>33.3028564</ele>
        <time>2011-08-21T06:08:04Z</time>
      </trkpt>
      <trkpt lat="50.33172" lon="3.41356">
        <ele>34.2641602</ele>
        <time>2011-08-21T06:08:12Z</time>
      </trkpt>
      <trkpt lat="50.33196" lon="3.4136">
        <ele>35.2254639</ele>
        <time>2011-08-21T06:08:19Z</time>
      </trkpt>
      <trkpt lat="50.3322" lon="3.41362">
        <ele>35.7060547</ele>
        <time>2011-08-21T06:08:25Z</time>
      </trkpt>
      <trkpt lat="50.33256" lon="3.41364">
        <ele>36.6674805</ele>
        <time>2011-08-21T06:08:33Z</time>
      </trkpt>
      <trkpt lat="50.33302" lon="3.41367">
        <ele>36.6674805</ele>
        <time>2011-08-21T06:08:42Z</time>
      </trkpt>
      <trkpt lat="50.33331" lon="3.41369">
        <ele>36.6674805</ele>
        <time>2011-08-21T06:08:48Z</time>
      </trkpt>
      <trkpt lat="50.33348" lon="3.41358">
        <ele>36.1867676</ele>
        <time>2011-08-21T06:08:52Z</time>
      </trkpt>
      <trkpt lat="50.33352" lon="3.41337">
        <ele>35.2254639</ele>
        <time>2011-08-21T06:08:55Z</time>
      </trkpt>
      <trkpt lat="50.33351" lon="3.41321">
        <ele>34.744873</ele>
        <time>2011-08-21T06:08:57Z</time>
      </trkpt>
      <trkpt lat="50.33334" lon="3.41235">
        <ele>34.2641602</ele>
        <time>2011-08-21T06:09:07Z</time>
      </trkpt>
      <trkpt lat="50.33319" lon="3.41156">
        <ele>33.3028564</ele>
        <time>2011-08-21T06:09:16Z</time>
      </trkpt>
      <trkpt lat="50.333" lon="3.41061">
        <ele>34.2641602</ele>
        <time>2011-08-21T06:09:27Z</time>
      </trkpt>
      <trkpt lat="50.33289" lon="3.40995">
        <ele>35.2254639</ele>
        <time>2011-08-21T06:09:35Z</time>
      </trkpt>
      <trkpt lat="50.33279" lon="3.40929">
        <ele>36.1867676</ele>
        <time>2011-08-21T06:09:43Z</time>
      </trkpt>
      <trkpt lat="50.33264" lon="3.40837">
        <ele>38.109375</ele>
        <time>2011-08-21T06:09:54Z</time>
      </trkpt>
      <trkpt lat="50.3325" lon="3.40746">
        <ele>38.5900879</ele>
        <time>2011-08-21T06:10:05Z</time>
      </trkpt>
      <trkpt lat="50.33242" lon="3.40684">
        <ele>38.5900879</ele>
        <time>2011-08-21T06:10:12Z</time>
      </trkpt>
      <trkpt lat="50.33231" lon="3.40603">
        <ele>38.5900879</ele>
        <time>2011-08-21T06:10:21Z</time>
      </trkpt>
      <trkpt lat="50.33222" lon="3.40534">
        <ele>38.109375</ele>
        <time>2011-08-21T06:10:29Z</time>
      </trkpt>
      <trkpt lat="50.33229" lon="3.40515">
        <ele>37.6286621</ele>
        <time>2011-08-21T06:10:33Z</time>
      </trkpt>
      <trkpt lat="50.33236" lon="3.40521">
        <ele>37.6286621</ele>
        <time>2011-08-21T06:10:35Z</time>
      </trkpt>
      <trkpt lat="50.33269" lon="3.4056">
        <ele>36.6674805</ele>
        <time>2011-08-21T06:10:43Z</time>
      </trkpt>
      <trkpt lat="50.33306" lon="3.40605">
        <ele>35.7060547</ele>
        <time>2011-08-21T06:10:51Z</time>
      </trkpt>
      <trkpt lat="50.33335" lon="3.40636">
        <ele>35.2254639</ele>
        <time>2011-08-21T06:10:57Z</time>
      </trkpt>
      <trkpt lat="50.33358" lon="3.40663">
        <ele>34.2641602</ele>
        <time>2011-08-21T06:11:02Z</time>
      </trkpt>
      <trkpt lat="50.33393" lon="3.40704">
        <ele>33.7834473</ele>
        <time>2011-08-21T06:11:09Z</time>
      </trkpt>
      <trkpt lat="50.33408" lon="3.40722">
        <ele>33.7834473</ele>
        <time>2011-08-21T06:11:12Z</time>
      </trkpt>
      <trkpt lat="50.33435" lon="3.40751">
        <ele>33.7834473</ele>
        <time>2011-08-21T06:11:17Z</time>
      </trkpt>
      <trkpt lat="50.33469" lon="3.40789">
        <ele>33.3028564</ele>
        <time>2011-08-21T06:11:23Z</time>
      </trkpt>
      <trkpt lat="50.33496" lon="3.40818">
        <ele>32.8222656</ele>
        <time>2011-08-21T06:11:27Z</time>
      </trkpt>
      <trkpt lat="50.33511" lon="3.40831">
        <ele>33.3028564</ele>
        <time>2011-08-21T06:11:29Z</time>
      </trkpt>
      <trkpt lat="50.33559" lon="3.40887">
        <ele>35.7060547</ele>
        <time>2011-08-21T06:11:37Z</time>
      </trkpt>
      <trkpt lat="50.33603" lon="3.40936">
        <ele>35.7060547</ele>
        <time>2011-08-21T06:11:45Z</time>
      </trkpt>
      <trkpt lat="50.33661" lon="3.40999">
        <ele>36.1867676</ele>
        <time>2011-08-21T06:11:55Z</time>
      </trkpt>
      <trkpt lat="50.33724" lon="3.41069">
        <ele>35.2254639</ele>
        <time>2011-08-21T06:12:06Z</time>
      </trkpt>
      <trkpt lat="50.33774" lon="3.41132">
        <ele>34.744873</ele>
        <time>2011-08-21T06:12:15Z</time>
      </trkpt>
      <trkpt lat="50.33806" lon="3.41194">
        <ele>33.7834473</ele>
        <time>2011-08-21T06:12:22Z</time>
      </trkpt>
      <trkpt lat="50.33825" lon="3.41232">
        <ele>33.3028564</ele>
        <time>2011-08-21T06:12:26Z</time>
      </trkpt>
      <trkpt lat="50.3385" lon="3.41252">
        <ele>33.3028564</ele>
        <time>2011-08-21T06:12:30Z</time>
      </trkpt>
      <trkpt lat="50.33856" lon="3.41253">
        <ele>33.3028564</ele>
        <time>2011-08-21T06:12:31Z</time>
      </trkpt>
      <trkpt lat="50.33909" lon="3.41241">
        <ele>33.3028564</ele>
        <time>2011-08-21T06:12:39Z</time>
      </trkpt>
      <trkpt lat="50.33916" lon="3.41239">
        <ele>33.3028564</ele>
        <time>2011-08-21T06:12:40Z</time>
      </trkpt>
      <trkpt lat="50.33957" lon="3.41246">
        <ele>33.3028564</ele>
        <time>2011-08-21T06:12:46Z</time>
      </trkpt>
      <trkpt lat="50.33991" lon="3.41266">
        <ele>33.3028564</ele>
        <time>2011-08-21T06:12:51Z</time>
      </trkpt>
      <trkpt lat="50.34058" lon="3.41306">
        <ele>32.8222656</ele>
        <time>2011-08-21T06:13:01Z</time>
      </trkpt>
      <trkpt lat="50.34136" lon="3.41341">
        <ele>32.3415527</ele>
        <time>2011-08-21T06:13:12Z</time>
      </trkpt>
      <trkpt lat="50.34217" lon="3.41372">
        <ele>31.8607178</ele>
        <time>2011-08-21T06:13:23Z</time>
      </trkpt>
      <trkpt lat="50.34294" lon="3.41396">
        <ele>31.380127</ele>
        <time>2011-08-21T06:13:33Z</time>
      </trkpt>
      <trkpt lat="50.34368" lon="3.41414">
        <ele>30.4188232</ele>
        <time>2011-08-21T06:13:42Z</time>
      </trkpt>
      <trkpt lat="50.34435" lon="3.41439">
        <ele>29.9381104</ele>
        <time>2011-08-21T06:13:50Z</time>
      </trkpt>
      <trkpt lat="50.34484" lon="3.41466">
        <ele>28.9769287</ele>
        <time>2011-08-21T06:13:56Z</time>
      </trkpt>
      <trkpt lat="50.34554" lon="3.41512">
        <ele>26.5736084</ele>
        <time>2011-08-21T06:14:05Z</time>
      </trkpt>
      <trkpt lat="50.34617" lon="3.41554">
        <ele>25.1317139</ele>
        <time>2011-08-21T06:14:13Z</time>
      </trkpt>
      <trkpt lat="50.34654" lon="3.41555">
        <ele>25.1317139</ele>
        <time>2011-08-21T06:14:18Z</time>
      </trkpt>
      <trkpt lat="50.34706" lon="3.4154">
        <ele>25.1317139</ele>
        <time>2011-08-21T06:14:25Z</time>
      </trkpt>
      <trkpt lat="50.3474" lon="3.41526">
        <ele>24.651001</ele>
        <time>2011-08-21T06:14:30Z</time>
      </trkpt>
      <trkpt lat="50.3478" lon="3.41498">
        <ele>24.1702881</ele>
        <time>2011-08-21T06:14:36Z</time>
      </trkpt>
      <trkpt lat="50.34818" lon="3.41467">
        <ele>23.6895752</ele>
        <time>2011-08-21T06:14:42Z</time>
      </trkpt>
      <trkpt lat="50.34837" lon="3.41451">
        <ele>24.1702881</ele>
        <time>2011-08-21T06:14:45Z</time>
      </trkpt>
      <trkpt lat="50.34856" lon="3.41416">
        <ele>24.651001</ele>
        <time>2011-08-21T06:14:49Z</time>
      </trkpt>
      <trkpt lat="50.34894" lon="3.41316">
        <ele>24.651001</ele>
        <time>2011-08-21T06:14:59Z</time>
      </trkpt>
      <trkpt lat="50.34925" lon="3.41237">
        <ele>25.1317139</ele>
        <time>2011-08-21T06:15:07Z</time>
      </trkpt>
      <trkpt lat="50.34952" lon="3.41162">
        <ele>25.6123047</ele>
        <time>2011-08-21T06:15:15Z</time>
      </trkpt>
      <trkpt lat="50.34955" lon="3.41154">
        <ele>26.0928955</ele>
        <time>2011-08-21T06:15:16Z</time>
      </trkpt>
      <trkpt lat="50.34971" lon="3.41148">
        <ele>26.0928955</ele>
        <time>2011-08-21T06:15:20Z</time>
      </trkpt>
      <trkpt lat="50.34993" lon="3.41152">
        <ele>27.0543213</ele>
        <time>2011-08-21T06:15:24Z</time>
      </trkpt>
      <trkpt lat="50.34998" lon="3.41153">
        <ele>27.0543213</ele>
        <time>2011-08-21T06:15:25Z</time>
      </trkpt>
      <trkpt lat="50.3502" lon="3.41168">
        <ele>26.5736084</ele>
        <time>2011-08-21T06:15:29Z</time>
      </trkpt>
      <trkpt lat="50.35043" lon="3.41173">
        <ele>26.5736084</ele>
        <time>2011-08-21T06:15:33Z</time>
      </trkpt>
      <trkpt lat="50.35068" lon="3.4117">
        <ele>26.0928955</ele>
        <time>2011-08-21T06:15:37Z</time>
      </trkpt>
      <trkpt lat="50.35109" lon="3.41172">
        <ele>25.6123047</ele>
        <time>2011-08-21T06:15:43Z</time>
      </trkpt>
      <trkpt lat="50.35171" lon="3.41193">
        <ele>25.1317139</ele>
        <time>2011-08-21T06:15:52Z</time>
      </trkpt>
      <trkpt lat="50.35236" lon="3.4121">
        <ele>25.6123047</ele>
        <time>2011-08-21T06:16:01Z</time>
      </trkpt>
      <trkpt lat="50.35286" lon="3.41214">
        <ele>25.1317139</ele>
        <time>2011-08-21T06:16:08Z</time>
      </trkpt>
      <trkpt lat="50.35356" lon="3.41208">
        <ele>24.651001</ele>
        <time>2011-08-21T06:16:18Z</time>
      </trkpt>
      <trkpt lat="50.35421" lon="3.41193">
        <ele>24.1702881</ele>
        <time>2011-08-21T06:16:27Z</time>
      </trkpt>
      <trkpt lat="50.35501" lon="3.41172">
        <ele>24.651001</ele>
        <time>2011-08-21T06:16:38Z</time>
      </trkpt>
      <trkpt lat="50.35507" lon="3.41171">
        <ele>24.651001</ele>
        <time>2011-08-21T06:16:39Z</time>
      </trkpt>
      <trkpt lat="50.35517" lon="3.41191">
        <ele>24.1702881</ele>
        <time>2011-08-21T06:16:43Z</time>
      </trkpt>
      <trkpt lat="50.35523" lon="3.41245">
        <ele>24.1702881</ele>
        <time>2011-08-21T06:16:49Z</time>
      </trkpt>
      <trkpt lat="50.35528" lon="3.41281">
        <ele>24.1702881</ele>
        <time>2011-08-21T06:16:53Z</time>
      </trkpt>
      <trkpt lat="50.35537" lon="3.41287">
        <ele>24.651001</ele>
        <time>2011-08-21T06:16:56Z</time>
      </trkpt>
      <trkpt lat="50.35544" lon="3.41285">
        <ele>24.651001</ele>
        <time>2011-08-21T06:16:58Z</time>
      </trkpt>
      <trkpt lat="50.35553" lon="3.4128">
        <ele>24.651001</ele>
        <time>2011-08-21T06:17:00Z</time>
      </trkpt>
      <trkpt lat="50.35585" lon="3.41268">
        <ele>24.1702881</ele>
        <time>2011-08-21T06:17:06Z</time>
      </trkpt>
      <trkpt lat="50.35608" lon="3.4126">
        <ele>23.6895752</ele>
        <time>2011-08-21T06:17:10Z</time>
      </trkpt>
      <trkpt lat="50.35626" lon="3.41233">
        <ele>22.2475586</ele>
        <time>2011-08-21T06:17:15Z</time>
      </trkpt>
      <trkpt lat="50.3563" lon="3.41214">
        <ele>21.7669678</ele>
        <time>2011-08-21T06:17:17Z</time>
      </trkpt>
      <trkpt lat="50.3564" lon="3.41188">
        <ele>22.2475586</ele>
        <time>2011-08-21T06:17:20Z</time>
      </trkpt>
      <trkpt lat="50.35663" lon="3.41171">
        <ele>22.2475586</ele>
        <time>2011-08-21T06:17:24Z</time>
      </trkpt>
      <trkpt lat="50.35669" lon="3.41172">
        <ele>22.2475586</ele>
        <time>2011-08-21T06:17:25Z</time>
      </trkpt>
      <trkpt lat="50.35698" lon="3.41159">
        <ele>22.2475586</ele>
        <time>2011-08-21T06:17:30Z</time>
      </trkpt>
      <trkpt lat="50.35726" lon="3.41135">
        <ele>22.7282715</ele>
        <time>2011-08-21T06:17:35Z</time>
      </trkpt>
      <trkpt lat="50.35746" lon="3.41133">
        <ele>22.7282715</ele>
        <time>2011-08-21T06:17:38Z</time>
      </trkpt>
      <trkpt lat="50.35765" lon="3.41125">
        <ele>22.7282715</ele>
        <time>2011-08-21T06:17:41Z</time>
      </trkpt>
      <trkpt lat="50.35787" lon="3.41119">
        <ele>22.7282715</ele>
        <time>2011-08-21T06:17:45Z</time>
      </trkpt>
      <trkpt lat="50.35792" lon="3.41106">
        <ele>22.7282715</ele>
        <time>2011-08-21T06:17:48Z</time>
      </trkpt>
      <trkpt lat="50.35799" lon="3.41099">
        <ele>22.2475586</ele>
        <time>2011-08-21T06:17:51Z</time>
      </trkpt>
      <trkpt lat="50.35832" lon="3.41091">
        <ele>22.2475586</ele>
        <time>2011-08-21T06:17:58Z</time>
      </trkpt>
      <trkpt lat="50.35874" lon="3.41088">
        <ele>23.2089844</ele>
        <time>2011-08-21T06:18:05Z</time>
      </trkpt>
      <trkpt lat="50.35931" lon="3.41089">
        <ele>25.1317139</ele>
        <time>2011-08-21T06:18:14Z</time>
      </trkpt>
      <trkpt lat="50.35969" lon="3.41089">
        <ele>26.0928955</ele>
        <time>2011-08-21T06:18:20Z</time>
      </trkpt>
      <trkpt lat="50.35999" lon="3.4109">
        <ele>27.0543213</ele>
        <time>2011-08-21T06:18:25Z</time>
      </trkpt>
      <trkpt lat="50.36021" lon="3.41091">
        <ele>27.5349121</ele>
        <time>2011-08-21T06:18:29Z</time>
      </trkpt>
      <trkpt lat="50.36033" lon="3.4108">
        <ele>27.5349121</ele>
        <time>2011-08-21T06:18:33Z</time>
      </trkpt>
      <trkpt lat="50.36039" lon="3.41067">
        <ele>27.0543213</ele>
        <time>2011-08-21T06:18:36Z</time>
      </trkpt>
      <trkpt lat="50.36063" lon="3.41042">
        <ele>27.5349121</ele>
        <time>2011-08-21T06:18:42Z</time>
      </trkpt>
      <trkpt lat="50.36087" lon="3.41021">
        <ele>28.0155029</ele>
        <time>2011-08-21T06:18:47Z</time>
      </trkpt>
      <trkpt lat="50.36115" lon="3.41008">
        <ele>26.5736084</ele>
        <time>2011-08-21T06:18:52Z</time>
      </trkpt>
      <trkpt lat="50.36158" lon="3.41019">
        <ele>25.6123047</ele>
        <time>2011-08-21T06:18:59Z</time>
      </trkpt>
      <trkpt lat="50.36165" lon="3.4102">
        <ele>25.6123047</ele>
        <time>2011-08-21T06:19:00Z</time>
      </trkpt>
      <trkpt lat="50.36201" lon="3.4103">
        <ele>25.1317139</ele>
        <time>2011-08-21T06:19:06Z</time>
      </trkpt>
      <trkpt lat="50.3625" lon="3.41047">
        <ele>25.1317139</ele>
        <time>2011-08-21T06:19:14Z</time>
      </trkpt>
      <trkpt lat="50.36287" lon="3.41056">
        <ele>24.651001</ele>
        <time>2011-08-21T06:19:20Z</time>
      </trkpt>
      <trkpt lat="50.36293" lon="3.41056">
        <ele>24.651001</ele>
        <time>2011-08-21T06:19:21Z</time>
      </trkpt>
      <trkpt lat="50.36315" lon="3.41061">
        <ele>24.1702881</ele>
        <time>2011-08-21T06:19:25Z</time>
      </trkpt>
      <trkpt lat="50.36333" lon="3.41058">
        <ele>24.1702881</ele>
        <time>2011-08-21T06:19:28Z</time>
      </trkpt>
      <trkpt lat="50.36357" lon="3.41034">
        <ele>24.1702881</ele>
        <time>2011-08-21T06:19:33Z</time>
      </trkpt>
      <trkpt lat="50.36367" lon="3.41023">
        <ele>23.6895752</ele>
        <time>2011-08-21T06:19:36Z</time>
      </trkpt>
      <trkpt lat="50.36375" lon="3.41029">
        <ele>23.6895752</ele>
        <time>2011-08-21T06:19:39Z</time>
      </trkpt>
      <trkpt lat="50.36405" lon="3.41048">
        <ele>23.2089844</ele>
        <time>2011-08-21T06:19:47Z</time>
      </trkpt>
      <trkpt lat="50.36444" lon="3.41067">
        <ele>23.2089844</ele>
        <time>2011-08-21T06:19:56Z</time>
      </trkpt>
      <trkpt lat="50.36449" lon="3.41068">
        <ele>23.6895752</ele>
        <time>2011-08-21T06:19:57Z</time>
      </trkpt>
      <trkpt lat="50.36458" lon="3.4107">
        <ele>24.1702881</ele>
        <time>2011-08-21T06:19:59Z</time>
      </trkpt>
      <trkpt lat="50.36467" lon="3.41072">
        <ele>23.6895752</ele>
        <time>2011-08-21T06:20:02Z</time>
      </trkpt>
      <trkpt lat="50.36475" lon="3.41069">
        <ele>24.1702881</ele>
        <time>2011-08-21T06:20:06Z</time>
      </trkpt>
      <trkpt lat="50.3648" lon="3.4107">
        <ele>24.651001</ele>
        <time>2011-08-21T06:20:08Z</time>
      </trkpt>
      <trkpt lat="50.36489" lon="3.41085">
        <ele>25.1317139</ele>
        <time>2011-08-21T06:20:13Z</time>
      </trkpt>
      <trkpt lat="50.36497" lon="3.41086">
        <ele>25.6123047</ele>
        <time>2011-08-21T06:20:16Z</time>
      </trkpt>
      <trkpt lat="50.36505" lon="3.41085">
        <ele>25.1317139</ele>
        <time>2011-08-21T06:20:18Z</time>
      </trkpt>
      <trkpt lat="50.36535" lon="3.41085">
        <ele>25.1317139</ele>
        <time>2011-08-21T06:20:25Z</time>
      </trkpt>
      <trkpt lat="50.36545" lon="3.41085">
        <ele>25.1317139</ele>
        <time>2011-08-21T06:20:28Z</time>
      </trkpt>
      <trkpt lat="50.36563" lon="3.41085">
        <ele>26.5736084</ele>
        <time>2011-08-21T06:20:33Z</time>
      </trkpt>
      <trkpt lat="50.36589" lon="3.41086">
        <ele>28.9769287</ele>
        <time>2011-08-21T06:20:40Z</time>
      </trkpt>
      <trkpt lat="50.36609" lon="3.41086">
        <ele>28.9769287</ele>
        <time>2011-08-21T06:20:44Z</time>
      </trkpt>
      <trkpt lat="50.36619" lon="3.41086">
        <ele>28.9769287</ele>
        <time>2011-08-21T06:20:46Z</time>
      </trkpt>
      <trkpt lat="50.36663" lon="3.41096">
        <ele>30.4188232</ele>
        <time>2011-08-21T06:20:55Z</time>
      </trkpt>
      <trkpt lat="50.36683" lon="3.41106">
        <ele>29.4575195</ele>
        <time>2011-08-21T06:20:59Z</time>
      </trkpt>
      <trkpt lat="50.36715" lon="3.41121">
        <ele>28.9769287</ele>
        <time>2011-08-21T06:21:05Z</time>
      </trkpt>
      <trkpt lat="50.36749" lon="3.41147">
        <ele>28.4962158</ele>
        <time>2011-08-21T06:21:12Z</time>
      </trkpt>
      <trkpt lat="50.36764" lon="3.41161">
        <ele>28.0155029</ele>
        <time>2011-08-21T06:21:15Z</time>
      </trkpt>
      <trkpt lat="50.36793" lon="3.41184">
        <ele>26.5736084</ele>
        <time>2011-08-21T06:21:21Z</time>
      </trkpt>
      <trkpt lat="50.36816" lon="3.41201">
        <ele>26.5736084</ele>
        <time>2011-08-21T06:21:26Z</time>
      </trkpt>
      <trkpt lat="50.36823" lon="3.41221">
        <ele>26.5736084</ele>
        <time>2011-08-21T06:21:30Z</time>
      </trkpt>
      <trkpt lat="50.36832" lon="3.41242">
        <ele>25.6123047</ele>
        <time>2011-08-21T06:21:34Z</time>
      </trkpt>
      <trkpt lat="50.36863" lon="3.41305">
        <ele>23.2089844</ele>
        <time>2011-08-21T06:21:44Z</time>
      </trkpt>
      <trkpt lat="50.36892" lon="3.4137">
        <ele>22.2475586</ele>
        <time>2011-08-21T06:21:53Z</time>
      </trkpt>
      <trkpt lat="50.36913" lon="3.41413">
        <ele>23.2089844</ele>
        <time>2011-08-21T06:21:59Z</time>
      </trkpt>
      <trkpt lat="50.36926" lon="3.41442">
        <ele>23.6895752</ele>
        <time>2011-08-21T06:22:03Z</time>
      </trkpt>
      <trkpt lat="50.36944" lon="3.41484">
        <ele>23.6895752</ele>
        <time>2011-08-21T06:22:09Z</time>
      </trkpt>
      <trkpt lat="50.36956" lon="3.41512">
        <ele>24.1702881</ele>
        <time>2011-08-21T06:22:13Z</time>
      </trkpt>
      <trkpt lat="50.36965" lon="3.41533">
        <ele>23.6895752</ele>
        <time>2011-08-21T06:22:16Z</time>
      </trkpt>
      <trkpt lat="50.36988" lon="3.41579">
        <ele>23.2089844</ele>
        <time>2011-08-21T06:22:23Z</time>
      </trkpt>
      <trkpt lat="50.37012" lon="3.41617">
        <ele>23.6895752</ele>
        <time>2011-08-21T06:22:29Z</time>
      </trkpt>
      <trkpt lat="50.37037" lon="3.41656">
        <ele>26.0928955</ele>
        <time>2011-08-21T06:22:35Z</time>
      </trkpt>
      <trkpt lat="50.37061" lon="3.41695">
        <ele>26.5736084</ele>
        <time>2011-08-21T06:22:41Z</time>
      </trkpt>
      <trkpt lat="50.37086" lon="3.41732">
        <ele>27.0543213</ele>
        <time>2011-08-21T06:22:47Z</time>
      </trkpt>
      <trkpt lat="50.37113" lon="3.41775">
        <ele>27.0543213</ele>
        <time>2011-08-21T06:22:54Z</time>
      </trkpt>
      <trkpt lat="50.37136" lon="3.41811">
        <ele>27.5349121</ele>
        <time>2011-08-21T06:23:00Z</time>
      </trkpt>
      <trkpt lat="50.37167" lon="3.41856">
        <ele>29.4575195</ele>
        <time>2011-08-21T06:23:08Z</time>
      </trkpt>
      <trkpt lat="50.37175" lon="3.41865">
        <ele>29.4575195</ele>
        <time>2011-08-21T06:23:10Z</time>
      </trkpt>
      <trkpt lat="50.37184" lon="3.41889">
        <ele>30.4188232</ele>
        <time>2011-08-21T06:23:14Z</time>
      </trkpt>
      <trkpt lat="50.37181" lon="3.41895">
        <ele>29.9381104</ele>
        <time>2011-08-21T06:23:15Z</time>
      </trkpt>
      <trkpt lat="50.37158" lon="3.41935">
        <ele>29.9381104</ele>
        <time>2011-08-21T06:23:22Z</time>
      </trkpt>
      <trkpt lat="50.37126" lon="3.41986">
        <ele>30.8995361</ele>
        <time>2011-08-21T06:23:31Z</time>
      </trkpt>
      <trkpt lat="50.3712" lon="3.41999">
        <ele>31.8607178</ele>
        <time>2011-08-21T06:23:33Z</time>
      </trkpt>
      <trkpt lat="50.37112" lon="3.42036">
        <ele>32.3415527</ele>
        <time>2011-08-21T06:23:38Z</time>
      </trkpt>
      <trkpt lat="50.371" lon="3.42107">
        <ele>33.3028564</ele>
        <time>2011-08-21T06:23:47Z</time>
      </trkpt>
      <trkpt lat="50.3709" lon="3.4217">
        <ele>34.2641602</ele>
        <time>2011-08-21T06:23:55Z</time>
      </trkpt>
      <trkpt lat="50.37084" lon="3.42218">
        <ele>34.2641602</ele>
        <time>2011-08-21T06:24:01Z</time>
      </trkpt>
      <trkpt lat="50.37074" lon="3.42244">
        <ele>34.744873</ele>
        <time>2011-08-21T06:24:05Z</time>
      </trkpt>
      <trkpt lat="50.3707" lon="3.42247">
        <ele>34.744873</ele>
        <time>2011-08-21T06:24:06Z</time>
      </trkpt>
      <trkpt lat="50.37055" lon="3.42273">
        <ele>34.744873</ele>
        <time>2011-08-21T06:24:11Z</time>
      </trkpt>
      <trkpt lat="50.37049" lon="3.42341">
        <ele>37.6286621</ele>
        <time>2011-08-21T06:24:20Z</time>
      </trkpt>
      <trkpt lat="50.37037" lon="3.42391">
        <ele>38.109375</ele>
        <time>2011-08-21T06:24:27Z</time>
      </trkpt>
      <trkpt lat="50.37014" lon="3.42451">
        <ele>38.5900879</ele>
        <time>2011-08-21T06:24:36Z</time>
      </trkpt>
      <trkpt lat="50.36995" lon="3.42511">
        <ele>40.0321045</ele>
        <time>2011-08-21T06:24:45Z</time>
      </trkpt>
      <trkpt lat="50.36976" lon="3.42565">
        <ele>40.9934082</ele>
        <time>2011-08-21T06:24:53Z</time>
      </trkpt>
      <trkpt lat="50.36954" lon="3.42622">
        <ele>42.9160156</ele>
        <time>2011-08-21T06:25:02Z</time>
      </trkpt>
      <trkpt lat="50.36947" lon="3.42641">
        <ele>42.9160156</ele>
        <time>2011-08-21T06:25:05Z</time>
      </trkpt>
      <trkpt lat="50.3695" lon="3.42658">
        <ele>43.3966064</ele>
        <time>2011-08-21T06:25:09Z</time>
      </trkpt>
      <trkpt lat="50.36967" lon="3.42676">
        <ele>43.3966064</ele>
        <time>2011-08-21T06:25:15Z</time>
      </trkpt>
      <trkpt lat="50.36992" lon="3.42692">
        <ele>43.3966064</ele>
        <time>2011-08-21T06:25:21Z</time>
      </trkpt>
      <trkpt lat="50.37028" lon="3.42706">
        <ele>42.9160156</ele>
        <time>2011-08-21T06:25:28Z</time>
      </trkpt>
      <trkpt lat="50.37078" lon="3.42727">
        <ele>41.9547119</ele>
        <time>2011-08-21T06:25:37Z</time>
      </trkpt>
      <trkpt lat="50.37121" lon="3.42744">
        <ele>41.473999</ele>
        <time>2011-08-21T06:25:44Z</time>
      </trkpt>
      <trkpt lat="50.37178" lon="3.42766">
        <ele>40.5128174</ele>
        <time>2011-08-21T06:25:53Z</time>
      </trkpt>
      <trkpt lat="50.37222" lon="3.42791">
        <ele>40.0321045</ele>
        <time>2011-08-21T06:26:00Z</time>
      </trkpt>
      <trkpt lat="50.37228" lon="3.42797">
        <ele>40.0321045</ele>
        <time>2011-08-21T06:26:01Z</time>
      </trkpt>
      <trkpt lat="50.37255" lon="3.42826">
        <ele>40.0321045</ele>
        <time>2011-08-21T06:26:06Z</time>
      </trkpt>
      <trkpt lat="50.37275" lon="3.4283">
        <ele>40.0321045</ele>
        <time>2011-08-21T06:26:09Z</time>
      </trkpt>
      <trkpt lat="50.37342" lon="3.4283">
        <ele>39.0706787</ele>
        <time>2011-08-21T06:26:18Z</time>
      </trkpt>
      <trkpt lat="50.37395" lon="3.42829">
        <ele>38.5900879</ele>
        <time>2011-08-21T06:26:25Z</time>
      </trkpt>
      <trkpt lat="50.37408" lon="3.42812">
        <ele>38.109375</ele>
        <time>2011-08-21T06:26:28Z</time>
      </trkpt>
      <trkpt lat="50.37408" lon="3.42792">
        <ele>38.109375</ele>
        <time>2011-08-21T06:26:30Z</time>
      </trkpt>
      <trkpt lat="50.37408" lon="3.42731">
        <ele>37.1480713</ele>
        <time>2011-08-21T06:26:36Z</time>
      </trkpt>
      <trkpt lat="50.37419" lon="3.42712">
        <ele>37.1480713</ele>
        <time>2011-08-21T06:26:39Z</time>
      </trkpt>
      <trkpt lat="50.37425" lon="3.42711">
        <ele>37.1480713</ele>
        <time>2011-08-21T06:26:40Z</time>
      </trkpt>
      <trkpt lat="50.37481" lon="3.42702">
        <ele>37.6286621</ele>
        <time>2011-08-21T06:26:49Z</time>
      </trkpt>
      <trkpt lat="50.37557" lon="3.42689">
        <ele>38.109375</ele>
        <time>2011-08-21T06:27:01Z</time>
      </trkpt>
      <trkpt lat="50.3758" lon="3.42701">
        <ele>38.109375</ele>
        <time>2011-08-21T06:27:05Z</time>
      </trkpt>
      <trkpt lat="50.37588" lon="3.42728">
        <ele>38.109375</ele>
        <time>2011-08-21T06:27:08Z</time>
      </trkpt>
      <trkpt lat="50.3759" lon="3.42748">
        <ele>38.109375</ele>
        <time>2011-08-21T06:27:10Z</time>
      </trkpt>
      <trkpt lat="50.3759" lon="3.42778">
        <ele>38.5900879</ele>
        <time>2011-08-21T06:27:13Z</time>
      </trkpt>
      <trkpt lat="50.37589" lon="3.42836">
        <ele>38.5900879</ele>
        <time>2011-08-21T06:27:19Z</time>
      </trkpt>
      <trkpt lat="50.3759" lon="3.42914">
        <ele>39.0706787</ele>
        <time>2011-08-21T06:27:27Z</time>
      </trkpt>
      <trkpt lat="50.37589" lon="3.42988">
        <ele>40.0321045</ele>
        <time>2011-08-21T06:27:35Z</time>
      </trkpt>
      <trkpt lat="50.37597" lon="3.43007">
        <ele>40.0321045</ele>
        <time>2011-08-21T06:27:39Z</time>
      </trkpt>
      <trkpt lat="50.37607" lon="3.43007">
        <ele>40.0321045</ele>
        <time>2011-08-21T06:27:41Z</time>
      </trkpt>
      <trkpt lat="50.37659" lon="3.43002">
        <ele>40.9934082</ele>
        <time>2011-08-21T06:27:50Z</time>
      </trkpt>
      <trkpt lat="50.37709" lon="3.42991">
        <ele>41.473999</ele>
        <time>2011-08-21T06:27:58Z</time>
      </trkpt>
      <trkpt lat="50.37747" lon="3.42974">
        <ele>40.9934082</ele>
        <time>2011-08-21T06:28:04Z</time>
      </trkpt>
      <trkpt lat="50.37771" lon="3.42979">
        <ele>40.9934082</ele>
        <time>2011-08-21T06:28:08Z</time>
      </trkpt>
      <trkpt lat="50.3778" lon="3.42994">
        <ele>40.9934082</ele>
        <time>2011-08-21T06:28:10Z</time>
      </trkpt>
      <trkpt lat="50.37802" lon="3.43059">
        <ele>40.0321045</ele>
        <time>2011-08-21T06:28:17Z</time>
      </trkpt>
      <trkpt lat="50.37813" lon="3.43096">
        <ele>39.5512695</ele>
        <time>2011-08-21T06:28:21Z</time>
      </trkpt>
      <trkpt lat="50.37832" lon="3.43123">
        <ele>39.0706787</ele>
        <time>2011-08-21T06:28:25Z</time>
      </trkpt>
      <trkpt lat="50.37853" lon="3.43124">
        <ele>38.5900879</ele>
        <time>2011-08-21T06:28:28Z</time>
      </trkpt>
      <trkpt lat="50.37895" lon="3.43108">
        <ele>39.0706787</ele>
        <time>2011-08-21T06:28:34Z</time>
      </trkpt>
      <trkpt lat="50.37912" lon="3.43115">
        <ele>39.5512695</ele>
        <time>2011-08-21T06:28:37Z</time>
      </trkpt>
      <trkpt lat="50.37912" lon="3.43127">
        <ele>39.0706787</ele>
        <time>2011-08-21T06:28:39Z</time>
      </trkpt>
      <trkpt lat="50.37908" lon="3.43141">
        <ele>39.0706787</ele>
        <time>2011-08-21T06:28:42Z</time>
      </trkpt>
      <trkpt lat="50.37907" lon="3.43147">
        <ele>39.5512695</ele>
        <time>2011-08-21T06:28:46Z</time>
      </trkpt>
      <trkpt lat="50.37906" lon="3.43167">
        <ele>40.5128174</ele>
        <time>2011-08-21T06:37:07Z</time>
      </trkpt>
      <trkpt lat="50.37906" lon="3.4317">
        <ele>40.9934082</ele>
        <time>2011-08-21T06:37:08Z</time>
      </trkpt>
      <trkpt lat="50.37904" lon="3.4319">
        <ele>40.0321045</ele>
        <time>2011-08-21T06:37:12Z</time>
      </trkpt>
      <trkpt lat="50.379" lon="3.43225">
        <ele>40.0321045</ele>
        <time>2011-08-21T06:37:18Z</time>
      </trkpt>
      <trkpt lat="50.37899" lon="3.43245">
        <ele>40.0321045</ele>
        <time>2011-08-21T06:37:21Z</time>
      </trkpt>
      <trkpt lat="50.37911" lon="3.43255">
        <ele>40.5128174</ele>
        <time>2011-08-21T06:37:25Z</time>
      </trkpt>
      <trkpt lat="50.37945" lon="3.43256">
        <ele>42.4354248</ele>
        <time>2011-08-21T06:37:33Z</time>
      </trkpt>
      <trkpt lat="50.3797" lon="3.43259">
        <ele>42.9160156</ele>
        <time>2011-08-21T06:37:38Z</time>
      </trkpt>
      <trkpt lat="50.38013" lon="3.43262">
        <ele>42.9160156</ele>
        <time>2011-08-21T06:37:46Z</time>
      </trkpt>
      <trkpt lat="50.38053" lon="3.43266">
        <ele>42.4354248</ele>
        <time>2011-08-21T06:37:53Z</time>
      </trkpt>
      <trkpt lat="50.38097" lon="3.43269">
        <ele>41.473999</ele>
        <time>2011-08-21T06:38:00Z</time>
      </trkpt>
      <trkpt lat="50.38162" lon="3.43273">
        <ele>40.0321045</ele>
        <time>2011-08-21T06:38:10Z</time>
      </trkpt>
      <trkpt lat="50.38213" lon="3.43277">
        <ele>39.5512695</ele>
        <time>2011-08-21T06:38:18Z</time>
      </trkpt>
      <trkpt lat="50.38272" lon="3.43282">
        <ele>39.5512695</ele>
        <time>2011-08-21T06:38:27Z</time>
      </trkpt>
      <trkpt lat="50.38346" lon="3.43287">
        <ele>40.0321045</ele>
        <time>2011-08-21T06:38:38Z</time>
      </trkpt>
      <trkpt lat="50.38376" lon="3.43289">
        <ele>39.5512695</ele>
        <time>2011-08-21T06:38:43Z</time>
      </trkpt>
      <trkpt lat="50.38387" lon="3.43292">
        <ele>39.5512695</ele>
        <time>2011-08-21T06:38:45Z</time>
      </trkpt>
      <trkpt lat="50.38397" lon="3.43292">
        <ele>39.5512695</ele>
        <time>2011-08-21T06:38:47Z</time>
      </trkpt>
      <trkpt lat="50.3842" lon="3.4329">
        <ele>40.5128174</ele>
        <time>2011-08-21T06:38:51Z</time>
      </trkpt>
      <trkpt lat="50.38451" lon="3.43289">
        <ele>40.5128174</ele>
        <time>2011-08-21T06:38:56Z</time>
      </trkpt>
      <trkpt lat="50.38505" lon="3.43292">
        <ele>39.5512695</ele>
        <time>2011-08-21T06:39:04Z</time>
      </trkpt>
      <trkpt lat="50.3854" lon="3.43294">
        <ele>40.5128174</ele>
        <time>2011-08-21T06:39:09Z</time>
      </trkpt>
      <trkpt lat="50.38592" lon="3.43296">
        <ele>39.5512695</ele>
        <time>2011-08-21T06:39:16Z</time>
      </trkpt>
      <trkpt lat="50.38633" lon="3.433">
        <ele>38.109375</ele>
        <time>2011-08-21T06:39:22Z</time>
      </trkpt>
      <trkpt lat="50.38683" lon="3.43307">
        <ele>36.6674805</ele>
        <time>2011-08-21T06:39:29Z</time>
      </trkpt>
      <trkpt lat="50.38729" lon="3.4331">
        <ele>35.7060547</ele>
        <time>2011-08-21T06:39:35Z</time>
      </trkpt>
      <trkpt lat="50.3877" lon="3.43312">
        <ele>37.6286621</ele>
        <time>2011-08-21T06:39:40Z</time>
      </trkpt>
      <trkpt lat="50.38785" lon="3.43313">
        <ele>38.109375</ele>
        <time>2011-08-21T06:39:42Z</time>
      </trkpt>
      <trkpt lat="50.38834" lon="3.43318">
        <ele>42.9160156</ele>
        <time>2011-08-21T06:39:48Z</time>
      </trkpt>
      <trkpt lat="50.38869" lon="3.43321">
        <ele>44.3580322</ele>
        <time>2011-08-21T06:39:53Z</time>
      </trkpt>
      <trkpt lat="50.38879" lon="3.43322">
        <ele>42.4354248</ele>
        <time>2011-08-21T06:39:55Z</time>
      </trkpt>
      <trkpt lat="50.38887" lon="3.43326">
        <ele>36.6674805</ele>
        <time>2011-08-21T06:39:58Z</time>
      </trkpt>
      <trkpt lat="50.38889" lon="3.43325">
        <ele>34.744873</ele>
        <time>2011-08-21T06:39:59Z</time>
      </trkpt>
      <trkpt lat="50.38912" lon="3.4332">
        <ele>29.4575195</ele>
        <time>2011-08-21T06:40:07Z</time>
      </trkpt>
      <trkpt lat="50.38923" lon="3.43321">
        <ele>28.9769287</ele>
        <time>2011-08-21T06:40:12Z</time>
      </trkpt>
      <trkpt lat="50.38937" lon="3.43327">
        <ele>29.4575195</ele>
        <time>2011-08-21T06:40:16Z</time>
      </trkpt>
      <trkpt lat="50.38962" lon="3.43322">
        <ele>28.0155029</ele>
        <time>2011-08-21T06:40:21Z</time>
      </trkpt>
      <trkpt lat="50.39" lon="3.43327">
        <ele>30.4188232</ele>
        <time>2011-08-21T06:40:26Z</time>
      </trkpt>
      <trkpt lat="50.39024" lon="3.43341">
        <ele>29.9381104</ele>
        <time>2011-08-21T06:40:29Z</time>
      </trkpt>
      <trkpt lat="50.39037" lon="3.43355">
        <ele>31.380127</ele>
        <time>2011-08-21T06:40:31Z</time>
      </trkpt>
      <trkpt lat="50.39051" lon="3.4338">
        <ele>30.8995361</ele>
        <time>2011-08-21T06:40:34Z</time>
      </trkpt>
      <trkpt lat="50.3907" lon="3.43438">
        <ele>24.651001</ele>
        <time>2011-08-21T06:40:40Z</time>
      </trkpt>
      <trkpt lat="50.39092" lon="3.43508">
        <ele>20.8056641</ele>
        <time>2011-08-21T06:40:47Z</time>
      </trkpt>
      <trkpt lat="50.39116" lon="3.43568">
        <ele>18.4023438</ele>
        <time>2011-08-21T06:40:53Z</time>
      </trkpt>
      <trkpt lat="50.3912" lon="3.43578">
        <ele>18.4023438</ele>
        <time>2011-08-21T06:40:54Z</time>
      </trkpt>
      <trkpt lat="50.39151" lon="3.43651">
        <ele>17.4411621</ele>
        <time>2011-08-21T06:41:01Z</time>
      </trkpt>
      <trkpt lat="50.39174" lon="3.437">
        <ele>15.0377197</ele>
        <time>2011-08-21T06:41:06Z</time>
      </trkpt>
      <trkpt lat="50.39186" lon="3.43731">
        <ele>14.076416</ele>
        <time>2011-08-21T06:41:09Z</time>
      </trkpt>
      <trkpt lat="50.39209" lon="3.4379">
        <ele>14.076416</ele>
        <time>2011-08-21T06:41:14Z</time>
      </trkpt>
      <trkpt lat="50.39236" lon="3.43856">
        <ele>14.5570068</ele>
        <time>2011-08-21T06:41:20Z</time>
      </trkpt>
      <trkpt lat="50.39259" lon="3.43918">
        <ele>14.076416</ele>
        <time>2011-08-21T06:41:26Z</time>
      </trkpt>
      <trkpt lat="50.39286" lon="3.43984">
        <ele>15.9990234</ele>
        <time>2011-08-21T06:41:32Z</time>
      </trkpt>
      <trkpt lat="50.39307" lon="3.44043">
        <ele>14.076416</ele>
        <time>2011-08-21T06:41:38Z</time>
      </trkpt>
      <trkpt lat="50.39335" lon="3.44112">
        <ele>16.4797363</ele>
        <time>2011-08-21T06:41:45Z</time>
      </trkpt>
      <trkpt lat="50.39362" lon="3.44171">
        <ele>19.8443604</ele>
        <time>2011-08-21T06:41:51Z</time>
      </trkpt>
      <trkpt lat="50.39385" lon="3.44231">
        <ele>18.8830566</ele>
        <time>2011-08-21T06:41:57Z</time>
      </trkpt>
      <trkpt lat="50.39404" lon="3.44281">
        <ele>18.4023438</ele>
        <time>2011-08-21T06:42:02Z</time>
      </trkpt>
      <trkpt lat="50.39439" lon="3.4436">
        <ele>18.8830566</ele>
        <time>2011-08-21T06:42:10Z</time>
      </trkpt>
      <trkpt lat="50.39461" lon="3.44416">
        <ele>18.8830566</ele>
        <time>2011-08-21T06:42:16Z</time>
      </trkpt>
      <trkpt lat="50.39501" lon="3.44501">
        <ele>22.2475586</ele>
        <time>2011-08-21T06:42:25Z</time>
      </trkpt>
      <trkpt lat="50.39527" lon="3.44574">
        <ele>26.5736084</ele>
        <time>2011-08-21T06:42:32Z</time>
      </trkpt>
      <trkpt lat="50.39549" lon="3.44645">
        <ele>26.0928955</ele>
        <time>2011-08-21T06:42:39Z</time>
      </trkpt>
      <trkpt lat="50.39563" lon="3.44672">
        <ele>28.0155029</ele>
        <time>2011-08-21T06:42:42Z</time>
      </trkpt>
      <trkpt lat="50.39572" lon="3.44688">
        <ele>28.0155029</ele>
        <time>2011-08-21T06:42:44Z</time>
      </trkpt>
      <trkpt lat="50.39581" lon="3.44712">
        <ele>26.5736084</ele>
        <time>2011-08-21T06:42:47Z</time>
      </trkpt>
      <trkpt lat="50.39599" lon="3.44721">
        <ele>28.9769287</ele>
        <time>2011-08-21T06:42:51Z</time>
      </trkpt>
      <trkpt lat="50.39618" lon="3.44717">
        <ele>28.9769287</ele>
        <time>2011-08-21T06:42:55Z</time>
      </trkpt>
      <trkpt lat="50.39641" lon="3.44726">
        <ele>30.4188232</ele>
        <time>2011-08-21T06:42:59Z</time>
      </trkpt>
      <trkpt lat="50.39668" lon="3.44735">
        <ele>29.9381104</ele>
        <time>2011-08-21T06:43:03Z</time>
      </trkpt>
      <trkpt lat="50.39705" lon="3.44727">
        <ele>29.4575195</ele>
        <time>2011-08-21T06:43:08Z</time>
      </trkpt>
      <trkpt lat="50.39731" lon="3.4472">
        <ele>28.4962158</ele>
        <time>2011-08-21T06:43:12Z</time>
      </trkpt>
      <trkpt lat="50.39747" lon="3.44723">
        <ele>30.4188232</ele>
        <time>2011-08-21T06:43:14Z</time>
      </trkpt>
      <trkpt lat="50.39762" lon="3.44725">
        <ele>29.9381104</ele>
        <time>2011-08-21T06:43:16Z</time>
      </trkpt>
      <trkpt lat="50.39792" lon="3.44708">
        <ele>28.4962158</ele>
        <time>2011-08-21T06:43:20Z</time>
      </trkpt>
      <trkpt lat="50.39816" lon="3.44679">
        <ele>27.0543213</ele>
        <time>2011-08-21T06:43:24Z</time>
      </trkpt>
      <trkpt lat="50.39831" lon="3.44655">
        <ele>27.0543213</ele>
        <time>2011-08-21T06:43:27Z</time>
      </trkpt>
      <trkpt lat="50.39828" lon="3.44636">
        <ele>24.1702881</ele>
        <time>2011-08-21T06:43:30Z</time>
      </trkpt>
      <trkpt lat="50.39823" lon="3.44628">
        <ele>25.1317139</ele>
        <time>2011-08-21T06:43:31Z</time>
      </trkpt>
      <trkpt lat="50.39802" lon="3.44581">
        <ele>22.2475586</ele>
        <time>2011-08-21T06:43:38Z</time>
      </trkpt>
      <trkpt lat="50.39799" lon="3.44574">
        <ele>20.8056641</ele>
        <time>2011-08-21T06:43:39Z</time>
      </trkpt>
      <trkpt lat="50.39794" lon="3.44558">
        <ele>20.8056641</ele>
        <time>2011-08-21T06:43:41Z</time>
      </trkpt>
      <trkpt lat="50.3979" lon="3.44532">
        <ele>19.3637695</ele>
        <time>2011-08-21T06:43:44Z</time>
      </trkpt>
      <trkpt lat="50.39783" lon="3.44505">
        <ele>19.3637695</ele>
        <time>2011-08-21T06:43:47Z</time>
      </trkpt>
      <trkpt lat="50.39766" lon="3.44477">
        <ele>19.8443604</ele>
        <time>2011-08-21T06:43:51Z</time>
      </trkpt>
      <trkpt lat="50.39761" lon="3.4447">
        <ele>20.3249512</ele>
        <time>2011-08-21T06:43:52Z</time>
      </trkpt>
      <trkpt lat="50.3975" lon="3.44454">
        <ele>21.286377</ele>
        <time>2011-08-21T06:43:54Z</time>
      </trkpt>
      <trkpt lat="50.39724" lon="3.44409">
        <ele>22.2475586</ele>
        <time>2011-08-21T06:43:59Z</time>
      </trkpt>
      <trkpt lat="50.39718" lon="3.444">
        <ele>22.2475586</ele>
        <time>2011-08-21T06:44:00Z</time>
      </trkpt>
      <trkpt lat="50.39703" lon="3.44356">
        <ele>22.2475586</ele>
        <time>2011-08-21T06:44:05Z</time>
      </trkpt>
      <trkpt lat="50.39705" lon="3.44345">
        <ele>21.7669678</ele>
        <time>2011-08-21T06:44:07Z</time>
      </trkpt>
      <trkpt lat="50.39713" lon="3.44345">
        <ele>21.7669678</ele>
        <time>2011-08-21T06:44:10Z</time>
      </trkpt>
      <trkpt lat="50.39717" lon="3.44346">
        <ele>21.286377</ele>
        <time>2011-08-21T06:44:11Z</time>
      </trkpt>
      <trkpt lat="50.39741" lon="3.44347">
        <ele>19.3637695</ele>
        <time>2011-08-21T06:44:17Z</time>
      </trkpt>
      <trkpt lat="50.39761" lon="3.44346">
        <ele>19.3637695</ele>
        <time>2011-08-21T06:44:21Z</time>
      </trkpt>
      <trkpt lat="50.398" lon="3.44351">
        <ele>19.8443604</ele>
        <time>2011-08-21T06:44:28Z</time>
      </trkpt>
      <trkpt lat="50.39841" lon="3.44354">
        <ele>19.3637695</ele>
        <time>2011-08-21T06:44:35Z</time>
      </trkpt>
      <trkpt lat="50.39882" lon="3.44337">
        <ele>18.8830566</ele>
        <time>2011-08-21T06:44:42Z</time>
      </trkpt>
      <trkpt lat="50.3993" lon="3.44332">
        <ele>20.8056641</ele>
        <time>2011-08-21T06:44:50Z</time>
      </trkpt>
      <trkpt lat="50.39973" lon="3.44327">
        <ele>22.2475586</ele>
        <time>2011-08-21T06:44:57Z</time>
      </trkpt>
      <trkpt lat="50.4001" lon="3.44323">
        <ele>22.7282715</ele>
        <time>2011-08-21T06:45:03Z</time>
      </trkpt>
      <trkpt lat="50.40059" lon="3.44318">
        <ele>23.2089844</ele>
        <time>2011-08-21T06:45:11Z</time>
      </trkpt>
      <trkpt lat="50.40098" lon="3.44313">
        <ele>22.7282715</ele>
        <time>2011-08-21T06:45:17Z</time>
      </trkpt>
      <trkpt lat="50.40135" lon="3.44309">
        <ele>21.7669678</ele>
        <time>2011-08-21T06:45:23Z</time>
      </trkpt>
      <trkpt lat="50.40175" lon="3.44305">
        <ele>20.8056641</ele>
        <time>2011-08-21T06:45:29Z</time>
      </trkpt>
      <trkpt lat="50.40221" lon="3.44299">
        <ele>19.8443604</ele>
        <time>2011-08-21T06:45:36Z</time>
      </trkpt>
      <trkpt lat="50.40258" lon="3.44295">
        <ele>22.7282715</ele>
        <time>2011-08-21T06:45:41Z</time>
      </trkpt>
      <trkpt lat="50.40296" lon="3.44291">
        <ele>28.0155029</ele>
        <time>2011-08-21T06:45:46Z</time>
      </trkpt>
      <trkpt lat="50.40325" lon="3.44287">
        <ele>27.5349121</ele>
        <time>2011-08-21T06:45:51Z</time>
      </trkpt>
      <trkpt lat="50.40358" lon="3.44284">
        <ele>27.0543213</ele>
        <time>2011-08-21T06:45:56Z</time>
      </trkpt>
      <trkpt lat="50.40399" lon="3.4428">
        <ele>27.5349121</ele>
        <time>2011-08-21T06:46:02Z</time>
      </trkpt>
      <trkpt lat="50.40435" lon="3.44276">
        <ele>30.8995361</ele>
        <time>2011-08-21T06:46:07Z</time>
      </trkpt>
      <trkpt lat="50.40445" lon="3.44272">
        <ele>29.4575195</ele>
        <time>2011-08-21T06:46:09Z</time>
      </trkpt>
      <trkpt lat="50.40465" lon="3.44248">
        <ele>27.0543213</ele>
        <time>2011-08-21T06:46:13Z</time>
      </trkpt>
      <trkpt lat="50.40496" lon="3.44192">
        <ele>21.7669678</ele>
        <time>2011-08-21T06:46:20Z</time>
      </trkpt>
      <trkpt lat="50.40524" lon="3.44162">
        <ele>21.286377</ele>
        <time>2011-08-21T06:46:25Z</time>
      </trkpt>
      <trkpt lat="50.40541" lon="3.44148">
        <ele>19.3637695</ele>
        <time>2011-08-21T06:46:28Z</time>
      </trkpt>
      <trkpt lat="50.40584" lon="3.44127">
        <ele>21.286377</ele>
        <time>2011-08-21T06:46:35Z</time>
      </trkpt>
      <trkpt lat="50.40615" lon="3.44113">
        <ele>22.2475586</ele>
        <time>2011-08-21T06:46:40Z</time>
      </trkpt>
      <trkpt lat="50.40637" lon="3.44092">
        <ele>23.2089844</ele>
        <time>2011-08-21T06:46:44Z</time>
      </trkpt>
      <trkpt lat="50.40657" lon="3.44065">
        <ele>24.1702881</ele>
        <time>2011-08-21T06:46:48Z</time>
      </trkpt>
      <trkpt lat="50.40649" lon="3.44035">
        <ele>20.3249512</ele>
        <time>2011-08-21T06:46:52Z</time>
      </trkpt>
      <trkpt lat="50.40645" lon="3.44028">
        <ele>19.8443604</ele>
        <time>2011-08-21T06:46:53Z</time>
      </trkpt>
      <trkpt lat="50.40623" lon="3.43982">
        <ele>19.8443604</ele>
        <time>2011-08-21T06:46:59Z</time>
      </trkpt>
      <trkpt lat="50.40597" lon="3.43933">
        <ele>21.7669678</ele>
        <time>2011-08-21T06:47:05Z</time>
      </trkpt>
      <trkpt lat="50.40569" lon="3.43874">
        <ele>23.6895752</ele>
        <time>2011-08-21T06:47:12Z</time>
      </trkpt>
      <trkpt lat="50.40552" lon="3.43834">
        <ele>24.1702881</ele>
        <time>2011-08-21T06:47:17Z</time>
      </trkpt>
      <trkpt lat="50.40532" lon="3.43794">
        <ele>25.1317139</ele>
        <time>2011-08-21T06:47:22Z</time>
      </trkpt>
      <trkpt lat="50.40523" lon="3.43772">
        <ele>25.1317139</ele>
        <time>2011-08-21T06:47:25Z</time>
      </trkpt>
      <trkpt lat="50.40496" lon="3.43716">
        <ele>24.651001</ele>
        <time>2011-08-21T06:47:32Z</time>
      </trkpt>
      <trkpt lat="50.40474" lon="3.4367">
        <ele>25.6123047</ele>
        <time>2011-08-21T06:47:38Z</time>
      </trkpt>
      <trkpt lat="50.40467" lon="3.43654">
        <ele>26.0928955</ele>
        <time>2011-08-21T06:47:40Z</time>
      </trkpt>
      <trkpt lat="50.4044" lon="3.436">
        <ele>25.6123047</ele>
        <time>2011-08-21T06:47:47Z</time>
      </trkpt>
      <trkpt lat="50.40416" lon="3.43551">
        <ele>26.5736084</ele>
        <time>2011-08-21T06:47:53Z</time>
      </trkpt>
      <trkpt lat="50.40385" lon="3.43484">
        <ele>26.5736084</ele>
        <time>2011-08-21T06:48:01Z</time>
      </trkpt>
      <trkpt lat="50.40357" lon="3.43425">
        <ele>25.6123047</ele>
        <time>2011-08-21T06:48:08Z</time>
      </trkpt>
      <trkpt lat="50.40333" lon="3.43375">
        <ele>25.6123047</ele>
        <time>2011-08-21T06:48:14Z</time>
      </trkpt>
      <trkpt lat="50.40305" lon="3.43318">
        <ele>24.651001</ele>
        <time>2011-08-21T06:48:21Z</time>
      </trkpt>
      <trkpt lat="50.40283" lon="3.43269">
        <ele>24.651001</ele>
        <time>2011-08-21T06:48:27Z</time>
      </trkpt>
      <trkpt lat="50.4026" lon="3.43218">
        <ele>25.6123047</ele>
        <time>2011-08-21T06:48:33Z</time>
      </trkpt>
      <trkpt lat="50.40229" lon="3.43157">
        <ele>25.6123047</ele>
        <time>2011-08-21T06:48:40Z</time>
      </trkpt>
      <trkpt lat="50.40217" lon="3.43133">
        <ele>25.6123047</ele>
        <time>2011-08-21T06:48:43Z</time>
      </trkpt>
      <trkpt lat="50.40195" lon="3.43086">
        <ele>24.1702881</ele>
        <time>2011-08-21T06:48:49Z</time>
      </trkpt>
      <trkpt lat="50.40171" lon="3.43037">
        <ele>22.7282715</ele>
        <time>2011-08-21T06:48:55Z</time>
      </trkpt>
      <trkpt lat="50.40161" lon="3.43014">
        <ele>22.2475586</ele>
        <time>2011-08-21T06:48:58Z</time>
      </trkpt>
      <trkpt lat="50.40161" lon="3.42992">
        <ele>20.8056641</ele>
        <time>2011-08-21T06:49:02Z</time>
      </trkpt>
      <trkpt lat="50.40165" lon="3.4299">
        <ele>20.3249512</ele>
        <time>2011-08-21T06:49:03Z</time>
      </trkpt>
      <trkpt lat="50.40195" lon="3.42983">
        <ele>18.4023438</ele>
        <time>2011-08-21T06:49:10Z</time>
      </trkpt>
      <trkpt lat="50.40234" lon="3.42973">
        <ele>18.8830566</ele>
        <time>2011-08-21T06:49:17Z</time>
      </trkpt>
      <trkpt lat="50.40277" lon="3.4296">
        <ele>18.4023438</ele>
        <time>2011-08-21T06:49:24Z</time>
      </trkpt>
      <trkpt lat="50.40315" lon="3.42945">
        <ele>17.4411621</ele>
        <time>2011-08-21T06:49:30Z</time>
      </trkpt>
      <trkpt lat="50.40366" lon="3.42925">
        <ele>17.4411621</ele>
        <time>2011-08-21T06:49:38Z</time>
      </trkpt>
      <trkpt lat="50.40421" lon="3.42902">
        <ele>17.9217529</ele>
        <time>2011-08-21T06:49:47Z</time>
      </trkpt>
      <trkpt lat="50.40477" lon="3.4288">
        <ele>18.4023438</ele>
        <time>2011-08-21T06:49:56Z</time>
      </trkpt>
      <trkpt lat="50.40541" lon="3.42854">
        <ele>18.4023438</ele>
        <time>2011-08-21T06:50:06Z</time>
      </trkpt>
      <trkpt lat="50.40584" lon="3.42836">
        <ele>18.4023438</ele>
        <time>2011-08-21T06:50:13Z</time>
      </trkpt>
      <trkpt lat="50.40621" lon="3.42823">
        <ele>18.4023438</ele>
        <time>2011-08-21T06:50:19Z</time>
      </trkpt>
      <trkpt lat="50.40664" lon="3.42807">
        <ele>17.9217529</ele>
        <time>2011-08-21T06:50:26Z</time>
      </trkpt>
      <trkpt lat="50.40707" lon="3.42798">
        <ele>18.4023438</ele>
        <time>2011-08-21T06:50:33Z</time>
      </trkpt>
      <trkpt lat="50.40764" lon="3.42794">
        <ele>20.3249512</ele>
        <time>2011-08-21T06:50:42Z</time>
      </trkpt>
      <trkpt lat="50.4077" lon="3.42794">
        <ele>20.8056641</ele>
        <time>2011-08-21T06:50:43Z</time>
      </trkpt>
      <trkpt lat="50.40782" lon="3.42792">
        <ele>21.286377</ele>
        <time>2011-08-21T06:50:45Z</time>
      </trkpt>
      <trkpt lat="50.40833" lon="3.42788">
        <ele>25.1317139</ele>
        <time>2011-08-21T06:50:53Z</time>
      </trkpt>
      <trkpt lat="50.40865" lon="3.42786">
        <ele>25.6123047</ele>
        <time>2011-08-21T06:50:58Z</time>
      </trkpt>
      <trkpt lat="50.40912" lon="3.42782">
        <ele>25.1317139</ele>
        <time>2011-08-21T06:51:06Z</time>
      </trkpt>
      <trkpt lat="50.40947" lon="3.4278">
        <ele>25.6123047</ele>
        <time>2011-08-21T06:51:12Z</time>
      </trkpt>
      <trkpt lat="50.40964" lon="3.42783">
        <ele>25.1317139</ele>
        <time>2011-08-21T06:51:15Z</time>
      </trkpt>
      <trkpt lat="50.4101" lon="3.42811">
        <ele>24.651001</ele>
        <time>2011-08-21T06:51:23Z</time>
      </trkpt>
      <trkpt lat="50.41045" lon="3.42835">
        <ele>24.651001</ele>
        <time>2011-08-21T06:51:29Z</time>
      </trkpt>
      <trkpt lat="50.41095" lon="3.42868">
        <ele>23.6895752</ele>
        <time>2011-08-21T06:51:38Z</time>
      </trkpt>
      <trkpt lat="50.41123" lon="3.42887">
        <ele>20.8056641</ele>
        <time>2011-08-21T06:51:42Z</time>
      </trkpt>
      <trkpt lat="50.41159" lon="3.4291">
        <ele>20.3249512</ele>
        <time>2011-08-21T06:51:47Z</time>
      </trkpt>
      <trkpt lat="50.41189" lon="3.42932">
        <ele>20.8056641</ele>
        <time>2011-08-21T06:51:52Z</time>
      </trkpt>
      <trkpt lat="50.41208" lon="3.42942">
        <ele>23.2089844</ele>
        <time>2011-08-21T06:51:55Z</time>
      </trkpt>
      <trkpt lat="50.41224" lon="3.42955">
        <ele>27.0543213</ele>
        <time>2011-08-21T06:51:58Z</time>
      </trkpt>
      <trkpt lat="50.41255" lon="3.42974">
        <ele>27.5349121</ele>
        <time>2011-08-21T06:52:04Z</time>
      </trkpt>
      <trkpt lat="50.41279" lon="3.42991">
        <ele>30.4188232</ele>
        <time>2011-08-21T06:52:08Z</time>
      </trkpt>
      <trkpt lat="50.41315" lon="3.43009">
        <ele>33.7834473</ele>
        <time>2011-08-21T06:52:14Z</time>
      </trkpt>
      <trkpt lat="50.41328" lon="3.43015">
        <ele>35.7060547</ele>
        <time>2011-08-21T06:52:16Z</time>
      </trkpt>
      <trkpt lat="50.41345" lon="3.43025">
        <ele>37.6286621</ele>
        <time>2011-08-21T06:52:19Z</time>
      </trkpt>
      <trkpt lat="50.41357" lon="3.43031">
        <ele>38.109375</ele>
        <time>2011-08-21T06:52:21Z</time>
      </trkpt>
      <trkpt lat="50.41373" lon="3.43044">
        <ele>37.1480713</ele>
        <time>2011-08-21T06:52:25Z</time>
      </trkpt>
      <trkpt lat="50.41396" lon="3.43056">
        <ele>34.744873</ele>
        <time>2011-08-21T06:52:30Z</time>
      </trkpt>
      <trkpt lat="50.41413" lon="3.43067">
        <ele>32.3415527</ele>
        <time>2011-08-21T06:52:34Z</time>
      </trkpt>
      <trkpt lat="50.4143" lon="3.43082">
        <ele>31.380127</ele>
        <time>2011-08-21T06:52:39Z</time>
      </trkpt>
      <trkpt lat="50.41436" lon="3.43087">
        <ele>29.4575195</ele>
        <time>2011-08-21T06:52:41Z</time>
      </trkpt>
      <trkpt lat="50.41449" lon="3.43101">
        <ele>29.4575195</ele>
        <time>2011-08-21T06:52:47Z</time>
      </trkpt>
      <trkpt lat="50.41457" lon="3.43107">
        <ele>30.8995361</ele>
        <time>2011-08-21T06:52:52Z</time>
      </trkpt>
      <trkpt lat="50.41456" lon="3.43108">
        <ele>28.9769287</ele>
        <time>2011-08-21T06:52:58Z</time>
      </trkpt>
      <trkpt lat="50.41456" lon="3.43096">
        <ele>33.7834473</ele>
        <time>2011-08-21T07:02:14Z</time>
      </trkpt>
      <trkpt lat="50.41457" lon="3.43098">
        <ele>33.7834473</ele>
        <time>2011-08-21T07:02:18Z</time>
      </trkpt>
      <trkpt lat="50.41445" lon="3.43115">
        <ele>32.8222656</ele>
        <time>2011-08-21T07:03:16Z</time>
      </trkpt>
      <trkpt lat="50.41444" lon="3.43112">
        <ele>31.380127</ele>
        <time>2011-08-21T07:03:20Z</time>
      </trkpt>
      <trkpt lat="50.41445" lon="3.4311">
        <ele>29.4575195</ele>
        <time>2011-08-21T07:03:21Z</time>
      </trkpt>
      <trkpt lat="50.41446" lon="3.43109">
        <ele>28.4962158</ele>
        <time>2011-08-21T07:03:22Z</time>
      </trkpt>
      <trkpt lat="50.41453" lon="3.43107">
        <ele>24.651001</ele>
        <time>2011-08-21T07:03:29Z</time>
      </trkpt>
      <trkpt lat="50.41455" lon="3.43105">
        <ele>25.1317139</ele>
        <time>2011-08-21T07:03:34Z</time>
      </trkpt>
      <trkpt lat="50.41461" lon="3.4311">
        <ele>40.0321045</ele>
        <time>2011-08-21T07:07:14Z</time>
      </trkpt>
      <trkpt lat="50.4146" lon="3.4311">
        <ele>40.0321045</ele>
        <time>2011-08-21T07:07:15Z</time>
      </trkpt>
      <trkpt lat="50.41459" lon="3.43098">
        <ele>35.2254639</ele>
        <time>2011-08-21T07:07:32Z</time>
      </trkpt>
      <trkpt lat="50.41459" lon="3.43098">
        <ele>34.744873</ele>
        <time>2011-08-21T07:07:33Z</time>
      </trkpt>
      <trkpt lat="50.41465" lon="3.43109">
        <ele>37.1480713</ele>
        <time>2011-08-21T07:07:57Z</time>
      </trkpt>
      <trkpt lat="50.41469" lon="3.43116">
        <ele>34.744873</ele>
        <time>2011-08-21T07:08:00Z</time>
      </trkpt>
      <trkpt lat="50.41474" lon="3.43124">
        <ele>32.8222656</ele>
        <time>2011-08-21T07:08:03Z</time>
      </trkpt>
      <trkpt lat="50.41478" lon="3.4313">
        <ele>31.8607178</ele>
        <time>2011-08-21T07:08:05Z</time>
      </trkpt>
      <trkpt lat="50.4148" lon="3.43134">
        <ele>31.380127</ele>
        <time>2011-08-21T07:08:06Z</time>
      </trkpt>
      <trkpt lat="50.41492" lon="3.43162">
        <ele>32.8222656</ele>
        <time>2011-08-21T07:08:13Z</time>
      </trkpt>
      <trkpt lat="50.41511" lon="3.43182">
        <ele>31.8607178</ele>
        <time>2011-08-21T07:08:19Z</time>
      </trkpt>
      <trkpt lat="50.4153" lon="3.43207">
        <ele>29.9381104</ele>
        <time>2011-08-21T07:08:25Z</time>
      </trkpt>
      <trkpt lat="50.4156" lon="3.43243">
        <ele>34.744873</ele>
        <time>2011-08-21T07:08:32Z</time>
      </trkpt>
      <trkpt lat="50.41579" lon="3.43269">
        <ele>37.1480713</ele>
        <time>2011-08-21T07:08:37Z</time>
      </trkpt>
      <trkpt lat="50.41616" lon="3.43316">
        <ele>34.2641602</ele>
        <time>2011-08-21T07:08:46Z</time>
      </trkpt>
      <trkpt lat="50.41651" lon="3.43361">
        <ele>31.8607178</ele>
        <time>2011-08-21T07:08:54Z</time>
      </trkpt>
      <trkpt lat="50.41693" lon="3.43415">
        <ele>37.1480713</ele>
        <time>2011-08-21T07:09:03Z</time>
      </trkpt>
      <trkpt lat="50.41725" lon="3.43456">
        <ele>32.3415527</ele>
        <time>2011-08-21T07:09:10Z</time>
      </trkpt>
      <trkpt lat="50.41756" lon="3.43498">
        <ele>24.651001</ele>
        <time>2011-08-21T07:09:17Z</time>
      </trkpt>
      <trkpt lat="50.41775" lon="3.43523">
        <ele>22.7282715</ele>
        <time>2011-08-21T07:09:21Z</time>
      </trkpt>
      <trkpt lat="50.41803" lon="3.43563">
        <ele>24.651001</ele>
        <time>2011-08-21T07:09:27Z</time>
      </trkpt>
      <trkpt lat="50.41839" lon="3.4361">
        <ele>28.0155029</ele>
        <time>2011-08-21T07:09:34Z</time>
      </trkpt>
      <trkpt lat="50.41844" lon="3.43616">
        <ele>28.4962158</ele>
        <time>2011-08-21T07:09:35Z</time>
      </trkpt>
      <trkpt lat="50.41873" lon="3.43658">
        <ele>31.8607178</ele>
        <time>2011-08-21T07:09:41Z</time>
      </trkpt>
      <trkpt lat="50.41898" lon="3.43693">
        <ele>32.3415527</ele>
        <time>2011-08-21T07:09:46Z</time>
      </trkpt>
      <trkpt lat="50.41935" lon="3.4374">
        <ele>35.7060547</ele>
        <time>2011-08-21T07:09:53Z</time>
      </trkpt>
      <trkpt lat="50.4196" lon="3.4377">
        <ele>30.4188232</ele>
        <time>2011-08-21T07:09:58Z</time>
      </trkpt>
      <trkpt lat="50.41986" lon="3.43801">
        <ele>27.0543213</ele>
        <time>2011-08-21T07:10:03Z</time>
      </trkpt>
      <trkpt lat="50.42028" lon="3.43852">
        <ele>23.2089844</ele>
        <time>2011-08-21T07:10:11Z</time>
      </trkpt>
      <trkpt lat="50.42057" lon="3.43891">
        <ele>18.8830566</ele>
        <time>2011-08-21T07:10:17Z</time>
      </trkpt>
      <trkpt lat="50.42106" lon="3.43955">
        <ele>20.3249512</ele>
        <time>2011-08-21T07:10:26Z</time>
      </trkpt>
      <trkpt lat="50.42126" lon="3.43983">
        <ele>20.3249512</ele>
        <time>2011-08-21T07:10:30Z</time>
      </trkpt>
      <trkpt lat="50.42157" lon="3.44027">
        <ele>24.651001</ele>
        <time>2011-08-21T07:10:36Z</time>
      </trkpt>
      <trkpt lat="50.42202" lon="3.44085">
        <ele>26.5736084</ele>
        <time>2011-08-21T07:10:44Z</time>
      </trkpt>
      <trkpt lat="50.42213" lon="3.44098">
        <ele>26.0928955</ele>
        <time>2011-08-21T07:10:46Z</time>
      </trkpt>
      <trkpt lat="50.42252" lon="3.44146">
        <ele>33.7834473</ele>
        <time>2011-08-21T07:10:53Z</time>
      </trkpt>
      <trkpt lat="50.42289" lon="3.44194">
        <ele>36.1867676</ele>
        <time>2011-08-21T07:11:00Z</time>
      </trkpt>
      <trkpt lat="50.4232" lon="3.44233">
        <ele>31.380127</ele>
        <time>2011-08-21T07:11:06Z</time>
      </trkpt>
      <trkpt lat="50.42371" lon="3.44299">
        <ele>26.5736084</ele>
        <time>2011-08-21T07:11:16Z</time>
      </trkpt>
      <trkpt lat="50.42397" lon="3.44334">
        <ele>24.651001</ele>
        <time>2011-08-21T07:11:22Z</time>
      </trkpt>
      <trkpt lat="50.42419" lon="3.4436">
        <ele>23.2089844</ele>
        <time>2011-08-21T07:11:27Z</time>
      </trkpt>
      <trkpt lat="50.42447" lon="3.44392">
        <ele>21.286377</ele>
        <time>2011-08-21T07:11:33Z</time>
      </trkpt>
      <trkpt lat="50.42482" lon="3.44423">
        <ele>20.8056641</ele>
        <time>2011-08-21T07:11:40Z</time>
      </trkpt>
      <trkpt lat="50.42497" lon="3.44439">
        <ele>21.7669678</ele>
        <time>2011-08-21T07:11:44Z</time>
      </trkpt>
      <trkpt lat="50.42514" lon="3.44442">
        <ele>21.7669678</ele>
        <time>2011-08-21T07:11:49Z</time>
      </trkpt>
      <trkpt lat="50.42518" lon="3.44439">
        <ele>21.286377</ele>
        <time>2011-08-21T07:11:50Z</time>
      </trkpt>
      <trkpt lat="50.42545" lon="3.44406">
        <ele>19.8443604</ele>
        <time>2011-08-21T07:11:58Z</time>
      </trkpt>
      <trkpt lat="50.42552" lon="3.44396">
        <ele>19.3637695</ele>
        <time>2011-08-21T07:12:00Z</time>
      </trkpt>
      <trkpt lat="50.42563" lon="3.44384">
        <ele>17.9217529</ele>
        <time>2011-08-21T07:12:03Z</time>
      </trkpt>
      <trkpt lat="50.42574" lon="3.44387">
        <ele>16.9604492</ele>
        <time>2011-08-21T07:12:07Z</time>
      </trkpt>
      <trkpt lat="50.42577" lon="3.44401">
        <ele>17.4411621</ele>
        <time>2011-08-21T07:12:10Z</time>
      </trkpt>
      <trkpt lat="50.42579" lon="3.44415">
        <ele>17.9217529</ele>
        <time>2011-08-21T07:12:13Z</time>
      </trkpt>
      <trkpt lat="50.42581" lon="3.4442">
        <ele>18.4023438</ele>
        <time>2011-08-21T07:12:14Z</time>
      </trkpt>
      <trkpt lat="50.42586" lon="3.44444">
        <ele>19.8443604</ele>
        <time>2011-08-21T07:12:19Z</time>
      </trkpt>
      <trkpt lat="50.42592" lon="3.44473">
        <ele>21.286377</ele>
        <time>2011-08-21T07:12:24Z</time>
      </trkpt>
      <trkpt lat="50.42597" lon="3.44515">
        <ele>25.1317139</ele>
        <time>2011-08-21T07:12:30Z</time>
      </trkpt>
      <trkpt lat="50.42599" lon="3.4453">
        <ele>25.6123047</ele>
        <time>2011-08-21T07:12:32Z</time>
      </trkpt>
      <trkpt lat="50.42606" lon="3.4458">
        <ele>28.9769287</ele>
        <time>2011-08-21T07:12:38Z</time>
      </trkpt>
      <trkpt lat="50.42613" lon="3.44624">
        <ele>30.8995361</ele>
        <time>2011-08-21T07:12:43Z</time>
      </trkpt>
      <trkpt lat="50.4262" lon="3.4467">
        <ele>28.9769287</ele>
        <time>2011-08-21T07:12:49Z</time>
      </trkpt>
      <trkpt lat="50.42622" lon="3.44686">
        <ele>30.4188232</ele>
        <time>2011-08-21T07:12:51Z</time>
      </trkpt>
      <trkpt lat="50.42622" lon="3.44707">
        <ele>27.5349121</ele>
        <time>2011-08-21T07:12:56Z</time>
      </trkpt>
      <trkpt lat="50.42621" lon="3.44711">
        <ele>27.0543213</ele>
        <time>2011-08-21T07:12:57Z</time>
      </trkpt>
      <trkpt lat="50.42617" lon="3.44726">
        <ele>26.5736084</ele>
        <time>2011-08-21T07:13:00Z</time>
      </trkpt>
      <trkpt lat="50.42615" lon="3.44731">
        <ele>26.0928955</ele>
        <time>2011-08-21T07:13:01Z</time>
      </trkpt>
      <trkpt lat="50.426" lon="3.44772">
        <ele>25.6123047</ele>
        <time>2011-08-21T07:13:07Z</time>
      </trkpt>
      <trkpt lat="50.42589" lon="3.44802">
        <ele>24.651001</ele>
        <time>2011-08-21T07:13:11Z</time>
      </trkpt>
      <trkpt lat="50.4258" lon="3.44826">
        <ele>24.1702881</ele>
        <time>2011-08-21T07:13:14Z</time>
      </trkpt>
      <trkpt lat="50.42574" lon="3.44842">
        <ele>24.1702881</ele>
        <time>2011-08-21T07:13:16Z</time>
      </trkpt>
      <trkpt lat="50.42571" lon="3.4485">
        <ele>24.651001</ele>
        <time>2011-08-21T07:13:17Z</time>
      </trkpt>
      <trkpt lat="50.42558" lon="3.44882">
        <ele>24.651001</ele>
        <time>2011-08-21T07:13:21Z</time>
      </trkpt>
      <trkpt lat="50.4255" lon="3.44906">
        <ele>24.651001</ele>
        <time>2011-08-21T07:13:24Z</time>
      </trkpt>
      <trkpt lat="50.42521" lon="3.44983">
        <ele>24.1702881</ele>
        <time>2011-08-21T07:13:33Z</time>
      </trkpt>
      <trkpt lat="50.42486" lon="3.4508">
        <ele>24.651001</ele>
        <time>2011-08-21T07:13:44Z</time>
      </trkpt>
      <trkpt lat="50.4246" lon="3.45149">
        <ele>24.651001</ele>
        <time>2011-08-21T07:13:52Z</time>
      </trkpt>
      <trkpt lat="50.42427" lon="3.45237">
        <ele>25.6123047</ele>
        <time>2011-08-21T07:14:02Z</time>
      </trkpt>
      <trkpt lat="50.42395" lon="3.45324">
        <ele>27.0543213</ele>
        <time>2011-08-21T07:14:12Z</time>
      </trkpt>
      <trkpt lat="50.42362" lon="3.45408">
        <ele>27.0543213</ele>
        <time>2011-08-21T07:14:22Z</time>
      </trkpt>
      <trkpt lat="50.42342" lon="3.45461">
        <ele>26.5736084</ele>
        <time>2011-08-21T07:14:28Z</time>
      </trkpt>
      <trkpt lat="50.42322" lon="3.45515">
        <ele>26.5736084</ele>
        <time>2011-08-21T07:14:34Z</time>
      </trkpt>
      <trkpt lat="50.42284" lon="3.45615">
        <ele>28.0155029</ele>
        <time>2011-08-21T07:14:45Z</time>
      </trkpt>
      <trkpt lat="50.42258" lon="3.45686">
        <ele>28.9769287</ele>
        <time>2011-08-21T07:14:53Z</time>
      </trkpt>
      <trkpt lat="50.42243" lon="3.45731">
        <ele>29.4575195</ele>
        <time>2011-08-21T07:14:58Z</time>
      </trkpt>
      <trkpt lat="50.42214" lon="3.45809">
        <ele>30.4188232</ele>
        <time>2011-08-21T07:15:07Z</time>
      </trkpt>
      <trkpt lat="50.42188" lon="3.45873">
        <ele>29.9381104</ele>
        <time>2011-08-21T07:15:14Z</time>
      </trkpt>
      <trkpt lat="50.42159" lon="3.45949">
        <ele>28.9769287</ele>
        <time>2011-08-21T07:15:22Z</time>
      </trkpt>
      <trkpt lat="50.42136" lon="3.46013">
        <ele>28.4962158</ele>
        <time>2011-08-21T07:15:29Z</time>
      </trkpt>
      <trkpt lat="50.42107" lon="3.46092">
        <ele>28.4962158</ele>
        <time>2011-08-21T07:15:38Z</time>
      </trkpt>
      <trkpt lat="50.42075" lon="3.46178">
        <ele>28.4962158</ele>
        <time>2011-08-21T07:15:48Z</time>
      </trkpt>
      <trkpt lat="50.42046" lon="3.46255">
        <ele>28.4962158</ele>
        <time>2011-08-21T07:15:57Z</time>
      </trkpt>
      <trkpt lat="50.42017" lon="3.46333">
        <ele>28.4962158</ele>
        <time>2011-08-21T07:16:06Z</time>
      </trkpt>
      <trkpt lat="50.41992" lon="3.46399">
        <ele>28.4962158</ele>
        <time>2011-08-21T07:16:14Z</time>
      </trkpt>
      <trkpt lat="50.4197" lon="3.46456">
        <ele>28.0155029</ele>
        <time>2011-08-21T07:16:21Z</time>
      </trkpt>
      <trkpt lat="50.41954" lon="3.46494">
        <ele>27.0543213</ele>
        <time>2011-08-21T07:16:26Z</time>
      </trkpt>
      <trkpt lat="50.4195" lon="3.46509">
        <ele>27.0543213</ele>
        <time>2011-08-21T07:16:28Z</time>
      </trkpt>
      <trkpt lat="50.41942" lon="3.46531">
        <ele>28.0155029</ele>
        <time>2011-08-21T07:16:32Z</time>
      </trkpt>
      <trkpt lat="50.41934" lon="3.46549">
        <ele>28.4962158</ele>
        <time>2011-08-21T07:16:36Z</time>
      </trkpt>
      <trkpt lat="50.41918" lon="3.46584">
        <ele>28.9769287</ele>
        <time>2011-08-21T07:16:42Z</time>
      </trkpt>
      <trkpt lat="50.41912" lon="3.46613">
        <ele>28.9769287</ele>
        <time>2011-08-21T07:16:46Z</time>
      </trkpt>
      <trkpt lat="50.4191" lon="3.46628">
        <ele>28.4962158</ele>
        <time>2011-08-21T07:16:48Z</time>
      </trkpt>
      <trkpt lat="50.41905" lon="3.46656">
        <ele>28.0155029</ele>
        <time>2011-08-21T07:16:53Z</time>
      </trkpt>
      <trkpt lat="50.41901" lon="3.46667">
        <ele>28.4962158</ele>
        <time>2011-08-21T07:16:55Z</time>
      </trkpt>
      <trkpt lat="50.4188" lon="3.46721">
        <ele>28.9769287</ele>
        <time>2011-08-21T07:17:03Z</time>
      </trkpt>
      <trkpt lat="50.41874" lon="3.46736">
        <ele>29.9381104</ele>
        <time>2011-08-21T07:17:05Z</time>
      </trkpt>
      <trkpt lat="50.41857" lon="3.46787">
        <ele>32.8222656</ele>
        <time>2011-08-21T07:17:12Z</time>
      </trkpt>
      <trkpt lat="50.41851" lon="3.46801">
        <ele>33.3028564</ele>
        <time>2011-08-21T07:17:14Z</time>
      </trkpt>
      <trkpt lat="50.41827" lon="3.46851">
        <ele>33.7834473</ele>
        <time>2011-08-21T07:17:21Z</time>
      </trkpt>
      <trkpt lat="50.41811" lon="3.46882">
        <ele>33.7834473</ele>
        <time>2011-08-21T07:17:25Z</time>
      </trkpt>
      <trkpt lat="50.41793" lon="3.46914">
        <ele>33.3028564</ele>
        <time>2011-08-21T07:17:29Z</time>
      </trkpt>
      <trkpt lat="50.41752" lon="3.46979">
        <ele>32.8222656</ele>
        <time>2011-08-21T07:17:38Z</time>
      </trkpt>
      <trkpt lat="50.41719" lon="3.47013">
        <ele>30.4188232</ele>
        <time>2011-08-21T07:17:44Z</time>
      </trkpt>
      <trkpt lat="50.41703" lon="3.4703">
        <ele>30.8995361</ele>
        <time>2011-08-21T07:17:47Z</time>
      </trkpt>
      <trkpt lat="50.41663" lon="3.47071">
        <ele>31.8607178</ele>
        <time>2011-08-21T07:17:54Z</time>
      </trkpt>
      <trkpt lat="50.41618" lon="3.47111">
        <ele>31.380127</ele>
        <time>2011-08-21T07:18:01Z</time>
      </trkpt>
      <trkpt lat="50.41583" lon="3.4714">
        <ele>30.4188232</ele>
        <time>2011-08-21T07:18:06Z</time>
      </trkpt>
      <trkpt lat="50.41577" lon="3.47146">
        <ele>29.9381104</ele>
        <time>2011-08-21T07:18:07Z</time>
      </trkpt>
      <trkpt lat="50.4155" lon="3.47173">
        <ele>30.4188232</ele>
        <time>2011-08-21T07:18:11Z</time>
      </trkpt>
      <trkpt lat="50.41504" lon="3.47215">
        <ele>30.8995361</ele>
        <time>2011-08-21T07:18:18Z</time>
      </trkpt>
      <trkpt lat="50.41469" lon="3.47245">
        <ele>30.8995361</ele>
        <time>2011-08-21T07:18:23Z</time>
      </trkpt>
      <trkpt lat="50.41431" lon="3.47283">
        <ele>32.8222656</ele>
        <time>2011-08-21T07:18:29Z</time>
      </trkpt>
      <trkpt lat="50.41406" lon="3.47307">
        <ele>32.3415527</ele>
        <time>2011-08-21T07:18:33Z</time>
      </trkpt>
      <trkpt lat="50.41361" lon="3.4735">
        <ele>32.8222656</ele>
        <time>2011-08-21T07:18:40Z</time>
      </trkpt>
      <trkpt lat="50.41317" lon="3.4739">
        <ele>33.3028564</ele>
        <time>2011-08-21T07:18:47Z</time>
      </trkpt>
      <trkpt lat="50.41284" lon="3.4742">
        <ele>32.3415527</ele>
        <time>2011-08-21T07:18:52Z</time>
      </trkpt>
      <trkpt lat="50.41243" lon="3.47454">
        <ele>29.4575195</ele>
        <time>2011-08-21T07:18:58Z</time>
      </trkpt>
      <trkpt lat="50.41213" lon="3.47481">
        <ele>28.0155029</ele>
        <time>2011-08-21T07:19:03Z</time>
      </trkpt>
      <trkpt lat="50.41169" lon="3.47522">
        <ele>29.9381104</ele>
        <time>2011-08-21T07:19:10Z</time>
      </trkpt>
      <trkpt lat="50.41143" lon="3.47543">
        <ele>30.4188232</ele>
        <time>2011-08-21T07:19:14Z</time>
      </trkpt>
      <trkpt lat="50.41098" lon="3.47586">
        <ele>28.4962158</ele>
        <time>2011-08-21T07:19:21Z</time>
      </trkpt>
      <trkpt lat="50.41092" lon="3.47591">
        <ele>28.4962158</ele>
        <time>2011-08-21T07:19:22Z</time>
      </trkpt>
      <trkpt lat="50.41058" lon="3.47627">
        <ele>31.8607178</ele>
        <time>2011-08-21T07:19:28Z</time>
      </trkpt>
      <trkpt lat="50.41017" lon="3.47666">
        <ele>36.1867676</ele>
        <time>2011-08-21T07:19:35Z</time>
      </trkpt>
      <trkpt lat="50.40995" lon="3.4769">
        <ele>36.1867676</ele>
        <time>2011-08-21T07:19:39Z</time>
      </trkpt>
      <trkpt lat="50.4097" lon="3.47721">
        <ele>36.1867676</ele>
        <time>2011-08-21T07:19:44Z</time>
      </trkpt>
      <trkpt lat="50.40947" lon="3.47753">
        <ele>36.6674805</ele>
        <time>2011-08-21T07:19:49Z</time>
      </trkpt>
      <trkpt lat="50.40927" lon="3.47776">
        <ele>35.2254639</ele>
        <time>2011-08-21T07:19:53Z</time>
      </trkpt>
      <trkpt lat="50.40918" lon="3.47787">
        <ele>36.6674805</ele>
        <time>2011-08-21T07:19:55Z</time>
      </trkpt>
      <trkpt lat="50.40894" lon="3.47828">
        <ele>35.2254639</ele>
        <time>2011-08-21T07:20:01Z</time>
      </trkpt>
      <trkpt lat="50.40873" lon="3.47864">
        <ele>38.5900879</ele>
        <time>2011-08-21T07:20:06Z</time>
      </trkpt>
      <trkpt lat="50.40841" lon="3.47926">
        <ele>36.1867676</ele>
        <time>2011-08-21T07:20:13Z</time>
      </trkpt>
      <trkpt lat="50.40822" lon="3.47971">
        <ele>35.7060547</ele>
        <time>2011-08-21T07:20:18Z</time>
      </trkpt>
      <trkpt lat="50.40816" lon="3.47987">
        <ele>35.7060547</ele>
        <time>2011-08-21T07:20:20Z</time>
      </trkpt>
      <trkpt lat="50.40798" lon="3.48024">
        <ele>36.6674805</ele>
        <time>2011-08-21T07:20:25Z</time>
      </trkpt>
      <trkpt lat="50.4079" lon="3.48042">
        <ele>35.7060547</ele>
        <time>2011-08-21T07:20:27Z</time>
      </trkpt>
      <trkpt lat="50.40769" lon="3.48085">
        <ele>31.8607178</ele>
        <time>2011-08-21T07:20:32Z</time>
      </trkpt>
      <trkpt lat="50.40762" lon="3.48101">
        <ele>29.9381104</ele>
        <time>2011-08-21T07:20:34Z</time>
      </trkpt>
      <trkpt lat="50.40746" lon="3.48146">
        <ele>30.4188232</ele>
        <time>2011-08-21T07:20:39Z</time>
      </trkpt>
      <trkpt lat="50.40727" lon="3.48188">
        <ele>29.9381104</ele>
        <time>2011-08-21T07:20:44Z</time>
      </trkpt>
      <trkpt lat="50.40713" lon="3.48214">
        <ele>28.4962158</ele>
        <time>2011-08-21T07:20:47Z</time>
      </trkpt>
      <trkpt lat="50.40692" lon="3.48267">
        <ele>31.380127</ele>
        <time>2011-08-21T07:20:53Z</time>
      </trkpt>
      <trkpt lat="50.40665" lon="3.48323">
        <ele>30.4188232</ele>
        <time>2011-08-21T07:21:00Z</time>
      </trkpt>
      <trkpt lat="50.4066" lon="3.48331">
        <ele>30.8995361</ele>
        <time>2011-08-21T07:21:01Z</time>
      </trkpt>
      <trkpt lat="50.40627" lon="3.48402">
        <ele>27.0543213</ele>
        <time>2011-08-21T07:21:10Z</time>
      </trkpt>
      <trkpt lat="50.40601" lon="3.48459">
        <ele>25.6123047</ele>
        <time>2011-08-21T07:21:17Z</time>
      </trkpt>
      <trkpt lat="50.4059" lon="3.48485">
        <ele>25.1317139</ele>
        <time>2011-08-21T07:21:20Z</time>
      </trkpt>
      <trkpt lat="50.40562" lon="3.48545">
        <ele>26.0928955</ele>
        <time>2011-08-21T07:21:27Z</time>
      </trkpt>
      <trkpt lat="50.40559" lon="3.48553">
        <ele>26.0928955</ele>
        <time>2011-08-21T07:21:28Z</time>
      </trkpt>
      <trkpt lat="50.40527" lon="3.48629">
        <ele>31.380127</ele>
        <time>2011-08-21T07:21:37Z</time>
      </trkpt>
      <trkpt lat="50.4051" lon="3.48663">
        <ele>33.7834473</ele>
        <time>2011-08-21T07:21:43Z</time>
      </trkpt>
      <trkpt lat="50.40495" lon="3.4868">
        <ele>30.8995361</ele>
        <time>2011-08-21T07:21:47Z</time>
      </trkpt>
      <trkpt lat="50.40486" lon="3.48698">
        <ele>29.9381104</ele>
        <time>2011-08-21T07:21:50Z</time>
      </trkpt>
      <trkpt lat="50.40475" lon="3.48719">
        <ele>28.9769287</ele>
        <time>2011-08-21T07:21:53Z</time>
      </trkpt>
      <trkpt lat="50.40465" lon="3.48742">
        <ele>28.4962158</ele>
        <time>2011-08-21T07:21:56Z</time>
      </trkpt>
      <trkpt lat="50.40452" lon="3.48771">
        <ele>28.9769287</ele>
        <time>2011-08-21T07:22:00Z</time>
      </trkpt>
      <trkpt lat="50.40425" lon="3.48829">
        <ele>29.9381104</ele>
        <time>2011-08-21T07:22:08Z</time>
      </trkpt>
      <trkpt lat="50.40411" lon="3.48857">
        <ele>30.4188232</ele>
        <time>2011-08-21T07:22:12Z</time>
      </trkpt>
      <trkpt lat="50.40395" lon="3.48908">
        <ele>36.1867676</ele>
        <time>2011-08-21T07:22:18Z</time>
      </trkpt>
      <trkpt lat="50.40398" lon="3.48928">
        <ele>38.5900879</ele>
        <time>2011-08-21T07:22:22Z</time>
      </trkpt>
      <trkpt lat="50.40401" lon="3.48931">
        <ele>39.0706787</ele>
        <time>2011-08-21T07:22:23Z</time>
      </trkpt>
      <trkpt lat="50.4041" lon="3.48938">
        <ele>38.109375</ele>
        <time>2011-08-21T07:22:25Z</time>
      </trkpt>
      <trkpt lat="50.40419" lon="3.48946">
        <ele>37.6286621</ele>
        <time>2011-08-21T07:22:27Z</time>
      </trkpt>
      <trkpt lat="50.4044" lon="3.4896">
        <ele>38.5900879</ele>
        <time>2011-08-21T07:22:31Z</time>
      </trkpt>
      <trkpt lat="50.40488" lon="3.48997">
        <ele>34.2641602</ele>
        <time>2011-08-21T07:22:40Z</time>
      </trkpt>
      <trkpt lat="50.40498" lon="3.49024">
        <ele>28.0155029</ele>
        <time>2011-08-21T07:22:45Z</time>
      </trkpt>
      <trkpt lat="50.40491" lon="3.49046">
        <ele>27.0543213</ele>
        <time>2011-08-21T07:22:48Z</time>
      </trkpt>
      <trkpt lat="50.40484" lon="3.49062">
        <ele>28.0155029</ele>
        <time>2011-08-21T07:22:50Z</time>
      </trkpt>
      <trkpt lat="50.40475" lon="3.49079">
        <ele>29.4575195</ele>
        <time>2011-08-21T07:22:52Z</time>
      </trkpt>
      <trkpt lat="50.40466" lon="3.4909">
        <ele>30.4188232</ele>
        <time>2011-08-21T07:22:54Z</time>
      </trkpt>
      <trkpt lat="50.40439" lon="3.4912">
        <ele>32.8222656</ele>
        <time>2011-08-21T07:22:59Z</time>
      </trkpt>
      <trkpt lat="50.40413" lon="3.49166">
        <ele>36.1867676</ele>
        <time>2011-08-21T07:23:05Z</time>
      </trkpt>
      <trkpt lat="50.40404" lon="3.49189">
        <ele>37.1480713</ele>
        <time>2011-08-21T07:23:08Z</time>
      </trkpt>
      <trkpt lat="50.40416" lon="3.49221">
        <ele>34.2641602</ele>
        <time>2011-08-21T07:23:12Z</time>
      </trkpt>
      <trkpt lat="50.4042" lon="3.49228">
        <ele>34.2641602</ele>
        <time>2011-08-21T07:23:13Z</time>
      </trkpt>
      <trkpt lat="50.40433" lon="3.49251">
        <ele>33.7834473</ele>
        <time>2011-08-21T07:23:16Z</time>
      </trkpt>
      <trkpt lat="50.40456" lon="3.49303">
        <ele>34.744873</ele>
        <time>2011-08-21T07:23:22Z</time>
      </trkpt>
      <trkpt lat="50.40462" lon="3.49316">
        <ele>35.7060547</ele>
        <time>2011-08-21T07:23:24Z</time>
      </trkpt>
      <trkpt lat="50.40471" lon="3.49315">
        <ele>33.3028564</ele>
        <time>2011-08-21T07:23:27Z</time>
      </trkpt>
      <trkpt lat="50.40481" lon="3.49312">
        <ele>29.9381104</ele>
        <time>2011-08-21T07:23:30Z</time>
      </trkpt>
      <trkpt lat="50.40502" lon="3.49302">
        <ele>24.651001</ele>
        <time>2011-08-21T07:23:35Z</time>
      </trkpt>
      <trkpt lat="50.40526" lon="3.49285">
        <ele>28.9769287</ele>
        <time>2011-08-21T07:23:40Z</time>
      </trkpt>
      <trkpt lat="50.40536" lon="3.49255">
        <ele>22.2475586</ele>
        <time>2011-08-21T07:23:44Z</time>
      </trkpt>
      <trkpt lat="50.40548" lon="3.49234">
        <ele>19.3637695</ele>
        <time>2011-08-21T07:23:47Z</time>
      </trkpt>
      <trkpt lat="50.40564" lon="3.49213">
        <ele>14.5570068</ele>
        <time>2011-08-21T07:23:51Z</time>
      </trkpt>
      <trkpt lat="50.4059" lon="3.492">
        <ele>9.7506104</ele>
        <time>2011-08-21T07:23:56Z</time>
      </trkpt>
      <trkpt lat="50.40618" lon="3.49208">
        <ele>11.1925049</ele>
        <time>2011-08-21T07:24:01Z</time>
      </trkpt>
      <trkpt lat="50.40633" lon="3.49232">
        <ele>14.076416</ele>
        <time>2011-08-21T07:24:05Z</time>
      </trkpt>
      <trkpt lat="50.40634" lon="3.49258">
        <ele>14.076416</ele>
        <time>2011-08-21T07:24:08Z</time>
      </trkpt>
      <trkpt lat="50.40632" lon="3.49278">
        <ele>15.0377197</ele>
        <time>2011-08-21T07:24:10Z</time>
      </trkpt>
      <trkpt lat="50.40629" lon="3.49318">
        <ele>15.9990234</ele>
        <time>2011-08-21T07:24:14Z</time>
      </trkpt>
      <trkpt lat="50.4063" lon="3.4936">
        <ele>15.5184326</ele>
        <time>2011-08-21T07:24:18Z</time>
      </trkpt>
      <trkpt lat="50.40631" lon="3.49391">
        <ele>15.5184326</ele>
        <time>2011-08-21T07:24:21Z</time>
      </trkpt>
      <trkpt lat="50.40633" lon="3.49412">
        <ele>15.9990234</ele>
        <time>2011-08-21T07:24:23Z</time>
      </trkpt>
      <trkpt lat="50.40645" lon="3.49443">
        <ele>19.3637695</ele>
        <time>2011-08-21T07:24:27Z</time>
      </trkpt>
      <trkpt lat="50.4066" lon="3.49459">
        <ele>20.8056641</ele>
        <time>2011-08-21T07:24:30Z</time>
      </trkpt>
      <trkpt lat="50.40672" lon="3.49491">
        <ele>22.7282715</ele>
        <time>2011-08-21T07:24:34Z</time>
      </trkpt>
      <trkpt lat="50.40672" lon="3.49508">
        <ele>23.6895752</ele>
        <time>2011-08-21T07:24:36Z</time>
      </trkpt>
      <trkpt lat="50.40672" lon="3.49524">
        <ele>24.1702881</ele>
        <time>2011-08-21T07:24:38Z</time>
      </trkpt>
      <trkpt lat="50.40664" lon="3.49561">
        <ele>28.0155029</ele>
        <time>2011-08-21T07:24:42Z</time>
      </trkpt>
      <trkpt lat="50.4066" lon="3.49579">
        <ele>28.9769287</ele>
        <time>2011-08-21T07:24:44Z</time>
      </trkpt>
      <trkpt lat="50.40653" lon="3.49615">
        <ele>31.8607178</ele>
        <time>2011-08-21T07:24:48Z</time>
      </trkpt>
      <trkpt lat="50.40649" lon="3.49633">
        <ele>34.2641602</ele>
        <time>2011-08-21T07:24:50Z</time>
      </trkpt>
      <trkpt lat="50.40629" lon="3.49663">
        <ele>39.0706787</ele>
        <time>2011-08-21T07:24:55Z</time>
      </trkpt>
      <trkpt lat="50.40622" lon="3.49677">
        <ele>41.9547119</ele>
        <time>2011-08-21T07:24:57Z</time>
      </trkpt>
      <trkpt lat="50.40603" lon="3.49711">
        <ele>40.5128174</ele>
        <time>2011-08-21T07:25:02Z</time>
      </trkpt>
      <trkpt lat="50.4058" lon="3.49742">
        <ele>41.9547119</ele>
        <time>2011-08-21T07:25:07Z</time>
      </trkpt>
      <trkpt lat="50.40562" lon="3.49768">
        <ele>43.8773193</ele>
        <time>2011-08-21T07:25:11Z</time>
      </trkpt>
      <trkpt lat="50.40556" lon="3.49792">
        <ele>40.9934082</ele>
        <time>2011-08-21T07:25:16Z</time>
      </trkpt>
      <trkpt lat="50.40567" lon="3.49814">
        <ele>37.1480713</ele>
        <time>2011-08-21T07:25:22Z</time>
      </trkpt>
      <trkpt lat="50.40581" lon="3.49843">
        <ele>35.2254639</ele>
        <time>2011-08-21T07:25:30Z</time>
      </trkpt>
      <trkpt lat="50.40588" lon="3.49859">
        <ele>34.2641602</ele>
        <time>2011-08-21T07:25:35Z</time>
      </trkpt>
      <trkpt lat="50.40596" lon="3.4988">
        <ele>35.2254639</ele>
        <time>2011-08-21T07:25:41Z</time>
      </trkpt>
      <trkpt lat="50.40606" lon="3.49904">
        <ele>36.1867676</ele>
        <time>2011-08-21T07:25:47Z</time>
      </trkpt>
      <trkpt lat="50.40618" lon="3.49927">
        <ele>38.109375</ele>
        <time>2011-08-21T07:25:53Z</time>
      </trkpt>
      <trkpt lat="50.4063" lon="3.4996">
        <ele>39.5512695</ele>
        <time>2011-08-21T07:26:00Z</time>
      </trkpt>
      <trkpt lat="50.40643" lon="3.49969">
        <ele>39.5512695</ele>
        <time>2011-08-21T07:26:04Z</time>
      </trkpt>
      <trkpt lat="50.40666" lon="3.49973">
        <ele>38.5900879</ele>
        <time>2011-08-21T07:26:11Z</time>
      </trkpt>
      <trkpt lat="50.40677" lon="3.49979">
        <ele>38.5900879</ele>
        <time>2011-08-21T07:26:16Z</time>
      </trkpt>
      <trkpt lat="50.40679" lon="3.50002">
        <ele>40.9934082</ele>
        <time>2011-08-21T07:26:22Z</time>
      </trkpt>
      <trkpt lat="50.40685" lon="3.50031">
        <ele>41.9547119</ele>
        <time>2011-08-21T07:26:28Z</time>
      </trkpt>
      <trkpt lat="50.40692" lon="3.50053">
        <ele>43.8773193</ele>
        <time>2011-08-21T07:26:33Z</time>
      </trkpt>
      <trkpt lat="50.40701" lon="3.50072">
        <ele>46.2806396</ele>
        <time>2011-08-21T07:26:39Z</time>
      </trkpt>
      <trkpt lat="50.40704" lon="3.50083">
        <ele>46.2806396</ele>
        <time>2011-08-21T07:26:42Z</time>
      </trkpt>
      <trkpt lat="50.40711" lon="3.50096">
        <ele>46.7612305</ele>
        <time>2011-08-21T07:26:48Z</time>
      </trkpt>
      <trkpt lat="50.40714" lon="3.50099">
        <ele>47.7225342</ele>
        <time>2011-08-21T07:26:50Z</time>
      </trkpt>
      <trkpt lat="50.40719" lon="3.501">
        <ele>48.2033691</ele>
        <time>2011-08-21T07:26:53Z</time>
      </trkpt>
      <trkpt lat="50.40721" lon="3.50094">
        <ele>48.2033691</ele>
        <time>2011-08-21T07:26:56Z</time>
      </trkpt>
      <trkpt lat="50.40718" lon="3.50085">
        <ele>49.1645508</ele>
        <time>2011-08-21T07:27:00Z</time>
      </trkpt>
      <trkpt lat="50.40715" lon="3.50064">
        <ele>50.1259766</ele>
        <time>2011-08-21T07:27:08Z</time>
      </trkpt>
      <trkpt lat="50.40713" lon="3.50045">
        <ele>52.048584</ele>
        <time>2011-08-21T07:27:15Z</time>
      </trkpt>
      <trkpt lat="50.40714" lon="3.50028">
        <ele>53.4904785</ele>
        <time>2011-08-21T07:27:22Z</time>
      </trkpt>
      <trkpt lat="50.40715" lon="3.50019">
        <ele>53.9711914</ele>
        <time>2011-08-21T07:27:26Z</time>
      </trkpt>
      <trkpt lat="50.40715" lon="3.50002">
        <ele>55.4130859</ele>
        <time>2011-08-21T07:27:33Z</time>
      </trkpt>
      <trkpt lat="50.4072" lon="3.49995">
        <ele>56.8551025</ele>
        <time>2011-08-21T07:27:38Z</time>
      </trkpt>
      <trkpt lat="50.40724" lon="3.5">
        <ele>57.8165283</ele>
        <time>2011-08-21T07:27:41Z</time>
      </trkpt>
      <trkpt lat="50.4073" lon="3.50013">
        <ele>60.2197266</ele>
        <time>2011-08-21T07:27:48Z</time>
      </trkpt>
      <trkpt lat="50.40732" lon="3.5003">
        <ele>61.6617432</ele>
        <time>2011-08-21T07:27:55Z</time>
      </trkpt>
      <trkpt lat="50.40739" lon="3.50044">
        <ele>63.1036377</ele>
        <time>2011-08-21T07:28:02Z</time>
      </trkpt>
      <trkpt lat="50.40749" lon="3.50056">
        <ele>65.5070801</ele>
        <time>2011-08-21T07:28:09Z</time>
      </trkpt>
      <trkpt lat="50.40754" lon="3.50063">
        <ele>67.9102783</ele>
        <time>2011-08-21T07:28:13Z</time>
      </trkpt>
      <trkpt lat="50.40765" lon="3.50075">
        <ele>71.2749023</ele>
        <time>2011-08-21T07:28:21Z</time>
      </trkpt>
      <trkpt lat="50.40772" lon="3.50081">
        <ele>73.1976318</ele>
        <time>2011-08-21T07:28:26Z</time>
      </trkpt>
      <trkpt lat="50.40779" lon="3.50085">
        <ele>74.6395264</ele>
        <time>2011-08-21T07:28:30Z</time>
      </trkpt>
      <trkpt lat="50.40781" lon="3.50077">
        <ele>75.6008301</ele>
        <time>2011-08-21T07:28:35Z</time>
      </trkpt>
      <trkpt lat="50.40777" lon="3.5006">
        <ele>79.9266357</ele>
        <time>2011-08-21T07:28:43Z</time>
      </trkpt>
      <trkpt lat="50.40776" lon="3.50057">
        <ele>80.4074707</ele>
        <time>2011-08-21T07:28:45Z</time>
      </trkpt>
      <trkpt lat="50.40775" lon="3.50049">
        <ele>82.810791</ele>
        <time>2011-08-21T07:28:49Z</time>
      </trkpt>
      <trkpt lat="50.40771" lon="3.5003">
        <ele>86.175293</ele>
        <time>2011-08-21T07:28:59Z</time>
      </trkpt>
      <trkpt lat="50.40768" lon="3.50016">
        <ele>87.6171875</ele>
        <time>2011-08-21T07:29:06Z</time>
      </trkpt>
      <trkpt lat="50.40766" lon="3.50001">
        <ele>88.0980225</ele>
        <time>2011-08-21T07:29:13Z</time>
      </trkpt>
      <trkpt lat="50.40765" lon="3.49999">
        <ele>88.0980225</ele>
        <time>2011-08-21T07:29:14Z</time>
      </trkpt>
      <trkpt lat="50.4077" lon="3.49995">
        <ele>88.0980225</ele>
        <time>2011-08-21T07:29:19Z</time>
      </trkpt>
      <trkpt lat="50.40774" lon="3.50002">
        <ele>89.0593262</ele>
        <time>2011-08-21T07:29:23Z</time>
      </trkpt>
      <trkpt lat="50.4078" lon="3.50013">
        <ele>90.9819336</ele>
        <time>2011-08-21T07:29:30Z</time>
      </trkpt>
      <trkpt lat="50.40789" lon="3.50022">
        <ele>94.3465576</ele>
        <time>2011-08-21T07:29:37Z</time>
      </trkpt>
      <trkpt lat="50.408" lon="3.50028">
        <ele>97.2304688</ele>
        <time>2011-08-21T07:29:45Z</time>
      </trkpt>
      <trkpt lat="50.40809" lon="3.50027">
        <ele>98.6724854</ele>
        <time>2011-08-21T07:29:51Z</time>
      </trkpt>
      <trkpt lat="50.40818" lon="3.50023">
        <ele>100.114502</ele>
        <time>2011-08-21T07:29:58Z</time>
      </trkpt>
      <trkpt lat="50.40818" lon="3.50021">
        <ele>100.114502</ele>
        <time>2011-08-21T07:30:01Z</time>
      </trkpt>
      <trkpt lat="50.40818" lon="3.50021">
        <ele>88.5787354</ele>
        <time>2011-08-21T07:36:26Z</time>
      </trkpt>
      <trkpt lat="50.40819" lon="3.50017">
        <ele>88.5787354</ele>
        <time>2011-08-21T07:36:27Z</time>
      </trkpt>
      <trkpt lat="50.40822" lon="3.50008">
        <ele>87.6171875</ele>
        <time>2011-08-21T07:36:28Z</time>
      </trkpt>
      <trkpt lat="50.40831" lon="3.49994">
        <ele>86.175293</ele>
        <time>2011-08-21T07:36:31Z</time>
      </trkpt>
      <trkpt lat="50.40833" lon="3.49988">
        <ele>85.2139893</ele>
        <time>2011-08-21T07:36:32Z</time>
      </trkpt>
      <trkpt lat="50.4084" lon="3.49982">
        <ele>85.6945801</ele>
        <time>2011-08-21T07:36:35Z</time>
      </trkpt>
      <trkpt lat="50.40842" lon="3.49994">
        <ele>84.2526855</ele>
        <time>2011-08-21T07:36:38Z</time>
      </trkpt>
      <trkpt lat="50.40841" lon="3.50012">
        <ele>82.3300781</ele>
        <time>2011-08-21T07:36:41Z</time>
      </trkpt>
      <trkpt lat="50.40842" lon="3.50032">
        <ele>79.9266357</ele>
        <time>2011-08-21T07:36:44Z</time>
      </trkpt>
      <trkpt lat="50.40848" lon="3.50034">
        <ele>76.0814209</ele>
        <time>2011-08-21T07:36:48Z</time>
      </trkpt>
      <trkpt lat="50.40864" lon="3.5002">
        <ele>71.7554932</ele>
        <time>2011-08-21T07:36:53Z</time>
      </trkpt>
      <trkpt lat="50.40882" lon="3.50009">
        <ele>66.9489746</ele>
        <time>2011-08-21T07:36:57Z</time>
      </trkpt>
      <trkpt lat="50.40886" lon="3.50006">
        <ele>65.9876709</ele>
        <time>2011-08-21T07:36:58Z</time>
      </trkpt>
      <trkpt lat="50.40893" lon="3.5">
        <ele>63.5843506</ele>
        <time>2011-08-21T07:37:00Z</time>
      </trkpt>
      <trkpt lat="50.40901" lon="3.50004">
        <ele>61.6617432</ele>
        <time>2011-08-21T07:37:04Z</time>
      </trkpt>
      <trkpt lat="50.40908" lon="3.5001">
        <ele>59.7391357</ele>
        <time>2011-08-21T07:37:06Z</time>
      </trkpt>
      <trkpt lat="50.40926" lon="3.50025">
        <ele>55.4130859</ele>
        <time>2011-08-21T07:37:11Z</time>
      </trkpt>
      <trkpt lat="50.40929" lon="3.5003">
        <ele>54.4517822</ele>
        <time>2011-08-21T07:37:14Z</time>
      </trkpt>
      <trkpt lat="50.40932" lon="3.50044">
        <ele>48.68396</ele>
        <time>2011-08-21T07:37:20Z</time>
      </trkpt>
      <trkpt lat="50.40937" lon="3.50065">
        <ele>45.3192139</ele>
        <time>2011-08-21T07:37:24Z</time>
      </trkpt>
      <trkpt lat="50.40939" lon="3.50074">
        <ele>42.4354248</ele>
        <time>2011-08-21T07:37:28Z</time>
      </trkpt>
      <trkpt lat="50.40939" lon="3.50075">
        <ele>43.3966064</ele>
        <time>2011-08-21T07:37:31Z</time>
      </trkpt>
      <trkpt lat="50.40941" lon="3.5008">
        <ele>43.3966064</ele>
        <time>2011-08-21T07:37:37Z</time>
      </trkpt>
      <trkpt lat="50.40947" lon="3.50089">
        <ele>41.9547119</ele>
        <time>2011-08-21T07:37:41Z</time>
      </trkpt>
      <trkpt lat="50.40946" lon="3.50104">
        <ele>40.5128174</ele>
        <time>2011-08-21T07:37:46Z</time>
      </trkpt>
      <trkpt lat="50.40942" lon="3.50114">
        <ele>40.0321045</ele>
        <time>2011-08-21T07:37:49Z</time>
      </trkpt>
      <trkpt lat="50.40943" lon="3.50132">
        <ele>38.5900879</ele>
        <time>2011-08-21T07:37:53Z</time>
      </trkpt>
      <trkpt lat="50.40957" lon="3.50161">
        <ele>37.6286621</ele>
        <time>2011-08-21T07:37:57Z</time>
      </trkpt>
      <trkpt lat="50.40961" lon="3.50196">
        <ele>32.8222656</ele>
        <time>2011-08-21T07:38:01Z</time>
      </trkpt>
      <trkpt lat="50.4096" lon="3.50211">
        <ele>31.8607178</ele>
        <time>2011-08-21T07:38:03Z</time>
      </trkpt>
      <trkpt lat="50.40956" lon="3.50242">
        <ele>30.4188232</ele>
        <time>2011-08-21T07:38:07Z</time>
      </trkpt>
      <trkpt lat="50.40954" lon="3.50272">
        <ele>30.4188232</ele>
        <time>2011-08-21T07:38:11Z</time>
      </trkpt>
      <trkpt lat="50.4095" lon="3.50301">
        <ele>30.8995361</ele>
        <time>2011-08-21T07:38:16Z</time>
      </trkpt>
      <trkpt lat="50.40948" lon="3.50312">
        <ele>29.9381104</ele>
        <time>2011-08-21T07:38:18Z</time>
      </trkpt>
      <trkpt lat="50.40948" lon="3.50336">
        <ele>29.4575195</ele>
        <time>2011-08-21T07:38:22Z</time>
      </trkpt>
      <trkpt lat="50.40957" lon="3.50344">
        <ele>30.4188232</ele>
        <time>2011-08-21T07:38:25Z</time>
      </trkpt>
      <trkpt lat="50.40964" lon="3.50342">
        <ele>30.4188232</ele>
        <time>2011-08-21T07:38:27Z</time>
      </trkpt>
      <trkpt lat="50.4098" lon="3.50329">
        <ele>29.9381104</ele>
        <time>2011-08-21T07:38:33Z</time>
      </trkpt>
      <trkpt lat="50.40998" lon="3.50317">
        <ele>29.4575195</ele>
        <time>2011-08-21T07:38:38Z</time>
      </trkpt>
      <trkpt lat="50.41014" lon="3.50305">
        <ele>29.9381104</ele>
        <time>2011-08-21T07:38:42Z</time>
      </trkpt>
      <trkpt lat="50.41029" lon="3.50311">
        <ele>29.9381104</ele>
        <time>2011-08-21T07:38:46Z</time>
      </trkpt>
      <trkpt lat="50.41035" lon="3.50335">
        <ele>28.4962158</ele>
        <time>2011-08-21T07:38:50Z</time>
      </trkpt>
      <trkpt lat="50.41036" lon="3.50373">
        <ele>25.1317139</ele>
        <time>2011-08-21T07:38:55Z</time>
      </trkpt>
      <trkpt lat="50.41036" lon="3.50389">
        <ele>24.1702881</ele>
        <time>2011-08-21T07:38:57Z</time>
      </trkpt>
      <trkpt lat="50.41037" lon="3.50424">
        <ele>24.1702881</ele>
        <time>2011-08-21T07:39:01Z</time>
      </trkpt>
      <trkpt lat="50.41038" lon="3.50474">
        <ele>23.6895752</ele>
        <time>2011-08-21T07:39:07Z</time>
      </trkpt>
      <trkpt lat="50.41039" lon="3.50518">
        <ele>24.651001</ele>
        <time>2011-08-21T07:39:12Z</time>
      </trkpt>
      <trkpt lat="50.4104" lon="3.50552">
        <ele>25.6123047</ele>
        <time>2011-08-21T07:39:16Z</time>
      </trkpt>
      <trkpt lat="50.4104" lon="3.50576">
        <ele>26.5736084</ele>
        <time>2011-08-21T07:39:19Z</time>
      </trkpt>
      <trkpt lat="50.41047" lon="3.50607">
        <ele>26.5736084</ele>
        <time>2011-08-21T07:39:24Z</time>
      </trkpt>
      <trkpt lat="50.41056" lon="3.50646">
        <ele>27.0543213</ele>
        <time>2011-08-21T07:39:30Z</time>
      </trkpt>
      <trkpt lat="50.41058" lon="3.5066">
        <ele>27.0543213</ele>
        <time>2011-08-21T07:39:32Z</time>
      </trkpt>
      <trkpt lat="50.41062" lon="3.50674">
        <ele>26.5736084</ele>
        <time>2011-08-21T07:39:34Z</time>
      </trkpt>
      <trkpt lat="50.41074" lon="3.50686">
        <ele>25.6123047</ele>
        <time>2011-08-21T07:39:37Z</time>
      </trkpt>
      <trkpt lat="50.4109" lon="3.50717">
        <ele>24.1702881</ele>
        <time>2011-08-21T07:39:42Z</time>
      </trkpt>
      <trkpt lat="50.41096" lon="3.50732">
        <ele>25.1317139</ele>
        <time>2011-08-21T07:39:44Z</time>
      </trkpt>
      <trkpt lat="50.41121" lon="3.5077">
        <ele>27.0543213</ele>
        <time>2011-08-21T07:39:50Z</time>
      </trkpt>
      <trkpt lat="50.41144" lon="3.50798">
        <ele>25.6123047</ele>
        <time>2011-08-21T07:39:55Z</time>
      </trkpt>
      <trkpt lat="50.41152" lon="3.50809">
        <ele>26.0928955</ele>
        <time>2011-08-21T07:39:57Z</time>
      </trkpt>
      <trkpt lat="50.41171" lon="3.5083">
        <ele>25.6123047</ele>
        <time>2011-08-21T07:40:01Z</time>
      </trkpt>
      <trkpt lat="50.4119" lon="3.50847">
        <ele>23.6895752</ele>
        <time>2011-08-21T07:40:05Z</time>
      </trkpt>
      <trkpt lat="50.41206" lon="3.50866">
        <ele>24.651001</ele>
        <time>2011-08-21T07:40:09Z</time>
      </trkpt>
      <trkpt lat="50.41221" lon="3.50879">
        <ele>26.0928955</ele>
        <time>2011-08-21T07:40:12Z</time>
      </trkpt>
      <trkpt lat="50.41231" lon="3.50887">
        <ele>27.0543213</ele>
        <time>2011-08-21T07:40:14Z</time>
      </trkpt>
      <trkpt lat="50.41254" lon="3.5091">
        <ele>26.0928955</ele>
        <time>2011-08-21T07:40:19Z</time>
      </trkpt>
      <trkpt lat="50.41259" lon="3.50913">
        <ele>25.6123047</ele>
        <time>2011-08-21T07:40:20Z</time>
      </trkpt>
      <trkpt lat="50.41274" lon="3.50923">
        <ele>25.6123047</ele>
        <time>2011-08-21T07:40:23Z</time>
      </trkpt>
      <trkpt lat="50.41289" lon="3.50948">
        <ele>28.0155029</ele>
        <time>2011-08-21T07:40:27Z</time>
      </trkpt>
      <trkpt lat="50.41319" lon="3.50975">
        <ele>33.3028564</ele>
        <time>2011-08-21T07:40:33Z</time>
      </trkpt>
      <trkpt lat="50.41329" lon="3.50984">
        <ele>33.7834473</ele>
        <time>2011-08-21T07:40:35Z</time>
      </trkpt>
      <trkpt lat="50.41364" lon="3.5102">
        <ele>35.2254639</ele>
        <time>2011-08-21T07:40:42Z</time>
      </trkpt>
      <trkpt lat="50.41406" lon="3.51056">
        <ele>32.3415527</ele>
        <time>2011-08-21T07:40:50Z</time>
      </trkpt>
      <trkpt lat="50.41434" lon="3.5108">
        <ele>33.3028564</ele>
        <time>2011-08-21T07:40:56Z</time>
      </trkpt>
      <trkpt lat="50.41447" lon="3.5109">
        <ele>32.3415527</ele>
        <time>2011-08-21T07:40:59Z</time>
      </trkpt>
      <trkpt lat="50.41478" lon="3.51124">
        <ele>31.8607178</ele>
        <time>2011-08-21T07:41:06Z</time>
      </trkpt>
      <trkpt lat="50.41522" lon="3.51169">
        <ele>30.8995361</ele>
        <time>2011-08-21T07:41:15Z</time>
      </trkpt>
      <trkpt lat="50.41558" lon="3.51207">
        <ele>31.380127</ele>
        <time>2011-08-21T07:41:22Z</time>
      </trkpt>
      <trkpt lat="50.41602" lon="3.51257">
        <ele>30.4188232</ele>
        <time>2011-08-21T07:41:31Z</time>
      </trkpt>
      <trkpt lat="50.41637" lon="3.51307">
        <ele>28.0155029</ele>
        <time>2011-08-21T07:41:39Z</time>
      </trkpt>
      <trkpt lat="50.41665" lon="3.51369">
        <ele>28.0155029</ele>
        <time>2011-08-21T07:41:47Z</time>
      </trkpt>
      <trkpt lat="50.41696" lon="3.5145">
        <ele>28.0155029</ele>
        <time>2011-08-21T07:41:57Z</time>
      </trkpt>
      <trkpt lat="50.41698" lon="3.51459">
        <ele>28.0155029</ele>
        <time>2011-08-21T07:41:58Z</time>
      </trkpt>
      <trkpt lat="50.41703" lon="3.51495">
        <ele>29.4575195</ele>
        <time>2011-08-21T07:42:02Z</time>
      </trkpt>
      <trkpt lat="50.41704" lon="3.51517">
        <ele>29.9381104</ele>
        <time>2011-08-21T07:42:05Z</time>
      </trkpt>
      <trkpt lat="50.41704" lon="3.51533">
        <ele>31.380127</ele>
        <time>2011-08-21T07:42:08Z</time>
      </trkpt>
      <trkpt lat="50.41702" lon="3.51554">
        <ele>32.8222656</ele>
        <time>2011-08-21T07:42:13Z</time>
      </trkpt>
      <trkpt lat="50.41696" lon="3.51577">
        <ele>32.8222656</ele>
        <time>2011-08-21T07:42:19Z</time>
      </trkpt>
      <trkpt lat="50.41691" lon="3.51603">
        <ele>35.2254639</ele>
        <time>2011-08-21T07:42:25Z</time>
      </trkpt>
      <trkpt lat="50.41684" lon="3.51627">
        <ele>36.6674805</ele>
        <time>2011-08-21T07:42:31Z</time>
      </trkpt>
      <trkpt lat="50.41678" lon="3.51651">
        <ele>39.5512695</ele>
        <time>2011-08-21T07:42:37Z</time>
      </trkpt>
      <trkpt lat="50.41674" lon="3.51677">
        <ele>41.473999</ele>
        <time>2011-08-21T07:42:44Z</time>
      </trkpt>
      <trkpt lat="50.41669" lon="3.51689">
        <ele>42.9160156</ele>
        <time>2011-08-21T07:42:49Z</time>
      </trkpt>
      <trkpt lat="50.4166" lon="3.51692">
        <ele>42.4354248</ele>
        <time>2011-08-21T07:42:54Z</time>
      </trkpt>
      <trkpt lat="50.4165" lon="3.5169">
        <ele>42.4354248</ele>
        <time>2011-08-21T07:43:00Z</time>
      </trkpt>
      <trkpt lat="50.4164" lon="3.51688">
        <ele>43.8773193</ele>
        <time>2011-08-21T07:43:05Z</time>
      </trkpt>
      <trkpt lat="50.41631" lon="3.51688">
        <ele>44.3580322</ele>
        <time>2011-08-21T07:43:10Z</time>
      </trkpt>
      <trkpt lat="50.41623" lon="3.51691">
        <ele>45.3192139</ele>
        <time>2011-08-21T07:43:16Z</time>
      </trkpt>
      <trkpt lat="50.41615" lon="3.51691">
        <ele>44.838623</ele>
        <time>2011-08-21T07:43:21Z</time>
      </trkpt>
      <trkpt lat="50.41607" lon="3.51692">
        <ele>43.8773193</ele>
        <time>2011-08-21T07:43:25Z</time>
      </trkpt>
      <trkpt lat="50.41603" lon="3.51696">
        <ele>43.3966064</ele>
        <time>2011-08-21T07:43:27Z</time>
      </trkpt>
      <trkpt lat="50.41601" lon="3.51709">
        <ele>42.9160156</ele>
        <time>2011-08-21T07:43:30Z</time>
      </trkpt>
      <trkpt lat="50.416" lon="3.51738">
        <ele>43.8773193</ele>
        <time>2011-08-21T07:43:36Z</time>
      </trkpt>
      <trkpt lat="50.41599" lon="3.51771">
        <ele>44.838623</ele>
        <time>2011-08-21T07:43:42Z</time>
      </trkpt>
      <trkpt lat="50.41599" lon="3.51783">
        <ele>44.838623</ele>
        <time>2011-08-21T07:43:44Z</time>
      </trkpt>
      <trkpt lat="50.41597" lon="3.51826">
        <ele>45.3192139</ele>
        <time>2011-08-21T07:43:51Z</time>
      </trkpt>
      <trkpt lat="50.41594" lon="3.51872">
        <ele>44.3580322</ele>
        <time>2011-08-21T07:43:58Z</time>
      </trkpt>
      <trkpt lat="50.41592" lon="3.51927">
        <ele>44.838623</ele>
        <time>2011-08-21T07:44:06Z</time>
      </trkpt>
      <trkpt lat="50.41589" lon="3.5199">
        <ele>41.473999</ele>
        <time>2011-08-21T07:44:15Z</time>
      </trkpt>
      <trkpt lat="50.41585" lon="3.52059">
        <ele>40.0321045</ele>
        <time>2011-08-21T07:44:23Z</time>
      </trkpt>
      <trkpt lat="50.4158" lon="3.52139">
        <ele>41.9547119</ele>
        <time>2011-08-21T07:44:31Z</time>
      </trkpt>
      <trkpt lat="50.41568" lon="3.52226">
        <ele>40.5128174</ele>
        <time>2011-08-21T07:44:40Z</time>
      </trkpt>
      <trkpt lat="50.41557" lon="3.52292">
        <ele>38.5900879</ele>
        <time>2011-08-21T07:44:47Z</time>
      </trkpt>
      <trkpt lat="50.41542" lon="3.52379">
        <ele>38.5900879</ele>
        <time>2011-08-21T07:44:56Z</time>
      </trkpt>
      <trkpt lat="50.41534" lon="3.52436">
        <ele>37.6286621</ele>
        <time>2011-08-21T07:45:02Z</time>
      </trkpt>
      <trkpt lat="50.41535" lon="3.52463">
        <ele>36.6674805</ele>
        <time>2011-08-21T07:45:05Z</time>
      </trkpt>
      <trkpt lat="50.41538" lon="3.52478">
        <ele>35.7060547</ele>
        <time>2011-08-21T07:45:07Z</time>
      </trkpt>
      <trkpt lat="50.41537" lon="3.52493">
        <ele>33.7834473</ele>
        <time>2011-08-21T07:45:10Z</time>
      </trkpt>
      <trkpt lat="50.41518" lon="3.52503">
        <ele>31.8607178</ele>
        <time>2011-08-21T07:45:14Z</time>
      </trkpt>
      <trkpt lat="50.41513" lon="3.52506">
        <ele>31.380127</ele>
        <time>2011-08-21T07:45:15Z</time>
      </trkpt>
      <trkpt lat="50.41495" lon="3.52529">
        <ele>28.9769287</ele>
        <time>2011-08-21T07:45:20Z</time>
      </trkpt>
      <trkpt lat="50.41482" lon="3.52548">
        <ele>28.9769287</ele>
        <time>2011-08-21T07:45:25Z</time>
      </trkpt>
      <trkpt lat="50.41469" lon="3.52574">
        <ele>33.3028564</ele>
        <time>2011-08-21T07:45:31Z</time>
      </trkpt>
      <trkpt lat="50.41465" lon="3.52581">
        <ele>33.7834473</ele>
        <time>2011-08-21T07:45:33Z</time>
      </trkpt>
      <trkpt lat="50.4145" lon="3.52608">
        <ele>34.744873</ele>
        <time>2011-08-21T07:45:39Z</time>
      </trkpt>
      <trkpt lat="50.41434" lon="3.52628">
        <ele>36.6674805</ele>
        <time>2011-08-21T07:45:44Z</time>
      </trkpt>
      <trkpt lat="50.41425" lon="3.52651">
        <ele>37.1480713</ele>
        <time>2011-08-21T07:45:49Z</time>
      </trkpt>
      <trkpt lat="50.41415" lon="3.52666">
        <ele>36.6674805</ele>
        <time>2011-08-21T07:45:53Z</time>
      </trkpt>
      <trkpt lat="50.41404" lon="3.52686">
        <ele>35.7060547</ele>
        <time>2011-08-21T07:45:58Z</time>
      </trkpt>
      <trkpt lat="50.41399" lon="3.52699">
        <ele>35.7060547</ele>
        <time>2011-08-21T07:46:02Z</time>
      </trkpt>
      <trkpt lat="50.41387" lon="3.52693">
        <ele>34.744873</ele>
        <time>2011-08-21T07:46:08Z</time>
      </trkpt>
      <trkpt lat="50.41383" lon="3.52689">
        <ele>34.744873</ele>
        <time>2011-08-21T07:46:10Z</time>
      </trkpt>
      <trkpt lat="50.41366" lon="3.52679">
        <ele>35.2254639</ele>
        <time>2011-08-21T07:46:15Z</time>
      </trkpt>
      <trkpt lat="50.41358" lon="3.52679">
        <ele>36.1867676</ele>
        <time>2011-08-21T07:46:17Z</time>
      </trkpt>
      <trkpt lat="50.41331" lon="3.52686">
        <ele>37.1480713</ele>
        <time>2011-08-21T07:46:23Z</time>
      </trkpt>
      <trkpt lat="50.41312" lon="3.52687">
        <ele>37.1480713</ele>
        <time>2011-08-21T07:46:27Z</time>
      </trkpt>
      <trkpt lat="50.41282" lon="3.52679">
        <ele>37.1480713</ele>
        <time>2011-08-21T07:46:34Z</time>
      </trkpt>
      <trkpt lat="50.41268" lon="3.52677">
        <ele>37.1480713</ele>
        <time>2011-08-21T07:46:37Z</time>
      </trkpt>
      <trkpt lat="50.41254" lon="3.52662">
        <ele>37.1480713</ele>
        <time>2011-08-21T07:46:42Z</time>
      </trkpt>
      <trkpt lat="50.41252" lon="3.5264">
        <ele>39.0706787</ele>
        <time>2011-08-21T07:46:47Z</time>
      </trkpt>
      <trkpt lat="50.41252" lon="3.52613">
        <ele>41.473999</ele>
        <time>2011-08-21T07:46:54Z</time>
      </trkpt>
      <trkpt lat="50.41246" lon="3.52591">
        <ele>44.3580322</ele>
        <time>2011-08-21T07:47:01Z</time>
      </trkpt>
      <trkpt lat="50.4124" lon="3.52578">
        <ele>46.2806396</ele>
        <time>2011-08-21T07:47:06Z</time>
      </trkpt>
      <trkpt lat="50.41234" lon="3.52566">
        <ele>48.2033691</ele>
        <time>2011-08-21T07:47:11Z</time>
      </trkpt>
      <trkpt lat="50.41227" lon="3.52554">
        <ele>51.0871582</ele>
        <time>2011-08-21T07:47:16Z</time>
      </trkpt>
      <trkpt lat="50.41215" lon="3.52539">
        <ele>54.932373</ele>
        <time>2011-08-21T07:47:23Z</time>
      </trkpt>
      <trkpt lat="50.41205" lon="3.52526">
        <ele>56.8551025</ele>
        <time>2011-08-21T07:47:29Z</time>
      </trkpt>
      <trkpt lat="50.41196" lon="3.52516">
        <ele>59.7391357</ele>
        <time>2011-08-21T07:47:35Z</time>
      </trkpt>
      <trkpt lat="50.41184" lon="3.52506">
        <ele>60.7003174</ele>
        <time>2011-08-21T07:47:42Z</time>
      </trkpt>
      <trkpt lat="50.41174" lon="3.52499">
        <ele>61.6617432</ele>
        <time>2011-08-21T07:47:48Z</time>
      </trkpt>
      <trkpt lat="50.41167" lon="3.52493">
        <ele>62.142334</ele>
        <time>2011-08-21T07:47:53Z</time>
      </trkpt>
      <trkpt lat="50.41162" lon="3.52485">
        <ele>63.1036377</ele>
        <time>2011-08-21T07:47:58Z</time>
      </trkpt>
      <trkpt lat="50.41156" lon="3.52476">
        <ele>62.6229248</ele>
        <time>2011-08-21T07:48:03Z</time>
      </trkpt>
      <trkpt lat="50.41151" lon="3.52461">
        <ele>62.142334</ele>
        <time>2011-08-21T07:48:10Z</time>
      </trkpt>
      <trkpt lat="50.4115" lon="3.52443">
        <ele>62.142334</ele>
        <time>2011-08-21T07:48:17Z</time>
      </trkpt>
      <trkpt lat="50.41151" lon="3.52421">
        <ele>64.5456543</ele>
        <time>2011-08-21T07:48:25Z</time>
      </trkpt>
      <trkpt lat="50.41153" lon="3.52399">
        <ele>64.5456543</ele>
        <time>2011-08-21T07:48:32Z</time>
      </trkpt>
      <trkpt lat="50.4116" lon="3.52379">
        <ele>65.9876709</ele>
        <time>2011-08-21T07:48:39Z</time>
      </trkpt>
      <trkpt lat="50.41172" lon="3.5236">
        <ele>68.3908691</ele>
        <time>2011-08-21T07:48:47Z</time>
      </trkpt>
      <trkpt lat="50.4118" lon="3.52346">
        <ele>70.3134766</ele>
        <time>2011-08-21T07:48:53Z</time>
      </trkpt>
      <trkpt lat="50.41187" lon="3.52332">
        <ele>71.2749023</ele>
        <time>2011-08-21T07:48:59Z</time>
      </trkpt>
      <trkpt lat="50.41193" lon="3.52321">
        <ele>71.2749023</ele>
        <time>2011-08-21T07:49:04Z</time>
      </trkpt>
      <trkpt lat="50.412" lon="3.52311">
        <ele>71.7554932</ele>
        <time>2011-08-21T07:49:09Z</time>
      </trkpt>
      <trkpt lat="50.41213" lon="3.52299">
        <ele>72.7169189</ele>
        <time>2011-08-21T07:49:17Z</time>
      </trkpt>
      <trkpt lat="50.41225" lon="3.52285">
        <ele>74.6395264</ele>
        <time>2011-08-21T07:49:24Z</time>
      </trkpt>
      <trkpt lat="50.41237" lon="3.52265">
        <ele>76.0814209</ele>
        <time>2011-08-21T07:49:32Z</time>
      </trkpt>
      <trkpt lat="50.41247" lon="3.52242">
        <ele>77.5234375</ele>
        <time>2011-08-21T07:49:40Z</time>
      </trkpt>
      <trkpt lat="50.41258" lon="3.52218">
        <ele>80.8881836</ele>
        <time>2011-08-21T07:49:48Z</time>
      </trkpt>
      <trkpt lat="50.41272" lon="3.52199">
        <ele>81.3687744</ele>
        <time>2011-08-21T07:49:55Z</time>
      </trkpt>
      <trkpt lat="50.41285" lon="3.52196">
        <ele>82.3300781</ele>
        <time>2011-08-21T07:50:01Z</time>
      </trkpt>
      <trkpt lat="50.41287" lon="3.52199">
        <ele>81.8493652</ele>
        <time>2011-08-21T07:50:05Z</time>
      </trkpt>
      <trkpt lat="50.4128" lon="3.5221">
        <ele>83.2913818</ele>
        <time>2011-08-21T07:56:39Z</time>
      </trkpt>
      <trkpt lat="50.4128" lon="3.52213">
        <ele>82.3300781</ele>
        <time>2011-08-21T07:56:40Z</time>
      </trkpt>
      <trkpt lat="50.41276" lon="3.52222">
        <ele>80.4074707</ele>
        <time>2011-08-21T07:56:42Z</time>
      </trkpt>
      <trkpt lat="50.41272" lon="3.52241">
        <ele>77.0428467</ele>
        <time>2011-08-21T07:56:48Z</time>
      </trkpt>
      <trkpt lat="50.41271" lon="3.52244">
        <ele>76.5621338</ele>
        <time>2011-08-21T07:56:49Z</time>
      </trkpt>
      <trkpt lat="50.41267" lon="3.5227">
        <ele>76.0814209</ele>
        <time>2011-08-21T07:56:53Z</time>
      </trkpt>
      <trkpt lat="50.41264" lon="3.52299">
        <ele>76.0814209</ele>
        <time>2011-08-21T07:56:57Z</time>
      </trkpt>
      <trkpt lat="50.41262" lon="3.52309">
        <ele>76.0814209</ele>
        <time>2011-08-21T07:56:58Z</time>
      </trkpt>
      <trkpt lat="50.41251" lon="3.5235">
        <ele>74.6395264</ele>
        <time>2011-08-21T07:57:02Z</time>
      </trkpt>
      <trkpt lat="50.4125" lon="3.52397">
        <ele>72.7169189</ele>
        <time>2011-08-21T07:57:07Z</time>
      </trkpt>
      <trkpt lat="50.41253" lon="3.52419">
        <ele>70.7941895</ele>
        <time>2011-08-21T07:57:10Z</time>
      </trkpt>
      <trkpt lat="50.41262" lon="3.52432">
        <ele>69.3522949</ele>
        <time>2011-08-21T07:57:13Z</time>
      </trkpt>
      <trkpt lat="50.41277" lon="3.52442">
        <ele>68.871582</ele>
        <time>2011-08-21T07:57:18Z</time>
      </trkpt>
      <trkpt lat="50.41289" lon="3.52436">
        <ele>69.8328857</ele>
        <time>2011-08-21T07:57:24Z</time>
      </trkpt>
      <trkpt lat="50.41291" lon="3.52433">
        <ele>69.8328857</ele>
        <time>2011-08-21T07:57:25Z</time>
      </trkpt>
      <trkpt lat="50.41305" lon="3.52433">
        <ele>69.3522949</ele>
        <time>2011-08-21T07:57:29Z</time>
      </trkpt>
      <trkpt lat="50.41321" lon="3.52448">
        <ele>69.8328857</ele>
        <time>2011-08-21T07:57:34Z</time>
      </trkpt>
      <trkpt lat="50.41329" lon="3.52456">
        <ele>69.8328857</ele>
        <time>2011-08-21T07:57:37Z</time>
      </trkpt>
      <trkpt lat="50.41332" lon="3.52463">
        <ele>68.871582</ele>
        <time>2011-08-21T07:57:40Z</time>
      </trkpt>
      <trkpt lat="50.41328" lon="3.52473">
        <ele>69.3522949</ele>
        <time>2011-08-21T07:57:43Z</time>
      </trkpt>
      <trkpt lat="50.41319" lon="3.52501">
        <ele>66.9489746</ele>
        <time>2011-08-21T07:57:49Z</time>
      </trkpt>
      <trkpt lat="50.41318" lon="3.52517">
        <ele>63.1036377</ele>
        <time>2011-08-21T07:57:53Z</time>
      </trkpt>
      <trkpt lat="50.41329" lon="3.52533">
        <ele>59.7391357</ele>
        <time>2011-08-21T07:57:56Z</time>
      </trkpt>
      <trkpt lat="50.41339" lon="3.52543">
        <ele>57.3358154</ele>
        <time>2011-08-21T07:57:58Z</time>
      </trkpt>
      <trkpt lat="50.41353" lon="3.52552">
        <ele>55.8937988</ele>
        <time>2011-08-21T07:58:01Z</time>
      </trkpt>
      <trkpt lat="50.41358" lon="3.52556">
        <ele>56.3745117</ele>
        <time>2011-08-21T07:58:02Z</time>
      </trkpt>
      <trkpt lat="50.41365" lon="3.52563">
        <ele>55.4130859</ele>
        <time>2011-08-21T07:58:04Z</time>
      </trkpt>
      <trkpt lat="50.41371" lon="3.52569">
        <ele>54.4517822</ele>
        <time>2011-08-21T07:58:06Z</time>
      </trkpt>
      <trkpt lat="50.41377" lon="3.52575">
        <ele>53.0097656</ele>
        <time>2011-08-21T07:58:08Z</time>
      </trkpt>
      <trkpt lat="50.41379" lon="3.52591">
        <ele>49.1645508</ele>
        <time>2011-08-21T07:58:12Z</time>
      </trkpt>
      <trkpt lat="50.41374" lon="3.52595">
        <ele>48.2033691</ele>
        <time>2011-08-21T07:58:14Z</time>
      </trkpt>
      <trkpt lat="50.41368" lon="3.52597">
        <ele>47.2418213</ele>
        <time>2011-08-21T07:58:16Z</time>
      </trkpt>
      <trkpt lat="50.41353" lon="3.52615">
        <ele>43.8773193</ele>
        <time>2011-08-21T07:58:20Z</time>
      </trkpt>
      <trkpt lat="50.41333" lon="3.52639">
        <ele>40.5128174</ele>
        <time>2011-08-21T07:58:24Z</time>
      </trkpt>
      <trkpt lat="50.41329" lon="3.52644">
        <ele>40.0321045</ele>
        <time>2011-08-21T07:58:25Z</time>
      </trkpt>
      <trkpt lat="50.41296" lon="3.5265">
        <ele>37.1480713</ele>
        <time>2011-08-21T07:58:30Z</time>
      </trkpt>
      <trkpt lat="50.41289" lon="3.52648">
        <ele>37.1480713</ele>
        <time>2011-08-21T07:58:31Z</time>
      </trkpt>
      <trkpt lat="50.41272" lon="3.52645">
        <ele>37.1480713</ele>
        <time>2011-08-21T07:58:34Z</time>
      </trkpt>
      <trkpt lat="50.41256" lon="3.52649">
        <ele>35.7060547</ele>
        <time>2011-08-21T07:58:38Z</time>
      </trkpt>
      <trkpt lat="50.41248" lon="3.52643">
        <ele>36.6674805</ele>
        <time>2011-08-21T07:58:41Z</time>
      </trkpt>
      <trkpt lat="50.41245" lon="3.52638">
        <ele>38.109375</ele>
        <time>2011-08-21T07:58:45Z</time>
      </trkpt>
      <trkpt lat="50.41246" lon="3.52637">
        <ele>40.5128174</ele>
        <time>2011-08-21T07:58:48Z</time>
      </trkpt>
      <trkpt lat="50.41243" lon="3.5263">
        <ele>40.9934082</ele>
        <time>2011-08-21T07:59:02Z</time>
      </trkpt>
      <trkpt lat="50.41239" lon="3.52625">
        <ele>40.5128174</ele>
        <time>2011-08-21T07:59:04Z</time>
      </trkpt>
      <trkpt lat="50.41229" lon="3.52618">
        <ele>40.5128174</ele>
        <time>2011-08-21T07:59:09Z</time>
      </trkpt>
      <trkpt lat="50.41215" lon="3.52616">
        <ele>39.5512695</ele>
        <time>2011-08-21T07:59:15Z</time>
      </trkpt>
      <trkpt lat="50.41207" lon="3.52614">
        <ele>38.109375</ele>
        <time>2011-08-21T07:59:18Z</time>
      </trkpt>
      <trkpt lat="50.4119" lon="3.52608">
        <ele>34.744873</ele>
        <time>2011-08-21T07:59:24Z</time>
      </trkpt>
      <trkpt lat="50.41171" lon="3.52609">
        <ele>34.2641602</ele>
        <time>2011-08-21T07:59:30Z</time>
      </trkpt>
      <trkpt lat="50.4115" lon="3.5261">
        <ele>34.744873</ele>
        <time>2011-08-21T07:59:35Z</time>
      </trkpt>
      <trkpt lat="50.41131" lon="3.5261">
        <ele>34.744873</ele>
        <time>2011-08-21T07:59:40Z</time>
      </trkpt>
      <trkpt lat="50.41109" lon="3.5261">
        <ele>35.2254639</ele>
        <time>2011-08-21T07:59:45Z</time>
      </trkpt>
      <trkpt lat="50.41097" lon="3.52614">
        <ele>35.7060547</ele>
        <time>2011-08-21T07:59:48Z</time>
      </trkpt>
      <trkpt lat="50.41088" lon="3.52614">
        <ele>36.6674805</ele>
        <time>2011-08-21T07:59:50Z</time>
      </trkpt>
      <trkpt lat="50.41074" lon="3.52615">
        <ele>36.1867676</ele>
        <time>2011-08-21T07:59:53Z</time>
      </trkpt>
      <trkpt lat="50.41062" lon="3.52613">
        <ele>35.7060547</ele>
        <time>2011-08-21T07:59:56Z</time>
      </trkpt>
      <trkpt lat="50.41051" lon="3.52597">
        <ele>35.2254639</ele>
        <time>2011-08-21T08:00:00Z</time>
      </trkpt>
      <trkpt lat="50.41046" lon="3.52577">
        <ele>36.1867676</ele>
        <time>2011-08-21T08:00:03Z</time>
      </trkpt>
      <trkpt lat="50.41045" lon="3.52563">
        <ele>37.1480713</ele>
        <time>2011-08-21T08:00:05Z</time>
      </trkpt>
      <trkpt lat="50.41049" lon="3.52537">
        <ele>40.9934082</ele>
        <time>2011-08-21T08:00:10Z</time>
      </trkpt>
      <trkpt lat="50.41043" lon="3.5253">
        <ele>39.5512695</ele>
        <time>2011-08-21T08:00:13Z</time>
      </trkpt>
      <trkpt lat="50.41037" lon="3.52532">
        <ele>39.5512695</ele>
        <time>2011-08-21T08:00:15Z</time>
      </trkpt>
      <trkpt lat="50.4103" lon="3.52532">
        <ele>39.0706787</ele>
        <time>2011-08-21T08:00:17Z</time>
      </trkpt>
      <trkpt lat="50.41024" lon="3.52512">
        <ele>39.0706787</ele>
        <time>2011-08-21T08:00:21Z</time>
      </trkpt>
      <trkpt lat="50.41023" lon="3.52505">
        <ele>39.0706787</ele>
        <time>2011-08-21T08:00:22Z</time>
      </trkpt>
      <trkpt lat="50.41008" lon="3.52486">
        <ele>37.1480713</ele>
        <time>2011-08-21T08:00:26Z</time>
      </trkpt>
      <trkpt lat="50.40998" lon="3.52472">
        <ele>38.109375</ele>
        <time>2011-08-21T08:00:30Z</time>
      </trkpt>
      <trkpt lat="50.40996" lon="3.52467">
        <ele>38.5900879</ele>
        <time>2011-08-21T08:00:31Z</time>
      </trkpt>
      <trkpt lat="50.40988" lon="3.52439">
        <ele>38.109375</ele>
        <time>2011-08-21T08:00:37Z</time>
      </trkpt>
      <trkpt lat="50.40981" lon="3.52417">
        <ele>39.0706787</ele>
        <time>2011-08-21T08:00:41Z</time>
      </trkpt>
      <trkpt lat="50.40974" lon="3.52397">
        <ele>38.109375</ele>
        <time>2011-08-21T08:00:45Z</time>
      </trkpt>
      <trkpt lat="50.40969" lon="3.52375">
        <ele>40.9934082</ele>
        <time>2011-08-21T08:00:49Z</time>
      </trkpt>
      <trkpt lat="50.40959" lon="3.52354">
        <ele>43.3966064</ele>
        <time>2011-08-21T08:00:53Z</time>
      </trkpt>
      <trkpt lat="50.40955" lon="3.52324">
        <ele>39.5512695</ele>
        <time>2011-08-21T08:00:58Z</time>
      </trkpt>
      <trkpt lat="50.40967" lon="3.52295">
        <ele>37.1480713</ele>
        <time>2011-08-21T08:01:03Z</time>
      </trkpt>
      <trkpt lat="50.4098" lon="3.52255">
        <ele>35.7060547</ele>
        <time>2011-08-21T08:01:09Z</time>
      </trkpt>
      <trkpt lat="50.40985" lon="3.52242">
        <ele>35.7060547</ele>
        <time>2011-08-21T08:01:11Z</time>
      </trkpt>
      <trkpt lat="50.41001" lon="3.52203">
        <ele>35.7060547</ele>
        <time>2011-08-21T08:01:17Z</time>
      </trkpt>
      <trkpt lat="50.41012" lon="3.52175">
        <ele>35.7060547</ele>
        <time>2011-08-21T08:01:21Z</time>
      </trkpt>
      <trkpt lat="50.41028" lon="3.52134">
        <ele>35.2254639</ele>
        <time>2011-08-21T08:01:27Z</time>
      </trkpt>
      <trkpt lat="50.41047" lon="3.52085">
        <ele>35.2254639</ele>
        <time>2011-08-21T08:01:34Z</time>
      </trkpt>
      <trkpt lat="50.41055" lon="3.52064">
        <ele>34.744873</ele>
        <time>2011-08-21T08:01:37Z</time>
      </trkpt>
      <trkpt lat="50.41072" lon="3.52021">
        <ele>34.2641602</ele>
        <time>2011-08-21T08:01:43Z</time>
      </trkpt>
      <trkpt lat="50.41077" lon="3.52006">
        <ele>33.7834473</ele>
        <time>2011-08-21T08:01:45Z</time>
      </trkpt>
      <trkpt lat="50.41086" lon="3.51973">
        <ele>33.7834473</ele>
        <time>2011-08-21T08:01:49Z</time>
      </trkpt>
      <trkpt lat="50.41103" lon="3.5193">
        <ele>33.3028564</ele>
        <time>2011-08-21T08:01:55Z</time>
      </trkpt>
      <trkpt lat="50.41118" lon="3.51882">
        <ele>31.8607178</ele>
        <time>2011-08-21T08:02:01Z</time>
      </trkpt>
      <trkpt lat="50.41124" lon="3.51865">
        <ele>31.380127</ele>
        <time>2011-08-21T08:02:03Z</time>
      </trkpt>
      <trkpt lat="50.41151" lon="3.51806">
        <ele>31.8607178</ele>
        <time>2011-08-21T08:02:10Z</time>
      </trkpt>
      <trkpt lat="50.41173" lon="3.51751">
        <ele>32.8222656</ele>
        <time>2011-08-21T08:02:16Z</time>
      </trkpt>
      <trkpt lat="50.41191" lon="3.51704">
        <ele>33.3028564</ele>
        <time>2011-08-21T08:02:21Z</time>
      </trkpt>
      <trkpt lat="50.41198" lon="3.51686">
        <ele>32.8222656</ele>
        <time>2011-08-21T08:02:23Z</time>
      </trkpt>
      <trkpt lat="50.41199" lon="3.5165">
        <ele>32.8222656</ele>
        <time>2011-08-21T08:02:27Z</time>
      </trkpt>
      <trkpt lat="50.41194" lon="3.51635">
        <ele>33.3028564</ele>
        <time>2011-08-21T08:02:29Z</time>
      </trkpt>
      <trkpt lat="50.41178" lon="3.51599">
        <ele>35.2254639</ele>
        <time>2011-08-21T08:02:34Z</time>
      </trkpt>
      <trkpt lat="50.41171" lon="3.51567">
        <ele>37.6286621</ele>
        <time>2011-08-21T08:02:38Z</time>
      </trkpt>
      <trkpt lat="50.41155" lon="3.51508">
        <ele>43.8773193</ele>
        <time>2011-08-21T08:02:44Z</time>
      </trkpt>
      <trkpt lat="50.41146" lon="3.5148">
        <ele>42.9160156</ele>
        <time>2011-08-21T08:02:46Z</time>
      </trkpt>
      <trkpt lat="50.41123" lon="3.51426">
        <ele>42.9160156</ele>
        <time>2011-08-21T08:02:50Z</time>
      </trkpt>
      <trkpt lat="50.41117" lon="3.51406">
        <ele>43.3966064</ele>
        <time>2011-08-21T08:02:52Z</time>
      </trkpt>
      <trkpt lat="50.4111" lon="3.51382">
        <ele>42.9160156</ele>
        <time>2011-08-21T08:02:54Z</time>
      </trkpt>
      <trkpt lat="50.41093" lon="3.51325">
        <ele>40.5128174</ele>
        <time>2011-08-21T08:02:59Z</time>
      </trkpt>
      <trkpt lat="50.41061" lon="3.5124">
        <ele>37.6286621</ele>
        <time>2011-08-21T08:03:06Z</time>
      </trkpt>
      <trkpt lat="50.41022" lon="3.51132">
        <ele>34.744873</ele>
        <time>2011-08-21T08:03:15Z</time>
      </trkpt>
      <trkpt lat="50.40992" lon="3.51051">
        <ele>30.8995361</ele>
        <time>2011-08-21T08:03:22Z</time>
      </trkpt>
      <trkpt lat="50.40961" lon="3.50972">
        <ele>26.5736084</ele>
        <time>2011-08-21T08:03:29Z</time>
      </trkpt>
      <trkpt lat="50.40932" lon="3.50895">
        <ele>24.651001</ele>
        <time>2011-08-21T08:03:36Z</time>
      </trkpt>
      <trkpt lat="50.40902" lon="3.5081">
        <ele>22.2475586</ele>
        <time>2011-08-21T08:03:44Z</time>
      </trkpt>
      <trkpt lat="50.40887" lon="3.50767">
        <ele>22.7282715</ele>
        <time>2011-08-21T08:03:48Z</time>
      </trkpt>
      <trkpt lat="50.4086" lon="3.50692">
        <ele>24.651001</ele>
        <time>2011-08-21T08:03:55Z</time>
      </trkpt>
      <trkpt lat="50.40836" lon="3.50618">
        <ele>27.5349121</ele>
        <time>2011-08-21T08:04:02Z</time>
      </trkpt>
      <trkpt lat="50.40808" lon="3.50544">
        <ele>27.5349121</ele>
        <time>2011-08-21T08:04:09Z</time>
      </trkpt>
      <trkpt lat="50.40802" lon="3.50503">
        <ele>26.5736084</ele>
        <time>2011-08-21T08:04:13Z</time>
      </trkpt>
      <trkpt lat="50.40794" lon="3.50478">
        <ele>25.1317139</ele>
        <time>2011-08-21T08:04:16Z</time>
      </trkpt>
      <trkpt lat="50.40778" lon="3.50455">
        <ele>24.651001</ele>
        <time>2011-08-21T08:04:20Z</time>
      </trkpt>
      <trkpt lat="50.40764" lon="3.50415">
        <ele>25.1317139</ele>
        <time>2011-08-21T08:04:25Z</time>
      </trkpt>
      <trkpt lat="50.40745" lon="3.50363">
        <ele>25.1317139</ele>
        <time>2011-08-21T08:04:31Z</time>
      </trkpt>
      <trkpt lat="50.40723" lon="3.50297">
        <ele>26.0928955</ele>
        <time>2011-08-21T08:04:38Z</time>
      </trkpt>
      <trkpt lat="50.40706" lon="3.50252">
        <ele>25.6123047</ele>
        <time>2011-08-21T08:04:43Z</time>
      </trkpt>
      <trkpt lat="50.40683" lon="3.50185">
        <ele>25.1317139</ele>
        <time>2011-08-21T08:04:50Z</time>
      </trkpt>
      <trkpt lat="50.40665" lon="3.5014">
        <ele>24.651001</ele>
        <time>2011-08-21T08:04:55Z</time>
      </trkpt>
      <trkpt lat="50.40647" lon="3.50093">
        <ele>23.2089844</ele>
        <time>2011-08-21T08:05:00Z</time>
      </trkpt>
      <trkpt lat="50.40627" lon="3.50039">
        <ele>23.2089844</ele>
        <time>2011-08-21T08:05:06Z</time>
      </trkpt>
      <trkpt lat="50.4061" lon="3.49996">
        <ele>23.6895752</ele>
        <time>2011-08-21T08:05:11Z</time>
      </trkpt>
      <trkpt lat="50.406" lon="3.49971">
        <ele>23.2089844</ele>
        <time>2011-08-21T08:05:14Z</time>
      </trkpt>
      <trkpt lat="50.4059" lon="3.49938">
        <ele>23.6895752</ele>
        <time>2011-08-21T08:05:18Z</time>
      </trkpt>
      <trkpt lat="50.40571" lon="3.49886">
        <ele>24.1702881</ele>
        <time>2011-08-21T08:05:24Z</time>
      </trkpt>
      <trkpt lat="50.40555" lon="3.49838">
        <ele>24.1702881</ele>
        <time>2011-08-21T08:05:29Z</time>
      </trkpt>
      <trkpt lat="50.40546" lon="3.49811">
        <ele>23.6895752</ele>
        <time>2011-08-21T08:05:32Z</time>
      </trkpt>
      <trkpt lat="50.40537" lon="3.49782">
        <ele>23.6895752</ele>
        <time>2011-08-21T08:05:35Z</time>
      </trkpt>
      <trkpt lat="50.40526" lon="3.49755">
        <ele>24.1702881</ele>
        <time>2011-08-21T08:05:38Z</time>
      </trkpt>
      <trkpt lat="50.40505" lon="3.49692">
        <ele>24.651001</ele>
        <time>2011-08-21T08:05:45Z</time>
      </trkpt>
      <trkpt lat="50.40487" lon="3.49639">
        <ele>24.651001</ele>
        <time>2011-08-21T08:05:51Z</time>
      </trkpt>
      <trkpt lat="50.40473" lon="3.49597">
        <ele>23.6895752</ele>
        <time>2011-08-21T08:05:56Z</time>
      </trkpt>
      <trkpt lat="50.40449" lon="3.49534">
        <ele>21.7669678</ele>
        <time>2011-08-21T08:06:03Z</time>
      </trkpt>
      <trkpt lat="50.40428" lon="3.49482">
        <ele>19.8443604</ele>
        <time>2011-08-21T08:06:09Z</time>
      </trkpt>
      <trkpt lat="50.40408" lon="3.49429">
        <ele>19.3637695</ele>
        <time>2011-08-21T08:06:15Z</time>
      </trkpt>
      <trkpt lat="50.40383" lon="3.4936">
        <ele>18.8830566</ele>
        <time>2011-08-21T08:06:23Z</time>
      </trkpt>
      <trkpt lat="50.40358" lon="3.49291">
        <ele>18.4023438</ele>
        <time>2011-08-21T08:06:31Z</time>
      </trkpt>
      <trkpt lat="50.40335" lon="3.49228">
        <ele>17.9217529</ele>
        <time>2011-08-21T08:06:38Z</time>
      </trkpt>
      <trkpt lat="50.4032" lon="3.49185">
        <ele>18.4023438</ele>
        <time>2011-08-21T08:06:43Z</time>
      </trkpt>
      <trkpt lat="50.40297" lon="3.49114">
        <ele>19.3637695</ele>
        <time>2011-08-21T08:06:51Z</time>
      </trkpt>
      <trkpt lat="50.4028" lon="3.4906">
        <ele>24.651001</ele>
        <time>2011-08-21T08:06:57Z</time>
      </trkpt>
      <trkpt lat="50.40256" lon="3.48989">
        <ele>25.1317139</ele>
        <time>2011-08-21T08:07:04Z</time>
      </trkpt>
      <trkpt lat="50.40232" lon="3.48926">
        <ele>26.5736084</ele>
        <time>2011-08-21T08:07:11Z</time>
      </trkpt>
      <trkpt lat="50.40222" lon="3.48901">
        <ele>28.0155029</ele>
        <time>2011-08-21T08:07:14Z</time>
      </trkpt>
      <trkpt lat="50.40202" lon="3.48847">
        <ele>32.3415527</ele>
        <time>2011-08-21T08:07:20Z</time>
      </trkpt>
      <trkpt lat="50.40192" lon="3.48827">
        <ele>31.8607178</ele>
        <time>2011-08-21T08:07:22Z</time>
      </trkpt>
      <trkpt lat="50.40182" lon="3.48802">
        <ele>30.4188232</ele>
        <time>2011-08-21T08:07:25Z</time>
      </trkpt>
      <trkpt lat="50.40177" lon="3.48775">
        <ele>29.4575195</ele>
        <time>2011-08-21T08:07:29Z</time>
      </trkpt>
      <trkpt lat="50.40172" lon="3.48765">
        <ele>28.4962158</ele>
        <time>2011-08-21T08:07:31Z</time>
      </trkpt>
      <trkpt lat="50.40172" lon="3.48742">
        <ele>26.5736084</ele>
        <time>2011-08-21T08:07:36Z</time>
      </trkpt>
      <trkpt lat="50.40167" lon="3.4872">
        <ele>25.1317139</ele>
        <time>2011-08-21T08:07:40Z</time>
      </trkpt>
      <trkpt lat="50.4016" lon="3.48715">
        <ele>24.651001</ele>
        <time>2011-08-21T08:07:42Z</time>
      </trkpt>
      <trkpt lat="50.40151" lon="3.48709">
        <ele>24.1702881</ele>
        <time>2011-08-21T08:07:45Z</time>
      </trkpt>
      <trkpt lat="50.40143" lon="3.48683">
        <ele>23.2089844</ele>
        <time>2011-08-21T08:07:50Z</time>
      </trkpt>
      <trkpt lat="50.4015" lon="3.48672">
        <ele>22.7282715</ele>
        <time>2011-08-21T08:07:53Z</time>
      </trkpt>
      <trkpt lat="50.40177" lon="3.48653">
        <ele>21.7669678</ele>
        <time>2011-08-21T08:08:00Z</time>
      </trkpt>
      <trkpt lat="50.402" lon="3.48641">
        <ele>21.7669678</ele>
        <time>2011-08-21T08:08:06Z</time>
      </trkpt>
      <trkpt lat="50.40211" lon="3.48632">
        <ele>21.7669678</ele>
        <time>2011-08-21T08:08:09Z</time>
      </trkpt>
      <trkpt lat="50.40225" lon="3.48603">
        <ele>21.7669678</ele>
        <time>2011-08-21T08:08:14Z</time>
      </trkpt>
      <trkpt lat="50.40232" lon="3.48555">
        <ele>21.286377</ele>
        <time>2011-08-21T08:08:20Z</time>
      </trkpt>
      <trkpt lat="50.40226" lon="3.48502">
        <ele>20.8056641</ele>
        <time>2011-08-21T08:08:26Z</time>
      </trkpt>
      <trkpt lat="50.40219" lon="3.48448">
        <ele>20.3249512</ele>
        <time>2011-08-21T08:08:32Z</time>
      </trkpt>
      <trkpt lat="50.4021" lon="3.48367">
        <ele>20.3249512</ele>
        <time>2011-08-21T08:08:41Z</time>
      </trkpt>
      <trkpt lat="50.40203" lon="3.48305">
        <ele>19.8443604</ele>
        <time>2011-08-21T08:08:48Z</time>
      </trkpt>
      <trkpt lat="50.40191" lon="3.48266">
        <ele>19.3637695</ele>
        <time>2011-08-21T08:08:53Z</time>
      </trkpt>
      <trkpt lat="50.40188" lon="3.48234">
        <ele>19.8443604</ele>
        <time>2011-08-21T08:08:57Z</time>
      </trkpt>
      <trkpt lat="50.4019" lon="3.48227">
        <ele>19.8443604</ele>
        <time>2011-08-21T08:08:58Z</time>
      </trkpt>
      <trkpt lat="50.40197" lon="3.48163">
        <ele>18.8830566</ele>
        <time>2011-08-21T08:09:05Z</time>
      </trkpt>
      <trkpt lat="50.40199" lon="3.48144">
        <ele>18.8830566</ele>
        <time>2011-08-21T08:09:07Z</time>
      </trkpt>
      <trkpt lat="50.40212" lon="3.48111">
        <ele>19.8443604</ele>
        <time>2011-08-21T08:09:12Z</time>
      </trkpt>
      <trkpt lat="50.40227" lon="3.48094">
        <ele>20.3249512</ele>
        <time>2011-08-21T08:09:15Z</time>
      </trkpt>
      <trkpt lat="50.40248" lon="3.48062">
        <ele>20.3249512</ele>
        <time>2011-08-21T08:09:19Z</time>
      </trkpt>
      <trkpt lat="50.4025" lon="3.48036">
        <ele>18.4023438</ele>
        <time>2011-08-21T08:09:22Z</time>
      </trkpt>
      <trkpt lat="50.40244" lon="3.48023">
        <ele>16.9604492</ele>
        <time>2011-08-21T08:09:24Z</time>
      </trkpt>
      <trkpt lat="50.40229" lon="3.47982">
        <ele>16.4797363</ele>
        <time>2011-08-21T08:09:29Z</time>
      </trkpt>
      <trkpt lat="50.40233" lon="3.47894">
        <ele>16.9604492</ele>
        <time>2011-08-21T08:09:38Z</time>
      </trkpt>
      <trkpt lat="50.40237" lon="3.47815">
        <ele>16.4797363</ele>
        <time>2011-08-21T08:09:46Z</time>
      </trkpt>
      <trkpt lat="50.40242" lon="3.47747">
        <ele>14.5570068</ele>
        <time>2011-08-21T08:09:53Z</time>
      </trkpt>
      <trkpt lat="50.40244" lon="3.47711">
        <ele>14.076416</ele>
        <time>2011-08-21T08:09:57Z</time>
      </trkpt>
      <trkpt lat="50.4025" lon="3.47685">
        <ele>13.5958252</ele>
        <time>2011-08-21T08:10:01Z</time>
      </trkpt>
      <trkpt lat="50.40261" lon="3.47674">
        <ele>13.1151123</ele>
        <time>2011-08-21T08:10:04Z</time>
      </trkpt>
      <trkpt lat="50.40294" lon="3.47654">
        <ele>13.5958252</ele>
        <time>2011-08-21T08:10:11Z</time>
      </trkpt>
      <trkpt lat="50.40325" lon="3.47634">
        <ele>14.076416</ele>
        <time>2011-08-21T08:10:17Z</time>
      </trkpt>
      <trkpt lat="50.40351" lon="3.47618">
        <ele>15.9990234</ele>
        <time>2011-08-21T08:10:22Z</time>
      </trkpt>
      <trkpt lat="50.40385" lon="3.476">
        <ele>20.8056641</ele>
        <time>2011-08-21T08:10:28Z</time>
      </trkpt>
      <trkpt lat="50.40417" lon="3.47581">
        <ele>27.0543213</ele>
        <time>2011-08-21T08:10:34Z</time>
      </trkpt>
      <trkpt lat="50.40422" lon="3.47578">
        <ele>27.5349121</ele>
        <time>2011-08-21T08:10:35Z</time>
      </trkpt>
      <trkpt lat="50.40462" lon="3.47554">
        <ele>29.9381104</ele>
        <time>2011-08-21T08:10:42Z</time>
      </trkpt>
      <trkpt lat="50.4049" lon="3.47536">
        <ele>31.8607178</ele>
        <time>2011-08-21T08:10:47Z</time>
      </trkpt>
      <trkpt lat="50.40521" lon="3.47519">
        <ele>30.4188232</ele>
        <time>2011-08-21T08:10:53Z</time>
      </trkpt>
      <trkpt lat="50.4056" lon="3.47476">
        <ele>24.1702881</ele>
        <time>2011-08-21T08:11:01Z</time>
      </trkpt>
      <trkpt lat="50.40585" lon="3.47458">
        <ele>23.6895752</ele>
        <time>2011-08-21T08:11:06Z</time>
      </trkpt>
      <trkpt lat="50.40595" lon="3.47449">
        <ele>24.1702881</ele>
        <time>2011-08-21T08:11:08Z</time>
      </trkpt>
      <trkpt lat="50.40605" lon="3.47442">
        <ele>25.6123047</ele>
        <time>2011-08-21T08:11:10Z</time>
      </trkpt>
      <trkpt lat="50.40644" lon="3.47421">
        <ele>22.7282715</ele>
        <time>2011-08-21T08:11:17Z</time>
      </trkpt>
      <trkpt lat="50.40682" lon="3.47401">
        <ele>20.8056641</ele>
        <time>2011-08-21T08:11:24Z</time>
      </trkpt>
      <trkpt lat="50.40687" lon="3.47398">
        <ele>21.7669678</ele>
        <time>2011-08-21T08:11:25Z</time>
      </trkpt>
      <trkpt lat="50.40702" lon="3.47385">
        <ele>23.2089844</ele>
        <time>2011-08-21T08:11:28Z</time>
      </trkpt>
      <trkpt lat="50.40722" lon="3.47374">
        <ele>22.7282715</ele>
        <time>2011-08-21T08:11:32Z</time>
      </trkpt>
      <trkpt lat="50.40731" lon="3.47353">
        <ele>21.7669678</ele>
        <time>2011-08-21T08:11:36Z</time>
      </trkpt>
      <trkpt lat="50.40731" lon="3.47345">
        <ele>22.7282715</ele>
        <time>2011-08-21T08:11:37Z</time>
      </trkpt>
      <trkpt lat="50.4072" lon="3.47286">
        <ele>22.2475586</ele>
        <time>2011-08-21T08:11:44Z</time>
      </trkpt>
      <trkpt lat="50.40718" lon="3.47268">
        <ele>22.2475586</ele>
        <time>2011-08-21T08:11:46Z</time>
      </trkpt>
      <trkpt lat="50.40704" lon="3.47189">
        <ele>20.8056641</ele>
        <time>2011-08-21T08:11:54Z</time>
      </trkpt>
      <trkpt lat="50.40698" lon="3.47144">
        <ele>21.286377</ele>
        <time>2011-08-21T08:11:59Z</time>
      </trkpt>
      <trkpt lat="50.40691" lon="3.47099">
        <ele>20.8056641</ele>
        <time>2011-08-21T08:12:04Z</time>
      </trkpt>
      <trkpt lat="50.40687" lon="3.47083">
        <ele>20.3249512</ele>
        <time>2011-08-21T08:12:06Z</time>
      </trkpt>
      <trkpt lat="50.40686" lon="3.47074">
        <ele>20.3249512</ele>
        <time>2011-08-21T08:12:07Z</time>
      </trkpt>
      <trkpt lat="50.40674" lon="3.47016">
        <ele>19.8443604</ele>
        <time>2011-08-21T08:12:13Z</time>
      </trkpt>
      <trkpt lat="50.40663" lon="3.4696">
        <ele>20.8056641</ele>
        <time>2011-08-21T08:12:19Z</time>
      </trkpt>
      <trkpt lat="50.40657" lon="3.46921">
        <ele>21.7669678</ele>
        <time>2011-08-21T08:12:23Z</time>
      </trkpt>
      <trkpt lat="50.40643" lon="3.46843">
        <ele>21.286377</ele>
        <time>2011-08-21T08:12:31Z</time>
      </trkpt>
      <trkpt lat="50.40631" lon="3.46777">
        <ele>21.286377</ele>
        <time>2011-08-21T08:12:38Z</time>
      </trkpt>
      <trkpt lat="50.40617" lon="3.46701">
        <ele>21.286377</ele>
        <time>2011-08-21T08:12:46Z</time>
      </trkpt>
      <trkpt lat="50.40604" lon="3.46626">
        <ele>22.7282715</ele>
        <time>2011-08-21T08:12:54Z</time>
      </trkpt>
      <trkpt lat="50.40603" lon="3.46617">
        <ele>22.7282715</ele>
        <time>2011-08-21T08:12:55Z</time>
      </trkpt>
      <trkpt lat="50.40589" lon="3.46547">
        <ele>24.1702881</ele>
        <time>2011-08-21T08:13:02Z</time>
      </trkpt>
      <trkpt lat="50.40576" lon="3.46482">
        <ele>23.2089844</ele>
        <time>2011-08-21T08:13:09Z</time>
      </trkpt>
      <trkpt lat="50.40566" lon="3.46419">
        <ele>23.6895752</ele>
        <time>2011-08-21T08:13:16Z</time>
      </trkpt>
      <trkpt lat="50.40559" lon="3.46368">
        <ele>23.6895752</ele>
        <time>2011-08-21T08:13:22Z</time>
      </trkpt>
      <trkpt lat="50.40546" lon="3.46294">
        <ele>24.651001</ele>
        <time>2011-08-21T08:13:30Z</time>
      </trkpt>
      <trkpt lat="50.40534" lon="3.4623">
        <ele>25.1317139</ele>
        <time>2011-08-21T08:13:37Z</time>
      </trkpt>
      <trkpt lat="50.4052" lon="3.46159">
        <ele>26.5736084</ele>
        <time>2011-08-21T08:13:45Z</time>
      </trkpt>
      <trkpt lat="50.40502" lon="3.4611">
        <ele>24.1702881</ele>
        <time>2011-08-21T08:13:51Z</time>
      </trkpt>
      <trkpt lat="50.40492" lon="3.46086">
        <ele>23.2089844</ele>
        <time>2011-08-21T08:13:54Z</time>
      </trkpt>
      <trkpt lat="50.40474" lon="3.46008">
        <ele>21.7669678</ele>
        <time>2011-08-21T08:14:03Z</time>
      </trkpt>
      <trkpt lat="50.40468" lon="3.45984">
        <ele>21.7669678</ele>
        <time>2011-08-21T08:14:06Z</time>
      </trkpt>
      <trkpt lat="50.40461" lon="3.45949">
        <ele>20.8056641</ele>
        <time>2011-08-21T08:14:11Z</time>
      </trkpt>
      <trkpt lat="50.40452" lon="3.4594">
        <ele>20.8056641</ele>
        <time>2011-08-21T08:14:15Z</time>
      </trkpt>
      <trkpt lat="50.40443" lon="3.45943">
        <ele>20.8056641</ele>
        <time>2011-08-21T08:14:17Z</time>
      </trkpt>
      <trkpt lat="50.40409" lon="3.45967">
        <ele>21.286377</ele>
        <time>2011-08-21T08:14:24Z</time>
      </trkpt>
      <trkpt lat="50.40377" lon="3.45989">
        <ele>22.2475586</ele>
        <time>2011-08-21T08:14:30Z</time>
      </trkpt>
      <trkpt lat="50.40328" lon="3.46021">
        <ele>23.6895752</ele>
        <time>2011-08-21T08:14:39Z</time>
      </trkpt>
      <trkpt lat="50.40267" lon="3.46061">
        <ele>24.1702881</ele>
        <time>2011-08-21T08:14:50Z</time>
      </trkpt>
      <trkpt lat="50.40221" lon="3.46097">
        <ele>25.1317139</ele>
        <time>2011-08-21T08:14:59Z</time>
      </trkpt>
      <trkpt lat="50.40215" lon="3.46101">
        <ele>25.1317139</ele>
        <time>2011-08-21T08:15:00Z</time>
      </trkpt>
      <trkpt lat="50.40202" lon="3.46099">
        <ele>25.6123047</ele>
        <time>2011-08-21T08:15:03Z</time>
      </trkpt>
      <trkpt lat="50.40203" lon="3.46083">
        <ele>25.6123047</ele>
        <time>2011-08-21T08:15:05Z</time>
      </trkpt>
      <trkpt lat="50.40205" lon="3.46075">
        <ele>25.6123047</ele>
        <time>2011-08-21T08:15:06Z</time>
      </trkpt>
      <trkpt lat="50.40225" lon="3.46008">
        <ele>27.5349121</ele>
        <time>2011-08-21T08:15:14Z</time>
      </trkpt>
      <trkpt lat="50.40249" lon="3.4593">
        <ele>28.0155029</ele>
        <time>2011-08-21T08:15:23Z</time>
      </trkpt>
      <trkpt lat="50.40269" lon="3.45858">
        <ele>28.0155029</ele>
        <time>2011-08-21T08:15:31Z</time>
      </trkpt>
      <trkpt lat="50.40263" lon="3.45822">
        <ele>27.0543213</ele>
        <time>2011-08-21T08:15:35Z</time>
      </trkpt>
      <trkpt lat="50.40245" lon="3.4581">
        <ele>27.0543213</ele>
        <time>2011-08-21T08:15:38Z</time>
      </trkpt>
      <trkpt lat="50.40239" lon="3.45808">
        <ele>27.0543213</ele>
        <time>2011-08-21T08:15:39Z</time>
      </trkpt>
      <trkpt lat="50.40179" lon="3.45776">
        <ele>25.6123047</ele>
        <time>2011-08-21T08:15:49Z</time>
      </trkpt>
      <trkpt lat="50.40145" lon="3.45747">
        <ele>24.1702881</ele>
        <time>2011-08-21T08:15:55Z</time>
      </trkpt>
      <trkpt lat="50.40103" lon="3.45713">
        <ele>23.2089844</ele>
        <time>2011-08-21T08:16:02Z</time>
      </trkpt>
      <trkpt lat="50.40072" lon="3.45688">
        <ele>22.7282715</ele>
        <time>2011-08-21T08:16:07Z</time>
      </trkpt>
      <trkpt lat="50.40035" lon="3.45657">
        <ele>23.2089844</ele>
        <time>2011-08-21T08:16:13Z</time>
      </trkpt>
      <trkpt lat="50.39987" lon="3.45612">
        <ele>23.2089844</ele>
        <time>2011-08-21T08:16:21Z</time>
      </trkpt>
      <trkpt lat="50.39958" lon="3.45564">
        <ele>23.2089844</ele>
        <time>2011-08-21T08:16:27Z</time>
      </trkpt>
      <trkpt lat="50.39943" lon="3.45515">
        <ele>23.6895752</ele>
        <time>2011-08-21T08:16:32Z</time>
      </trkpt>
      <trkpt lat="50.39934" lon="3.45457">
        <ele>27.0543213</ele>
        <time>2011-08-21T08:16:38Z</time>
      </trkpt>
      <trkpt lat="50.39921" lon="3.454">
        <ele>27.0543213</ele>
        <time>2011-08-21T08:16:44Z</time>
      </trkpt>
      <trkpt lat="50.39919" lon="3.4539">
        <ele>26.5736084</ele>
        <time>2011-08-21T08:16:45Z</time>
      </trkpt>
      <trkpt lat="50.39911" lon="3.45361">
        <ele>26.0928955</ele>
        <time>2011-08-21T08:16:48Z</time>
      </trkpt>
      <trkpt lat="50.39885" lon="3.45301">
        <ele>25.1317139</ele>
        <time>2011-08-21T08:16:55Z</time>
      </trkpt>
      <trkpt lat="50.39842" lon="3.45255">
        <ele>23.2089844</ele>
        <time>2011-08-21T08:17:03Z</time>
      </trkpt>
      <trkpt lat="50.398" lon="3.45215">
        <ele>22.7282715</ele>
        <time>2011-08-21T08:17:10Z</time>
      </trkpt>
      <trkpt lat="50.39766" lon="3.45168">
        <ele>23.6895752</ele>
        <time>2011-08-21T08:17:16Z</time>
      </trkpt>
      <trkpt lat="50.3974" lon="3.4511">
        <ele>24.651001</ele>
        <time>2011-08-21T08:17:22Z</time>
      </trkpt>
      <trkpt lat="50.3971" lon="3.45034">
        <ele>23.2089844</ele>
        <time>2011-08-21T08:17:29Z</time>
      </trkpt>
      <trkpt lat="50.39684" lon="3.44974">
        <ele>22.7282715</ele>
        <time>2011-08-21T08:17:35Z</time>
      </trkpt>
      <trkpt lat="50.39675" lon="3.44952">
        <ele>23.2089844</ele>
        <time>2011-08-21T08:17:36Z</time>
      </trkpt>
      <trkpt lat="50.39655" lon="3.44898">
        <ele>23.6895752</ele>
        <time>2011-08-21T08:17:42Z</time>
      </trkpt>
      <trkpt lat="50.3964" lon="3.44862">
        <ele>24.651001</ele>
        <time>2011-08-21T08:17:47Z</time>
      </trkpt>
      <trkpt lat="50.39621" lon="3.44851">
        <ele>24.651001</ele>
        <time>2011-08-21T08:17:51Z</time>
      </trkpt>
      <trkpt lat="50.39602" lon="3.44843">
        <ele>25.1317139</ele>
        <time>2011-08-21T08:17:56Z</time>
      </trkpt>
      <trkpt lat="50.39601" lon="3.44836">
        <ele>25.1317139</ele>
        <time>2011-08-21T08:17:57Z</time>
      </trkpt>
      <trkpt lat="50.39591" lon="3.44776">
        <ele>24.651001</ele>
        <time>2011-08-21T08:18:04Z</time>
      </trkpt>
      <trkpt lat="50.3958" lon="3.4472">
        <ele>24.1702881</ele>
        <time>2011-08-21T08:18:10Z</time>
      </trkpt>
      <trkpt lat="50.39562" lon="3.44674">
        <ele>26.5736084</ele>
        <time>2011-08-21T08:18:15Z</time>
      </trkpt>
      <trkpt lat="50.39533" lon="3.44596">
        <ele>26.0928955</ele>
        <time>2011-08-21T08:18:22Z</time>
      </trkpt>
      <trkpt lat="50.39503" lon="3.44526">
        <ele>23.6895752</ele>
        <time>2011-08-21T08:18:28Z</time>
      </trkpt>
      <trkpt lat="50.39469" lon="3.44444">
        <ele>21.7669678</ele>
        <time>2011-08-21T08:18:35Z</time>
      </trkpt>
      <trkpt lat="50.39437" lon="3.44362">
        <ele>18.4023438</ele>
        <time>2011-08-21T08:18:42Z</time>
      </trkpt>
      <trkpt lat="50.39408" lon="3.4429">
        <ele>16.9604492</ele>
        <time>2011-08-21T08:18:48Z</time>
      </trkpt>
      <trkpt lat="50.39375" lon="3.44206">
        <ele>17.4411621</ele>
        <time>2011-08-21T08:18:55Z</time>
      </trkpt>
      <trkpt lat="50.39347" lon="3.44138">
        <ele>17.4411621</ele>
        <time>2011-08-21T08:19:01Z</time>
      </trkpt>
      <trkpt lat="50.39315" lon="3.44061">
        <ele>16.9604492</ele>
        <time>2011-08-21T08:19:08Z</time>
      </trkpt>
      <trkpt lat="50.39277" lon="3.43967">
        <ele>15.9990234</ele>
        <time>2011-08-21T08:19:16Z</time>
      </trkpt>
      <trkpt lat="50.39251" lon="3.439">
        <ele>15.0377197</ele>
        <time>2011-08-21T08:19:22Z</time>
      </trkpt>
      <trkpt lat="50.39226" lon="3.43836">
        <ele>15.5184326</ele>
        <time>2011-08-21T08:19:28Z</time>
      </trkpt>
      <trkpt lat="50.39201" lon="3.43773">
        <ele>12.6343994</ele>
        <time>2011-08-21T08:19:34Z</time>
      </trkpt>
      <trkpt lat="50.39183" lon="3.43723">
        <ele>11.6732178</ele>
        <time>2011-08-21T08:19:39Z</time>
      </trkpt>
      <trkpt lat="50.39165" lon="3.43677">
        <ele>11.1925049</ele>
        <time>2011-08-21T08:19:44Z</time>
      </trkpt>
      <trkpt lat="50.39136" lon="3.43607">
        <ele>11.6732178</ele>
        <time>2011-08-21T08:19:52Z</time>
      </trkpt>
      <trkpt lat="50.39105" lon="3.43529">
        <ele>12.6343994</ele>
        <time>2011-08-21T08:20:01Z</time>
      </trkpt>
      <trkpt lat="50.39086" lon="3.43485">
        <ele>15.5184326</ele>
        <time>2011-08-21T08:20:07Z</time>
      </trkpt>
      <trkpt lat="50.39065" lon="3.43432">
        <ele>17.9217529</ele>
        <time>2011-08-21T08:20:14Z</time>
      </trkpt>
      <trkpt lat="50.39046" lon="3.43381">
        <ele>19.3637695</ele>
        <time>2011-08-21T08:20:21Z</time>
      </trkpt>
      <trkpt lat="50.39037" lon="3.43362">
        <ele>20.3249512</ele>
        <time>2011-08-21T08:20:24Z</time>
      </trkpt>
      <trkpt lat="50.39032" lon="3.43339">
        <ele>21.286377</ele>
        <time>2011-08-21T08:20:28Z</time>
      </trkpt>
      <trkpt lat="50.39032" lon="3.43327">
        <ele>21.7669678</ele>
        <time>2011-08-21T08:20:30Z</time>
      </trkpt>
      <trkpt lat="50.39023" lon="3.433">
        <ele>21.286377</ele>
        <time>2011-08-21T08:20:36Z</time>
      </trkpt>
      <trkpt lat="50.39011" lon="3.43256">
        <ele>21.286377</ele>
        <time>2011-08-21T08:20:42Z</time>
      </trkpt>
      <trkpt lat="50.39004" lon="3.43223">
        <ele>22.2475586</ele>
        <time>2011-08-21T08:20:46Z</time>
      </trkpt>
      <trkpt lat="50.38988" lon="3.43191">
        <ele>26.0928955</ele>
        <time>2011-08-21T08:20:51Z</time>
      </trkpt>
      <trkpt lat="50.38986" lon="3.43183">
        <ele>26.5736084</ele>
        <time>2011-08-21T08:20:52Z</time>
      </trkpt>
      <trkpt lat="50.3897" lon="3.4314">
        <ele>28.9769287</ele>
        <time>2011-08-21T08:20:58Z</time>
      </trkpt>
      <trkpt lat="50.38964" lon="3.43126">
        <ele>29.9381104</ele>
        <time>2011-08-21T08:21:00Z</time>
      </trkpt>
      <trkpt lat="50.38949" lon="3.43075">
        <ele>31.8607178</ele>
        <time>2011-08-21T08:21:07Z</time>
      </trkpt>
      <trkpt lat="50.38947" lon="3.43042">
        <ele>36.1867676</ele>
        <time>2011-08-21T08:21:11Z</time>
      </trkpt>
      <trkpt lat="50.38946" lon="3.43024">
        <ele>38.109375</ele>
        <time>2011-08-21T08:21:14Z</time>
      </trkpt>
      <trkpt lat="50.38944" lon="3.42994">
        <ele>38.109375</ele>
        <time>2011-08-21T08:21:20Z</time>
      </trkpt>
      <trkpt lat="50.38946" lon="3.42978">
        <ele>38.109375</ele>
        <time>2011-08-21T08:21:22Z</time>
      </trkpt>
      <trkpt lat="50.38954" lon="3.4295">
        <ele>38.109375</ele>
        <time>2011-08-21T08:21:26Z</time>
      </trkpt>
      <trkpt lat="50.38958" lon="3.42935">
        <ele>39.5512695</ele>
        <time>2011-08-21T08:21:28Z</time>
      </trkpt>
      <trkpt lat="50.38966" lon="3.4291">
        <ele>40.5128174</ele>
        <time>2011-08-21T08:21:31Z</time>
      </trkpt>
      <trkpt lat="50.38978" lon="3.42856">
        <ele>36.6674805</ele>
        <time>2011-08-21T08:21:37Z</time>
      </trkpt>
      <trkpt lat="50.38992" lon="3.42806">
        <ele>34.744873</ele>
        <time>2011-08-21T08:21:43Z</time>
      </trkpt>
      <trkpt lat="50.38998" lon="3.42773">
        <ele>33.7834473</ele>
        <time>2011-08-21T08:21:47Z</time>
      </trkpt>
      <trkpt lat="50.39002" lon="3.42739">
        <ele>34.744873</ele>
        <time>2011-08-21T08:21:51Z</time>
      </trkpt>
      <trkpt lat="50.39005" lon="3.42717">
        <ele>33.3028564</ele>
        <time>2011-08-21T08:21:54Z</time>
      </trkpt>
      <trkpt lat="50.39006" lon="3.42671">
        <ele>34.2641602</ele>
        <time>2011-08-21T08:22:00Z</time>
      </trkpt>
      <trkpt lat="50.39013" lon="3.42635">
        <ele>30.8995361</ele>
        <time>2011-08-21T08:22:05Z</time>
      </trkpt>
      <trkpt lat="50.3903" lon="3.42591">
        <ele>29.4575195</ele>
        <time>2011-08-21T08:22:11Z</time>
      </trkpt>
      <trkpt lat="50.39039" lon="3.42562">
        <ele>31.380127</ele>
        <time>2011-08-21T08:22:15Z</time>
      </trkpt>
      <trkpt lat="50.39049" lon="3.42536">
        <ele>29.4575195</ele>
        <time>2011-08-21T08:22:19Z</time>
      </trkpt>
      <trkpt lat="50.39049" lon="3.42524">
        <ele>27.5349121</ele>
        <time>2011-08-21T08:22:21Z</time>
      </trkpt>
      <trkpt lat="50.39043" lon="3.42481">
        <ele>26.5736084</ele>
        <time>2011-08-21T08:22:28Z</time>
      </trkpt>
      <trkpt lat="50.39048" lon="3.42457">
        <ele>28.0155029</ele>
        <time>2011-08-21T08:22:32Z</time>
      </trkpt>
      <trkpt lat="50.39047" lon="3.42438">
        <ele>26.5736084</ele>
        <time>2011-08-21T08:22:35Z</time>
      </trkpt>
      <trkpt lat="50.39033" lon="3.42406">
        <ele>22.7282715</ele>
        <time>2011-08-21T08:22:40Z</time>
      </trkpt>
      <trkpt lat="50.39029" lon="3.42401">
        <ele>21.286377</ele>
        <time>2011-08-21T08:22:41Z</time>
      </trkpt>
      <trkpt lat="50.39006" lon="3.42376">
        <ele>21.286377</ele>
        <time>2011-08-21T08:22:46Z</time>
      </trkpt>
      <trkpt lat="50.38992" lon="3.42339">
        <ele>23.6895752</ele>
        <time>2011-08-21T08:22:51Z</time>
      </trkpt>
      <trkpt lat="50.38986" lon="3.42321">
        <ele>24.651001</ele>
        <time>2011-08-21T08:22:53Z</time>
      </trkpt>
      <trkpt lat="50.38966" lon="3.4228">
        <ele>26.5736084</ele>
        <time>2011-08-21T08:22:58Z</time>
      </trkpt>
      <trkpt lat="50.38953" lon="3.42278">
        <ele>27.5349121</ele>
        <time>2011-08-21T08:23:01Z</time>
      </trkpt>
      <trkpt lat="50.38944" lon="3.42284">
        <ele>28.4962158</ele>
        <time>2011-08-21T08:23:03Z</time>
      </trkpt>
      <trkpt lat="50.38911" lon="3.42318">
        <ele>30.4188232</ele>
        <time>2011-08-21T08:23:11Z</time>
      </trkpt>
      <trkpt lat="50.38894" lon="3.42332">
        <ele>32.8222656</ele>
        <time>2011-08-21T08:23:15Z</time>
      </trkpt>
      <trkpt lat="50.38882" lon="3.42346">
        <ele>35.2254639</ele>
        <time>2011-08-21T08:23:18Z</time>
      </trkpt>
      <trkpt lat="50.38873" lon="3.42356">
        <ele>36.1867676</ele>
        <time>2011-08-21T08:23:20Z</time>
      </trkpt>
      <trkpt lat="50.38846" lon="3.42383">
        <ele>36.6674805</ele>
        <time>2011-08-21T08:23:26Z</time>
      </trkpt>
      <trkpt lat="50.38831" lon="3.42396">
        <ele>37.1480713</ele>
        <time>2011-08-21T08:23:30Z</time>
      </trkpt>
      <trkpt lat="50.388" lon="3.42425">
        <ele>37.1480713</ele>
        <time>2011-08-21T08:23:38Z</time>
      </trkpt>
      <trkpt lat="50.38764" lon="3.42461">
        <ele>37.6286621</ele>
        <time>2011-08-21T08:23:47Z</time>
      </trkpt>
      <trkpt lat="50.38739" lon="3.42488">
        <ele>38.5900879</ele>
        <time>2011-08-21T08:23:54Z</time>
      </trkpt>
      <trkpt lat="50.38717" lon="3.42511">
        <ele>39.0706787</ele>
        <time>2011-08-21T08:24:00Z</time>
      </trkpt>
      <trkpt lat="50.38693" lon="3.42534">
        <ele>40.0321045</ele>
        <time>2011-08-21T08:24:06Z</time>
      </trkpt>
      <trkpt lat="50.38657" lon="3.42572">
        <ele>41.473999</ele>
        <time>2011-08-21T08:24:15Z</time>
      </trkpt>
      <trkpt lat="50.38649" lon="3.42581">
        <ele>41.9547119</ele>
        <time>2011-08-21T08:24:17Z</time>
      </trkpt>
      <trkpt lat="50.38606" lon="3.42622">
        <ele>42.9160156</ele>
        <time>2011-08-21T08:24:27Z</time>
      </trkpt>
      <trkpt lat="50.38558" lon="3.42673">
        <ele>43.8773193</ele>
        <time>2011-08-21T08:24:38Z</time>
      </trkpt>
      <trkpt lat="50.38512" lon="3.42722">
        <ele>45.3192139</ele>
        <time>2011-08-21T08:24:48Z</time>
      </trkpt>
      <trkpt lat="50.38472" lon="3.4276">
        <ele>45.3192139</ele>
        <time>2011-08-21T08:24:56Z</time>
      </trkpt>
      <trkpt lat="50.38433" lon="3.42803">
        <ele>45.3192139</ele>
        <time>2011-08-21T08:25:04Z</time>
      </trkpt>
      <trkpt lat="50.38374" lon="3.42864">
        <ele>46.2806396</ele>
        <time>2011-08-21T08:25:16Z</time>
      </trkpt>
      <trkpt lat="50.38333" lon="3.42906">
        <ele>47.7225342</ele>
        <time>2011-08-21T08:25:24Z</time>
      </trkpt>
      <trkpt lat="50.38287" lon="3.42953">
        <ele>47.7225342</ele>
        <time>2011-08-21T08:25:33Z</time>
      </trkpt>
      <trkpt lat="50.38249" lon="3.42992">
        <ele>48.2033691</ele>
        <time>2011-08-21T08:25:40Z</time>
      </trkpt>
      <trkpt lat="50.38208" lon="3.43036">
        <ele>44.3580322</ele>
        <time>2011-08-21T08:25:48Z</time>
      </trkpt>
      <trkpt lat="50.3817" lon="3.43075">
        <ele>41.473999</ele>
        <time>2011-08-21T08:25:55Z</time>
      </trkpt>
      <trkpt lat="50.38139" lon="3.43085">
        <ele>39.5512695</ele>
        <time>2011-08-21T08:26:00Z</time>
      </trkpt>
      <trkpt lat="50.38087" lon="3.43087">
        <ele>38.5900879</ele>
        <time>2011-08-21T08:26:08Z</time>
      </trkpt>
      <trkpt lat="50.38035" lon="3.4309">
        <ele>38.109375</ele>
        <time>2011-08-21T08:26:16Z</time>
      </trkpt>
      <trkpt lat="50.37983" lon="3.43095">
        <ele>38.109375</ele>
        <time>2011-08-21T08:26:24Z</time>
      </trkpt>
      <trkpt lat="50.37929" lon="3.43098">
        <ele>38.109375</ele>
        <time>2011-08-21T08:26:33Z</time>
      </trkpt>
      <trkpt lat="50.37902" lon="3.43096">
        <ele>37.6286621</ele>
        <time>2011-08-21T08:26:38Z</time>
      </trkpt>
      <trkpt lat="50.3788" lon="3.43103">
        <ele>37.6286621</ele>
        <time>2011-08-21T08:26:42Z</time>
      </trkpt>
      <trkpt lat="50.37845" lon="3.43115">
        <ele>38.5900879</ele>
        <time>2011-08-21T08:26:48Z</time>
      </trkpt>
      <trkpt lat="50.37823" lon="3.43105">
        <ele>40.5128174</ele>
        <time>2011-08-21T08:26:52Z</time>
      </trkpt>
      <trkpt lat="50.37815" lon="3.43091">
        <ele>40.9934082</ele>
        <time>2011-08-21T08:26:54Z</time>
      </trkpt>
      <trkpt lat="50.37792" lon="3.43015">
        <ele>40.9934082</ele>
        <time>2011-08-21T08:27:03Z</time>
      </trkpt>
      <trkpt lat="50.37779" lon="3.42983">
        <ele>41.473999</ele>
        <time>2011-08-21T08:27:07Z</time>
      </trkpt>
      <trkpt lat="50.3776" lon="3.42964">
        <ele>41.9547119</ele>
        <time>2011-08-21T08:27:11Z</time>
      </trkpt>
      <trkpt lat="50.37742" lon="3.42967">
        <ele>41.473999</ele>
        <time>2011-08-21T08:27:14Z</time>
      </trkpt>
      <trkpt lat="50.37686" lon="3.42986">
        <ele>40.0321045</ele>
        <time>2011-08-21T08:27:23Z</time>
      </trkpt>
      <trkpt lat="50.37631" lon="3.42992">
        <ele>38.109375</ele>
        <time>2011-08-21T08:27:32Z</time>
      </trkpt>
      <trkpt lat="50.37575" lon="3.43001">
        <ele>37.1480713</ele>
        <time>2011-08-21T08:27:41Z</time>
      </trkpt>
      <trkpt lat="50.37514" lon="3.43021">
        <ele>36.6674805</ele>
        <time>2011-08-21T08:27:51Z</time>
      </trkpt>
      <trkpt lat="50.37462" lon="3.43051">
        <ele>36.6674805</ele>
        <time>2011-08-21T08:28:00Z</time>
      </trkpt>
      <trkpt lat="50.37426" lon="3.4306">
        <ele>36.6674805</ele>
        <time>2011-08-21T08:28:06Z</time>
      </trkpt>
      <trkpt lat="50.3737" lon="3.43055">
        <ele>36.6674805</ele>
        <time>2011-08-21T08:28:15Z</time>
      </trkpt>
      <trkpt lat="50.37296" lon="3.43046">
        <ele>37.1480713</ele>
        <time>2011-08-21T08:28:27Z</time>
      </trkpt>
      <trkpt lat="50.37284" lon="3.43045">
        <ele>37.1480713</ele>
        <time>2011-08-21T08:28:29Z</time>
      </trkpt>
      <trkpt lat="50.37248" lon="3.43052">
        <ele>37.6286621</ele>
        <time>2011-08-21T08:28:35Z</time>
      </trkpt>
      <trkpt lat="50.37224" lon="3.43047">
        <ele>37.6286621</ele>
        <time>2011-08-21T08:28:39Z</time>
      </trkpt>
      <trkpt lat="50.37195" lon="3.4303">
        <ele>38.109375</ele>
        <time>2011-08-21T08:28:44Z</time>
      </trkpt>
      <trkpt lat="50.37165" lon="3.43024">
        <ele>38.109375</ele>
        <time>2011-08-21T08:28:49Z</time>
      </trkpt>
      <trkpt lat="50.37142" lon="3.43015">
        <ele>38.5900879</ele>
        <time>2011-08-21T08:28:53Z</time>
      </trkpt>
      <trkpt lat="50.3711" lon="3.42989">
        <ele>38.5900879</ele>
        <time>2011-08-21T08:28:59Z</time>
      </trkpt>
      <trkpt lat="50.37059" lon="3.42964">
        <ele>39.5512695</ele>
        <time>2011-08-21T08:29:08Z</time>
      </trkpt>
      <trkpt lat="50.37015" lon="3.42939">
        <ele>40.0321045</ele>
        <time>2011-08-21T08:29:16Z</time>
      </trkpt>
      <trkpt lat="50.36963" lon="3.42912">
        <ele>40.5128174</ele>
        <time>2011-08-21T08:29:25Z</time>
      </trkpt>
      <trkpt lat="50.36909" lon="3.42891">
        <ele>40.0321045</ele>
        <time>2011-08-21T08:29:34Z</time>
      </trkpt>
      <trkpt lat="50.36841" lon="3.42867">
        <ele>40.5128174</ele>
        <time>2011-08-21T08:29:45Z</time>
      </trkpt>
      <trkpt lat="50.36793" lon="3.42852">
        <ele>40.5128174</ele>
        <time>2011-08-21T08:29:53Z</time>
      </trkpt>
      <trkpt lat="50.3675" lon="3.42844">
        <ele>40.0321045</ele>
        <time>2011-08-21T08:30:00Z</time>
      </trkpt>
      <trkpt lat="50.367" lon="3.42841">
        <ele>40.0321045</ele>
        <time>2011-08-21T08:30:08Z</time>
      </trkpt>
      <trkpt lat="50.36662" lon="3.42845">
        <ele>39.5512695</ele>
        <time>2011-08-21T08:30:14Z</time>
      </trkpt>
      <trkpt lat="50.36643" lon="3.42841">
        <ele>39.0706787</ele>
        <time>2011-08-21T08:30:17Z</time>
      </trkpt>
      <trkpt lat="50.36608" lon="3.42814">
        <ele>39.0706787</ele>
        <time>2011-08-21T08:30:23Z</time>
      </trkpt>
      <trkpt lat="50.36543" lon="3.42759">
        <ele>37.6286621</ele>
        <time>2011-08-21T08:30:34Z</time>
      </trkpt>
      <trkpt lat="50.36492" lon="3.42707">
        <ele>37.6286621</ele>
        <time>2011-08-21T08:30:43Z</time>
      </trkpt>
      <trkpt lat="50.36458" lon="3.42672">
        <ele>38.109375</ele>
        <time>2011-08-21T08:30:50Z</time>
      </trkpt>
      <trkpt lat="50.36451" lon="3.42663">
        <ele>38.109375</ele>
        <time>2011-08-21T08:30:52Z</time>
      </trkpt>
      <trkpt lat="50.36424" lon="3.42644">
        <ele>37.6286621</ele>
        <time>2011-08-21T08:30:57Z</time>
      </trkpt>
      <trkpt lat="50.3638" lon="3.42609">
        <ele>36.6674805</ele>
        <time>2011-08-21T08:31:03Z</time>
      </trkpt>
      <trkpt lat="50.36357" lon="3.4259">
        <ele>36.1867676</ele>
        <time>2011-08-21T08:31:06Z</time>
      </trkpt>
      <trkpt lat="50.36292" lon="3.4254">
        <ele>35.2254639</ele>
        <time>2011-08-21T08:31:14Z</time>
      </trkpt>
      <trkpt lat="50.36251" lon="3.42503">
        <ele>34.2641602</ele>
        <time>2011-08-21T08:31:19Z</time>
      </trkpt>
      <trkpt lat="50.362" lon="3.42475">
        <ele>33.7834473</ele>
        <time>2011-08-21T08:31:25Z</time>
      </trkpt>
      <trkpt lat="50.3614" lon="3.42452">
        <ele>32.3415527</ele>
        <time>2011-08-21T08:31:32Z</time>
      </trkpt>
      <trkpt lat="50.36096" lon="3.42435">
        <ele>31.8607178</ele>
        <time>2011-08-21T08:31:38Z</time>
      </trkpt>
      <trkpt lat="50.36044" lon="3.42409">
        <ele>30.8995361</ele>
        <time>2011-08-21T08:31:46Z</time>
      </trkpt>
      <trkpt lat="50.35992" lon="3.42383">
        <ele>29.9381104</ele>
        <time>2011-08-21T08:31:55Z</time>
      </trkpt>
      <trkpt lat="50.35945" lon="3.42363">
        <ele>29.4575195</ele>
        <time>2011-08-21T08:32:03Z</time>
      </trkpt>
      <trkpt lat="50.35911" lon="3.4235">
        <ele>28.9769287</ele>
        <time>2011-08-21T08:32:09Z</time>
      </trkpt>
      <trkpt lat="50.35867" lon="3.4232">
        <ele>28.4962158</ele>
        <time>2011-08-21T08:32:17Z</time>
      </trkpt>
      <trkpt lat="50.35851" lon="3.4231">
        <ele>28.0155029</ele>
        <time>2011-08-21T08:32:20Z</time>
      </trkpt>
      <trkpt lat="50.35815" lon="3.42305">
        <ele>27.5349121</ele>
        <time>2011-08-21T08:32:26Z</time>
      </trkpt>
      <trkpt lat="50.35754" lon="3.42298">
        <ele>27.5349121</ele>
        <time>2011-08-21T08:32:36Z</time>
      </trkpt>
      <trkpt lat="50.35706" lon="3.42288">
        <ele>27.5349121</ele>
        <time>2011-08-21T08:32:44Z</time>
      </trkpt>
      <trkpt lat="50.35645" lon="3.4228">
        <ele>27.5349121</ele>
        <time>2011-08-21T08:32:54Z</time>
      </trkpt>
      <trkpt lat="50.35598" lon="3.42268">
        <ele>27.5349121</ele>
        <time>2011-08-21T08:33:02Z</time>
      </trkpt>
      <trkpt lat="50.35538" lon="3.42247">
        <ele>27.5349121</ele>
        <time>2011-08-21T08:33:12Z</time>
      </trkpt>
      <trkpt lat="50.35491" lon="3.42218">
        <ele>28.0155029</ele>
        <time>2011-08-21T08:33:20Z</time>
      </trkpt>
      <trkpt lat="50.35432" lon="3.4218">
        <ele>28.4962158</ele>
        <time>2011-08-21T08:33:30Z</time>
      </trkpt>
      <trkpt lat="50.35385" lon="3.42153">
        <ele>29.4575195</ele>
        <time>2011-08-21T08:33:38Z</time>
      </trkpt>
      <trkpt lat="50.35368" lon="3.42131">
        <ele>29.4575195</ele>
        <time>2011-08-21T08:33:42Z</time>
      </trkpt>
      <trkpt lat="50.35348" lon="3.42087">
        <ele>29.4575195</ele>
        <time>2011-08-21T08:33:48Z</time>
      </trkpt>
      <trkpt lat="50.35322" lon="3.42038">
        <ele>28.9769287</ele>
        <time>2011-08-21T08:33:55Z</time>
      </trkpt>
      <trkpt lat="50.35314" lon="3.42025">
        <ele>28.9769287</ele>
        <time>2011-08-21T08:33:57Z</time>
      </trkpt>
      <trkpt lat="50.35306" lon="3.42013">
        <ele>28.9769287</ele>
        <time>2011-08-21T08:33:59Z</time>
      </trkpt>
      <trkpt lat="50.35272" lon="3.41955">
        <ele>28.9769287</ele>
        <time>2011-08-21T08:34:08Z</time>
      </trkpt>
      <trkpt lat="50.35257" lon="3.41909">
        <ele>28.4962158</ele>
        <time>2011-08-21T08:34:14Z</time>
      </trkpt>
      <trkpt lat="50.35241" lon="3.41859">
        <ele>27.5349121</ele>
        <time>2011-08-21T08:34:20Z</time>
      </trkpt>
      <trkpt lat="50.35211" lon="3.418">
        <ele>26.5736084</ele>
        <time>2011-08-21T08:34:28Z</time>
      </trkpt>
      <trkpt lat="50.35193" lon="3.41766">
        <ele>25.6123047</ele>
        <time>2011-08-21T08:34:33Z</time>
      </trkpt>
      <trkpt lat="50.35179" lon="3.41753">
        <ele>25.1317139</ele>
        <time>2011-08-21T08:34:36Z</time>
      </trkpt>
      <trkpt lat="50.35127" lon="3.41721">
        <ele>24.651001</ele>
        <time>2011-08-21T08:34:46Z</time>
      </trkpt>
      <trkpt lat="50.35112" lon="3.41711">
        <ele>24.1702881</ele>
        <time>2011-08-21T08:34:49Z</time>
      </trkpt>
      <trkpt lat="50.35068" lon="3.41692">
        <ele>23.6895752</ele>
        <time>2011-08-21T08:34:58Z</time>
      </trkpt>
      <trkpt lat="50.35024" lon="3.41683">
        <ele>25.6123047</ele>
        <time>2011-08-21T08:35:06Z</time>
      </trkpt>
      <trkpt lat="50.34974" lon="3.41682">
        <ele>25.6123047</ele>
        <time>2011-08-21T08:35:15Z</time>
      </trkpt>
      <trkpt lat="50.34958" lon="3.4168">
        <ele>25.6123047</ele>
        <time>2011-08-21T08:35:18Z</time>
      </trkpt>
      <trkpt lat="50.34921" lon="3.41687">
        <ele>26.5736084</ele>
        <time>2011-08-21T08:35:25Z</time>
      </trkpt>
      <trkpt lat="50.34895" lon="3.41698">
        <ele>27.0543213</ele>
        <time>2011-08-21T08:35:30Z</time>
      </trkpt>
      <trkpt lat="50.34877" lon="3.41687">
        <ele>27.5349121</ele>
        <time>2011-08-21T08:35:34Z</time>
      </trkpt>
      <trkpt lat="50.34875" lon="3.41679">
        <ele>27.5349121</ele>
        <time>2011-08-21T08:35:35Z</time>
      </trkpt>
      <trkpt lat="50.34867" lon="3.41599">
        <ele>27.0543213</ele>
        <time>2011-08-21T08:35:44Z</time>
      </trkpt>
      <trkpt lat="50.34858" lon="3.4153">
        <ele>25.6123047</ele>
        <time>2011-08-21T08:35:52Z</time>
      </trkpt>
      <trkpt lat="50.34855" lon="3.41513">
        <ele>25.6123047</ele>
        <time>2011-08-21T08:35:54Z</time>
      </trkpt>
      <trkpt lat="50.34844" lon="3.4151">
        <ele>24.651001</ele>
        <time>2011-08-21T08:35:57Z</time>
      </trkpt>
      <trkpt lat="50.34835" lon="3.41519">
        <ele>24.651001</ele>
        <time>2011-08-21T08:35:59Z</time>
      </trkpt>
      <trkpt lat="50.34793" lon="3.41557">
        <ele>25.1317139</ele>
        <time>2011-08-21T08:36:08Z</time>
      </trkpt>
      <trkpt lat="50.34746" lon="3.41599">
        <ele>26.0928955</ele>
        <time>2011-08-21T08:36:18Z</time>
      </trkpt>
      <trkpt lat="50.34698" lon="3.41647">
        <ele>27.5349121</ele>
        <time>2011-08-21T08:36:28Z</time>
      </trkpt>
      <trkpt lat="50.3465" lon="3.41698">
        <ele>28.4962158</ele>
        <time>2011-08-21T08:36:38Z</time>
      </trkpt>
      <trkpt lat="50.34614" lon="3.41742">
        <ele>29.4575195</ele>
        <time>2011-08-21T08:36:46Z</time>
      </trkpt>
      <trkpt lat="50.34576" lon="3.41794">
        <ele>30.4188232</ele>
        <time>2011-08-21T08:36:55Z</time>
      </trkpt>
      <trkpt lat="50.34547" lon="3.41833">
        <ele>30.8995361</ele>
        <time>2011-08-21T08:37:02Z</time>
      </trkpt>
      <trkpt lat="50.34517" lon="3.41875">
        <ele>31.8607178</ele>
        <time>2011-08-21T08:37:10Z</time>
      </trkpt>
      <trkpt lat="50.34494" lon="3.41903">
        <ele>32.3415527</ele>
        <time>2011-08-21T08:37:16Z</time>
      </trkpt>
      <trkpt lat="50.34461" lon="3.4193">
        <ele>32.8222656</ele>
        <time>2011-08-21T08:37:23Z</time>
      </trkpt>
      <trkpt lat="50.34427" lon="3.4195">
        <ele>32.8222656</ele>
        <time>2011-08-21T08:37:30Z</time>
      </trkpt>
      <trkpt lat="50.34407" lon="3.41958">
        <ele>32.8222656</ele>
        <time>2011-08-21T08:37:34Z</time>
      </trkpt>
      <trkpt lat="50.34364" lon="3.41984">
        <ele>32.8222656</ele>
        <time>2011-08-21T08:37:43Z</time>
      </trkpt>
      <trkpt lat="50.34328" lon="3.42011">
        <ele>33.3028564</ele>
        <time>2011-08-21T08:37:51Z</time>
      </trkpt>
      <trkpt lat="50.34323" lon="3.42013">
        <ele>33.3028564</ele>
        <time>2011-08-21T08:37:52Z</time>
      </trkpt>
      <trkpt lat="50.34307" lon="3.42014">
        <ele>33.7834473</ele>
        <time>2011-08-21T08:37:56Z</time>
      </trkpt>
      <trkpt lat="50.34303" lon="3.42011">
        <ele>33.7834473</ele>
        <time>2011-08-21T08:37:57Z</time>
      </trkpt>
      <trkpt lat="50.34288" lon="3.42">
        <ele>32.8222656</ele>
        <time>2011-08-21T08:38:01Z</time>
      </trkpt>
      <trkpt lat="50.34267" lon="3.41946">
        <ele>31.380127</ele>
        <time>2011-08-21T08:38:09Z</time>
      </trkpt>
      <trkpt lat="50.34235" lon="3.41867">
        <ele>30.4188232</ele>
        <time>2011-08-21T08:38:20Z</time>
      </trkpt>
      <trkpt lat="50.34207" lon="3.418">
        <ele>30.8995361</ele>
        <time>2011-08-21T08:38:29Z</time>
      </trkpt>
      <trkpt lat="50.34185" lon="3.41747">
        <ele>31.380127</ele>
        <time>2011-08-21T08:38:36Z</time>
      </trkpt>
      <trkpt lat="50.34167" lon="3.41703">
        <ele>31.380127</ele>
        <time>2011-08-21T08:38:42Z</time>
      </trkpt>
      <trkpt lat="50.34133" lon="3.41624">
        <ele>31.380127</ele>
        <time>2011-08-21T08:38:53Z</time>
      </trkpt>
      <trkpt lat="50.34095" lon="3.41536">
        <ele>31.8607178</ele>
        <time>2011-08-21T08:39:05Z</time>
      </trkpt>
      <trkpt lat="50.34067" lon="3.41473">
        <ele>32.3415527</ele>
        <time>2011-08-21T08:39:14Z</time>
      </trkpt>
      <trkpt lat="50.34055" lon="3.41448">
        <ele>32.3415527</ele>
        <time>2011-08-21T08:39:18Z</time>
      </trkpt>
      <trkpt lat="50.34051" lon="3.41437">
        <ele>32.3415527</ele>
        <time>2011-08-21T08:39:20Z</time>
      </trkpt>
      <trkpt lat="50.34035" lon="3.41399">
        <ele>31.380127</ele>
        <time>2011-08-21T08:39:26Z</time>
      </trkpt>
      <trkpt lat="50.34013" lon="3.41344">
        <ele>30.4188232</ele>
        <time>2011-08-21T08:39:34Z</time>
      </trkpt>
      <trkpt lat="50.34015" lon="3.41316">
        <ele>30.4188232</ele>
        <time>2011-08-21T08:39:38Z</time>
      </trkpt>
      <trkpt lat="50.34018" lon="3.4131">
        <ele>30.4188232</ele>
        <time>2011-08-21T08:39:39Z</time>
      </trkpt>
      <trkpt lat="50.34024" lon="3.41298">
        <ele>30.4188232</ele>
        <time>2011-08-21T08:39:41Z</time>
      </trkpt>
      <trkpt lat="50.34022" lon="3.41279">
        <ele>30.4188232</ele>
        <time>2011-08-21T08:39:45Z</time>
      </trkpt>
      <trkpt lat="50.34014" lon="3.41274">
        <ele>30.4188232</ele>
        <time>2011-08-21T08:39:47Z</time>
      </trkpt>
      <trkpt lat="50.33988" lon="3.41261">
        <ele>30.8995361</ele>
        <time>2011-08-21T08:39:53Z</time>
      </trkpt>
      <trkpt lat="50.33969" lon="3.4124">
        <ele>30.8995361</ele>
        <time>2011-08-21T08:39:58Z</time>
      </trkpt>
      <trkpt lat="50.33951" lon="3.41199">
        <ele>30.4188232</ele>
        <time>2011-08-21T08:40:04Z</time>
      </trkpt>
      <trkpt lat="50.33926" lon="3.41137">
        <ele>30.8995361</ele>
        <time>2011-08-21T08:40:13Z</time>
      </trkpt>
      <trkpt lat="50.33898" lon="3.41072">
        <ele>31.8607178</ele>
        <time>2011-08-21T08:40:22Z</time>
      </trkpt>
      <trkpt lat="50.33866" lon="3.40999">
        <ele>32.8222656</ele>
        <time>2011-08-21T08:40:32Z</time>
      </trkpt>
      <trkpt lat="50.33843" lon="3.40948">
        <ele>33.3028564</ele>
        <time>2011-08-21T08:40:39Z</time>
      </trkpt>
      <trkpt lat="50.33804" lon="3.40854">
        <ele>33.7834473</ele>
        <time>2011-08-21T08:40:51Z</time>
      </trkpt>
      <trkpt lat="50.33773" lon="3.40776">
        <ele>34.744873</ele>
        <time>2011-08-21T08:41:01Z</time>
      </trkpt>
      <trkpt lat="50.3375" lon="3.40705">
        <ele>35.2254639</ele>
        <time>2011-08-21T08:41:10Z</time>
      </trkpt>
      <trkpt lat="50.33733" lon="3.40648">
        <ele>35.2254639</ele>
        <time>2011-08-21T08:41:17Z</time>
      </trkpt>
      <trkpt lat="50.33722" lon="3.4061">
        <ele>35.2254639</ele>
        <time>2011-08-21T08:41:22Z</time>
      </trkpt>
      <trkpt lat="50.33702" lon="3.40535">
        <ele>35.2254639</ele>
        <time>2011-08-21T08:41:31Z</time>
      </trkpt>
      <trkpt lat="50.3368" lon="3.40452">
        <ele>35.2254639</ele>
        <time>2011-08-21T08:41:41Z</time>
      </trkpt>
      <trkpt lat="50.33662" lon="3.40383">
        <ele>34.2641602</ele>
        <time>2011-08-21T08:41:49Z</time>
      </trkpt>
      <trkpt lat="50.33653" lon="3.4035">
        <ele>33.3028564</ele>
        <time>2011-08-21T08:41:53Z</time>
      </trkpt>
      <trkpt lat="50.33647" lon="3.40342">
        <ele>32.8222656</ele>
        <time>2011-08-21T08:41:55Z</time>
      </trkpt>
      <trkpt lat="50.3364" lon="3.40343">
        <ele>33.3028564</ele>
        <time>2011-08-21T08:41:57Z</time>
      </trkpt>
      <trkpt lat="50.33607" lon="3.40347">
        <ele>33.3028564</ele>
        <time>2011-08-21T08:42:03Z</time>
      </trkpt>
      <trkpt lat="50.33595" lon="3.40351">
        <ele>32.8222656</ele>
        <time>2011-08-21T08:42:05Z</time>
      </trkpt>
      <trkpt lat="50.33578" lon="3.40351">
        <ele>33.3028564</ele>
        <time>2011-08-21T08:42:08Z</time>
      </trkpt>
      <trkpt lat="50.33552" lon="3.40352">
        <ele>34.744873</ele>
        <time>2011-08-21T08:42:12Z</time>
      </trkpt>
      <trkpt lat="50.33511" lon="3.4036">
        <ele>36.1867676</ele>
        <time>2011-08-21T08:42:19Z</time>
      </trkpt>
      <trkpt lat="50.335" lon="3.40361">
        <ele>36.1867676</ele>
        <time>2011-08-21T08:42:21Z</time>
      </trkpt>
      <trkpt lat="50.33477" lon="3.40353">
        <ele>36.6674805</ele>
        <time>2011-08-21T08:42:26Z</time>
      </trkpt>
      <trkpt lat="50.33467" lon="3.40353">
        <ele>36.6674805</ele>
        <time>2011-08-21T08:42:28Z</time>
      </trkpt>
      <trkpt lat="50.33431" lon="3.40359">
        <ele>37.6286621</ele>
        <time>2011-08-21T08:42:35Z</time>
      </trkpt>
      <trkpt lat="50.3338" lon="3.40368">
        <ele>38.109375</ele>
        <time>2011-08-21T08:42:44Z</time>
      </trkpt>
      <trkpt lat="50.33343" lon="3.40376">
        <ele>36.6674805</ele>
        <time>2011-08-21T08:42:50Z</time>
      </trkpt>
      <trkpt lat="50.33294" lon="3.40394">
        <ele>36.1867676</ele>
        <time>2011-08-21T08:42:58Z</time>
      </trkpt>
      <trkpt lat="50.3325" lon="3.40412">
        <ele>35.7060547</ele>
        <time>2011-08-21T08:43:05Z</time>
      </trkpt>
      <trkpt lat="50.3321" lon="3.40426">
        <ele>35.7060547</ele>
        <time>2011-08-21T08:43:12Z</time>
      </trkpt>
      <trkpt lat="50.332" lon="3.4043">
        <ele>35.2254639</ele>
        <time>2011-08-21T08:43:15Z</time>
      </trkpt>
      <trkpt lat="50.33198" lon="3.40431">
        <ele>35.2254639</ele>
        <time>2011-08-21T08:43:18Z</time>
      </trkpt>
      <trkpt lat="50.33196" lon="3.40431">
        <ele>35.7060547</ele>
        <time>2011-08-21T08:44:07Z</time>
      </trkpt>
      <trkpt lat="50.33183" lon="3.40436">
        <ele>35.7060547</ele>
        <time>2011-08-21T08:44:11Z</time>
      </trkpt>
      <trkpt lat="50.33157" lon="3.40448">
        <ele>35.7060547</ele>
        <time>2011-08-21T08:44:17Z</time>
      </trkpt>
      <trkpt lat="50.33121" lon="3.40463">
        <ele>36.1867676</ele>
        <time>2011-08-21T08:44:24Z</time>
      </trkpt>
      <trkpt lat="50.33087" lon="3.40478">
        <ele>39.5512695</ele>
        <time>2011-08-21T08:44:30Z</time>
      </trkpt>
      <trkpt lat="50.33041" lon="3.40498">
        <ele>42.4354248</ele>
        <time>2011-08-21T08:44:38Z</time>
      </trkpt>
      <trkpt lat="50.33" lon="3.40509">
        <ele>39.0706787</ele>
        <time>2011-08-21T08:44:45Z</time>
      </trkpt>
      <trkpt lat="50.32959" lon="3.40522">
        <ele>36.1867676</ele>
        <time>2011-08-21T08:44:53Z</time>
      </trkpt>
      <trkpt lat="50.32947" lon="3.40527">
        <ele>34.744873</ele>
        <time>2011-08-21T08:44:58Z</time>
      </trkpt>
      <trkpt lat="50.32946" lon="3.40527">
        <ele>34.744873</ele>
        <time>2011-08-21T08:44:59Z</time>
      </trkpt>
      <trkpt lat="50.32945" lon="3.40528">
        <ele>34.2641602</ele>
        <time>2011-08-21T08:45:02Z</time>
      </trkpt>
      <trkpt lat="50.32943" lon="3.40528">
        <ele>33.3028564</ele>
        <time>2011-08-21T08:45:16Z</time>
      </trkpt>
      <trkpt lat="50.32929" lon="3.40533">
        <ele>32.8222656</ele>
        <time>2011-08-21T08:45:19Z</time>
      </trkpt>
      <trkpt lat="50.32902" lon="3.40542">
        <ele>31.8607178</ele>
        <time>2011-08-21T08:45:24Z</time>
      </trkpt>
      <trkpt lat="50.32854" lon="3.4056">
        <ele>31.8607178</ele>
        <time>2011-08-21T08:45:31Z</time>
      </trkpt>
      <trkpt lat="50.32802" lon="3.40586">
        <ele>31.8607178</ele>
        <time>2011-08-21T08:45:39Z</time>
      </trkpt>
      <trkpt lat="50.32782" lon="3.406">
        <ele>31.8607178</ele>
        <time>2011-08-21T08:45:42Z</time>
      </trkpt>
      <trkpt lat="50.32727" lon="3.40663">
        <ele>31.8607178</ele>
        <time>2011-08-21T08:45:51Z</time>
      </trkpt>
      <trkpt lat="50.32702" lon="3.40693">
        <ele>32.3415527</ele>
        <time>2011-08-21T08:45:55Z</time>
      </trkpt>
      <trkpt lat="50.32667" lon="3.40737">
        <ele>33.3028564</ele>
        <time>2011-08-21T08:46:01Z</time>
      </trkpt>
      <trkpt lat="50.32622" lon="3.40788">
        <ele>33.3028564</ele>
        <time>2011-08-21T08:46:08Z</time>
      </trkpt>
      <trkpt lat="50.32586" lon="3.40821">
        <ele>33.3028564</ele>
        <time>2011-08-21T08:46:14Z</time>
      </trkpt>
      <trkpt lat="50.32571" lon="3.40828">
        <ele>33.3028564</ele>
        <time>2011-08-21T08:46:17Z</time>
      </trkpt>
      <trkpt lat="50.32531" lon="3.4085">
        <ele>33.7834473</ele>
        <time>2011-08-21T08:46:24Z</time>
      </trkpt>
      <trkpt lat="50.32492" lon="3.40864">
        <ele>33.7834473</ele>
        <time>2011-08-21T08:46:30Z</time>
      </trkpt>
      <trkpt lat="50.32464" lon="3.40869">
        <ele>34.744873</ele>
        <time>2011-08-21T08:46:34Z</time>
      </trkpt>
      <trkpt lat="50.32444" lon="3.40872">
        <ele>35.2254639</ele>
        <time>2011-08-21T08:46:37Z</time>
      </trkpt>
      <trkpt lat="50.32388" lon="3.40878">
        <ele>36.6674805</ele>
        <time>2011-08-21T08:46:46Z</time>
      </trkpt>
      <trkpt lat="50.32336" lon="3.40883">
        <ele>36.1867676</ele>
        <time>2011-08-21T08:46:55Z</time>
      </trkpt>
      <trkpt lat="50.32277" lon="3.40889">
        <ele>35.2254639</ele>
        <time>2011-08-21T08:47:05Z</time>
      </trkpt>
      <trkpt lat="50.32222" lon="3.40894">
        <ele>33.7834473</ele>
        <time>2011-08-21T08:47:14Z</time>
      </trkpt>
      <trkpt lat="50.32216" lon="3.40895">
        <ele>33.3028564</ele>
        <time>2011-08-21T08:47:15Z</time>
      </trkpt>
      <trkpt lat="50.32198" lon="3.40885">
        <ele>32.3415527</ele>
        <time>2011-08-21T08:47:19Z</time>
      </trkpt>
      <trkpt lat="50.32199" lon="3.40866">
        <ele>30.4188232</ele>
        <time>2011-08-21T08:47:22Z</time>
      </trkpt>
      <trkpt lat="50.32201" lon="3.40814">
        <ele>28.0155029</ele>
        <time>2011-08-21T08:47:29Z</time>
      </trkpt>
      <trkpt lat="50.32201" lon="3.40758">
        <ele>29.9381104</ele>
        <time>2011-08-21T08:47:35Z</time>
      </trkpt>
      <trkpt lat="50.32188" lon="3.40688">
        <ele>30.4188232</ele>
        <time>2011-08-21T08:47:42Z</time>
      </trkpt>
      <trkpt lat="50.32173" lon="3.40622">
        <ele>30.8995361</ele>
        <time>2011-08-21T08:47:49Z</time>
      </trkpt>
      <trkpt lat="50.32161" lon="3.40579">
        <ele>30.8995361</ele>
        <time>2011-08-21T08:47:54Z</time>
      </trkpt>
      <trkpt lat="50.32153" lon="3.40529">
        <ele>30.8995361</ele>
        <time>2011-08-21T08:47:59Z</time>
      </trkpt>
      <trkpt lat="50.32133" lon="3.40462">
        <ele>30.4188232</ele>
        <time>2011-08-21T08:48:06Z</time>
      </trkpt>
      <trkpt lat="50.32122" lon="3.40401">
        <ele>30.4188232</ele>
        <time>2011-08-21T08:48:12Z</time>
      </trkpt>
      <trkpt lat="50.32118" lon="3.40381">
        <ele>30.8995361</ele>
        <time>2011-08-21T08:48:14Z</time>
      </trkpt>
      <trkpt lat="50.32096" lon="3.40314">
        <ele>32.3415527</ele>
        <time>2011-08-21T08:48:21Z</time>
      </trkpt>
      <trkpt lat="50.32078" lon="3.40246">
        <ele>32.3415527</ele>
        <time>2011-08-21T08:48:28Z</time>
      </trkpt>
      <trkpt lat="50.32066" lon="3.40187">
        <ele>32.3415527</ele>
        <time>2011-08-21T08:48:34Z</time>
      </trkpt>
      <trkpt lat="50.3205" lon="3.40142">
        <ele>32.3415527</ele>
        <time>2011-08-21T08:48:39Z</time>
      </trkpt>
      <trkpt lat="50.32047" lon="3.40134">
        <ele>32.3415527</ele>
        <time>2011-08-21T08:48:40Z</time>
      </trkpt>
      <trkpt lat="50.32032" lon="3.4008">
        <ele>31.380127</ele>
        <time>2011-08-21T08:48:46Z</time>
      </trkpt>
      <trkpt lat="50.32018" lon="3.40044">
        <ele>31.8607178</ele>
        <time>2011-08-21T08:48:50Z</time>
      </trkpt>
      <trkpt lat="50.31994" lon="3.39956">
        <ele>30.8995361</ele>
        <time>2011-08-21T08:48:59Z</time>
      </trkpt>
      <trkpt lat="50.31964" lon="3.3985">
        <ele>30.8995361</ele>
        <time>2011-08-21T08:49:10Z</time>
      </trkpt>
      <trkpt lat="50.31935" lon="3.3979">
        <ele>29.9381104</ele>
        <time>2011-08-21T08:49:17Z</time>
      </trkpt>
      <trkpt lat="50.31895" lon="3.3971">
        <ele>30.4188232</ele>
        <time>2011-08-21T08:49:27Z</time>
      </trkpt>
      <trkpt lat="50.31884" lon="3.39687">
        <ele>31.8607178</ele>
        <time>2011-08-21T08:49:30Z</time>
      </trkpt>
      <trkpt lat="50.31882" lon="3.39653">
        <ele>33.3028564</ele>
        <time>2011-08-21T08:49:34Z</time>
      </trkpt>
      <trkpt lat="50.31883" lon="3.39629">
        <ele>33.3028564</ele>
        <time>2011-08-21T08:49:37Z</time>
      </trkpt>
      <trkpt lat="50.31884" lon="3.39615">
        <ele>33.3028564</ele>
        <time>2011-08-21T08:49:39Z</time>
      </trkpt>
      <trkpt lat="50.31888" lon="3.39611">
        <ele>33.3028564</ele>
        <time>2011-08-21T08:49:40Z</time>
      </trkpt>
      <trkpt lat="50.31915" lon="3.39595">
        <ele>33.3028564</ele>
        <time>2011-08-21T08:49:45Z</time>
      </trkpt>
      <trkpt lat="50.31937" lon="3.39581">
        <ele>33.7834473</ele>
        <time>2011-08-21T08:49:49Z</time>
      </trkpt>
      <trkpt lat="50.31952" lon="3.3957">
        <ele>34.744873</ele>
        <time>2011-08-21T08:49:53Z</time>
      </trkpt>
      <trkpt lat="50.31951" lon="3.39555">
        <ele>35.2254639</ele>
        <time>2011-08-21T08:49:56Z</time>
      </trkpt>
      <trkpt lat="50.31952" lon="3.39548">
        <ele>34.744873</ele>
        <time>2011-08-21T08:49:57Z</time>
      </trkpt>
      <trkpt lat="50.31944" lon="3.39477">
        <ele>34.2641602</ele>
        <time>2011-08-21T08:50:05Z</time>
      </trkpt>
      <trkpt lat="50.31931" lon="3.39426">
        <ele>34.744873</ele>
        <time>2011-08-21T08:50:11Z</time>
      </trkpt>
      <trkpt lat="50.31914" lon="3.39357">
        <ele>34.2641602</ele>
        <time>2011-08-21T08:50:19Z</time>
      </trkpt>
      <trkpt lat="50.31888" lon="3.39261">
        <ele>33.3028564</ele>
        <time>2011-08-21T08:50:30Z</time>
      </trkpt>
      <trkpt lat="50.31882" lon="3.39235">
        <ele>32.8222656</ele>
        <time>2011-08-21T08:50:33Z</time>
      </trkpt>
      <trkpt lat="50.31875" lon="3.39196">
        <ele>30.8995361</ele>
        <time>2011-08-21T08:50:37Z</time>
      </trkpt>
      <trkpt lat="50.31873" lon="3.39186">
        <ele>30.8995361</ele>
        <time>2011-08-21T08:50:38Z</time>
      </trkpt>
      <trkpt lat="50.31863" lon="3.39148">
        <ele>30.8995361</ele>
        <time>2011-08-21T08:50:42Z</time>
      </trkpt>
      <trkpt lat="50.31846" lon="3.39119">
        <ele>31.380127</ele>
        <time>2011-08-21T08:50:46Z</time>
      </trkpt>
      <trkpt lat="50.31836" lon="3.39106">
        <ele>31.8607178</ele>
        <time>2011-08-21T08:50:48Z</time>
      </trkpt>
      <trkpt lat="50.31828" lon="3.3907">
        <ele>33.3028564</ele>
        <time>2011-08-21T08:50:52Z</time>
      </trkpt>
      <trkpt lat="50.3183" lon="3.39054">
        <ele>33.3028564</ele>
        <time>2011-08-21T08:50:54Z</time>
      </trkpt>
      <trkpt lat="50.31826" lon="3.39014">
        <ele>32.3415527</ele>
        <time>2011-08-21T08:51:00Z</time>
      </trkpt>
      <trkpt lat="50.31805" lon="3.38942">
        <ele>30.8995361</ele>
        <time>2011-08-21T08:51:10Z</time>
      </trkpt>
      <trkpt lat="50.31791" lon="3.38882">
        <ele>30.4188232</ele>
        <time>2011-08-21T08:51:18Z</time>
      </trkpt>
      <trkpt lat="50.31774" lon="3.3882">
        <ele>29.9381104</ele>
        <time>2011-08-21T08:51:26Z</time>
      </trkpt>
      <trkpt lat="50.31765" lon="3.38789">
        <ele>29.9381104</ele>
        <time>2011-08-21T08:51:30Z</time>
      </trkpt>
      <trkpt lat="50.31743" lon="3.38727">
        <ele>29.4575195</ele>
        <time>2011-08-21T08:51:38Z</time>
      </trkpt>
      <trkpt lat="50.31716" lon="3.38653">
        <ele>29.4575195</ele>
        <time>2011-08-21T08:51:47Z</time>
      </trkpt>
      <trkpt lat="50.31692" lon="3.38595">
        <ele>28.0155029</ele>
        <time>2011-08-21T08:51:54Z</time>
      </trkpt>
      <trkpt lat="50.31659" lon="3.38528">
        <ele>28.4962158</ele>
        <time>2011-08-21T08:52:02Z</time>
      </trkpt>
      <trkpt lat="50.31618" lon="3.38453">
        <ele>28.9769287</ele>
        <time>2011-08-21T08:52:11Z</time>
      </trkpt>
      <trkpt lat="50.31576" lon="3.38386">
        <ele>29.9381104</ele>
        <time>2011-08-21T08:52:20Z</time>
      </trkpt>
      <trkpt lat="50.31544" lon="3.38336">
        <ele>29.9381104</ele>
        <time>2011-08-21T08:52:27Z</time>
      </trkpt>
      <trkpt lat="50.31494" lon="3.38259">
        <ele>30.4188232</ele>
        <time>2011-08-21T08:52:38Z</time>
      </trkpt>
      <trkpt lat="50.31466" lon="3.38215">
        <ele>30.4188232</ele>
        <time>2011-08-21T08:52:44Z</time>
      </trkpt>
      <trkpt lat="50.31439" lon="3.38159">
        <ele>30.4188232</ele>
        <time>2011-08-21T08:52:51Z</time>
      </trkpt>
      <trkpt lat="50.31407" lon="3.38111">
        <ele>30.4188232</ele>
        <time>2011-08-21T08:52:58Z</time>
      </trkpt>
      <trkpt lat="50.31372" lon="3.38052">
        <ele>30.4188232</ele>
        <time>2011-08-21T08:53:06Z</time>
      </trkpt>
      <trkpt lat="50.31338" lon="3.37992">
        <ele>30.4188232</ele>
        <time>2011-08-21T08:53:14Z</time>
      </trkpt>
      <trkpt lat="50.31306" lon="3.3793">
        <ele>29.9381104</ele>
        <time>2011-08-21T08:53:22Z</time>
      </trkpt>
      <trkpt lat="50.31271" lon="3.37857">
        <ele>29.9381104</ele>
        <time>2011-08-21T08:53:31Z</time>
      </trkpt>
      <trkpt lat="50.31242" lon="3.3779">
        <ele>29.9381104</ele>
        <time>2011-08-21T08:53:39Z</time>
      </trkpt>
      <trkpt lat="50.31212" lon="3.37721">
        <ele>30.4188232</ele>
        <time>2011-08-21T08:53:47Z</time>
      </trkpt>
      <trkpt lat="50.31188" lon="3.37673">
        <ele>30.4188232</ele>
        <time>2011-08-21T08:53:53Z</time>
      </trkpt>
      <trkpt lat="50.31169" lon="3.3762">
        <ele>30.4188232</ele>
        <time>2011-08-21T08:53:59Z</time>
      </trkpt>
      <trkpt lat="50.31144" lon="3.37539">
        <ele>30.8995361</ele>
        <time>2011-08-21T08:54:08Z</time>
      </trkpt>
      <trkpt lat="50.3112" lon="3.37453">
        <ele>30.8995361</ele>
        <time>2011-08-21T08:54:17Z</time>
      </trkpt>
      <trkpt lat="50.31098" lon="3.37378">
        <ele>30.8995361</ele>
        <time>2011-08-21T08:54:25Z</time>
      </trkpt>
      <trkpt lat="50.31091" lon="3.37347">
        <ele>30.8995361</ele>
        <time>2011-08-21T08:54:30Z</time>
      </trkpt>
      <trkpt lat="50.31089" lon="3.37339">
        <ele>31.380127</ele>
        <time>2011-08-21T08:54:35Z</time>
      </trkpt>
      <trkpt lat="50.31083" lon="3.37325">
        <ele>33.7834473</ele>
        <time>2011-08-21T09:04:33Z</time>
      </trkpt>
      <trkpt lat="50.31083" lon="3.37322">
        <ele>33.7834473</ele>
        <time>2011-08-21T09:04:34Z</time>
      </trkpt>
      <trkpt lat="50.3108" lon="3.37308">
        <ele>33.7834473</ele>
        <time>2011-08-21T09:04:37Z</time>
      </trkpt>
      <trkpt lat="50.31077" lon="3.37296">
        <ele>33.7834473</ele>
        <time>2011-08-21T09:04:40Z</time>
      </trkpt>
      <trkpt lat="50.31076" lon="3.37291">
        <ele>33.7834473</ele>
        <time>2011-08-21T09:04:41Z</time>
      </trkpt>
      <trkpt lat="50.31068" lon="3.37256">
        <ele>32.8222656</ele>
        <time>2011-08-21T09:04:48Z</time>
      </trkpt>
      <trkpt lat="50.31058" lon="3.37203">
        <ele>32.3415527</ele>
        <time>2011-08-21T09:04:56Z</time>
      </trkpt>
      <trkpt lat="50.31053" lon="3.37179">
        <ele>32.8222656</ele>
        <time>2011-08-21T09:04:59Z</time>
      </trkpt>
      <trkpt lat="50.31046" lon="3.37131">
        <ele>33.3028564</ele>
        <time>2011-08-21T09:05:04Z</time>
      </trkpt>
      <trkpt lat="50.31042" lon="3.37112">
        <ele>33.7834473</ele>
        <time>2011-08-21T09:05:06Z</time>
      </trkpt>
      <trkpt lat="50.3104" lon="3.37103">
        <ele>33.7834473</ele>
        <time>2011-08-21T09:05:07Z</time>
      </trkpt>
      <trkpt lat="50.31021" lon="3.37013">
        <ele>32.8222656</ele>
        <time>2011-08-21T09:05:17Z</time>
      </trkpt>
      <trkpt lat="50.31" lon="3.36918">
        <ele>32.3415527</ele>
        <time>2011-08-21T09:05:27Z</time>
      </trkpt>
      <trkpt lat="50.30989" lon="3.36859">
        <ele>32.3415527</ele>
        <time>2011-08-21T09:05:33Z</time>
      </trkpt>
      <trkpt lat="50.30982" lon="3.3682">
        <ele>32.3415527</ele>
        <time>2011-08-21T09:05:37Z</time>
      </trkpt>
      <trkpt lat="50.30984" lon="3.36769">
        <ele>31.8607178</ele>
        <time>2011-08-21T09:05:42Z</time>
      </trkpt>
      <trkpt lat="50.30978" lon="3.36732">
        <ele>31.8607178</ele>
        <time>2011-08-21T09:05:46Z</time>
      </trkpt>
      <trkpt lat="50.3097" lon="3.36713">
        <ele>31.8607178</ele>
        <time>2011-08-21T09:05:48Z</time>
      </trkpt>
      <trkpt lat="50.30939" lon="3.36661">
        <ele>31.380127</ele>
        <time>2011-08-21T09:05:55Z</time>
      </trkpt>
      <trkpt lat="50.30921" lon="3.3663">
        <ele>31.380127</ele>
        <time>2011-08-21T09:05:59Z</time>
      </trkpt>
      <trkpt lat="50.30902" lon="3.36565">
        <ele>31.380127</ele>
        <time>2011-08-21T09:06:06Z</time>
      </trkpt>
      <trkpt lat="50.30879" lon="3.36486">
        <ele>31.8607178</ele>
        <time>2011-08-21T09:06:15Z</time>
      </trkpt>
      <trkpt lat="50.30856" lon="3.36408">
        <ele>31.380127</ele>
        <time>2011-08-21T09:06:24Z</time>
      </trkpt>
      <trkpt lat="50.30836" lon="3.36348">
        <ele>31.380127</ele>
        <time>2011-08-21T09:06:31Z</time>
      </trkpt>
      <trkpt lat="50.30815" lon="3.3628">
        <ele>31.380127</ele>
        <time>2011-08-21T09:06:39Z</time>
      </trkpt>
      <trkpt lat="50.3079" lon="3.36206">
        <ele>31.8607178</ele>
        <time>2011-08-21T09:06:48Z</time>
      </trkpt>
      <trkpt lat="50.30766" lon="3.36142">
        <ele>31.8607178</ele>
        <time>2011-08-21T09:06:56Z</time>
      </trkpt>
      <trkpt lat="50.30742" lon="3.3608">
        <ele>31.8607178</ele>
        <time>2011-08-21T09:07:04Z</time>
      </trkpt>
      <trkpt lat="50.30713" lon="3.3601">
        <ele>32.3415527</ele>
        <time>2011-08-21T09:07:13Z</time>
      </trkpt>
      <trkpt lat="50.30679" lon="3.35934">
        <ele>32.8222656</ele>
        <time>2011-08-21T09:07:23Z</time>
      </trkpt>
      <trkpt lat="50.3065" lon="3.35872">
        <ele>32.3415527</ele>
        <time>2011-08-21T09:07:31Z</time>
      </trkpt>
      <trkpt lat="50.30616" lon="3.35802">
        <ele>34.2641602</ele>
        <time>2011-08-21T09:07:40Z</time>
      </trkpt>
      <trkpt lat="50.30597" lon="3.35766">
        <ele>35.2254639</ele>
        <time>2011-08-21T09:07:45Z</time>
      </trkpt>
      <trkpt lat="50.30561" lon="3.357">
        <ele>34.744873</ele>
        <time>2011-08-21T09:07:54Z</time>
      </trkpt>
      <trkpt lat="50.30518" lon="3.35627">
        <ele>33.7834473</ele>
        <time>2011-08-21T09:08:04Z</time>
      </trkpt>
      <trkpt lat="50.30478" lon="3.35562">
        <ele>33.7834473</ele>
        <time>2011-08-21T09:08:13Z</time>
      </trkpt>
      <trkpt lat="50.30434" lon="3.35491">
        <ele>33.3028564</ele>
        <time>2011-08-21T09:08:23Z</time>
      </trkpt>
      <trkpt lat="50.30395" lon="3.35428">
        <ele>33.3028564</ele>
        <time>2011-08-21T09:08:32Z</time>
      </trkpt>
      <trkpt lat="50.30364" lon="3.35376">
        <ele>33.3028564</ele>
        <time>2011-08-21T09:08:39Z</time>
      </trkpt>
      <trkpt lat="50.30344" lon="3.35341">
        <ele>32.8222656</ele>
        <time>2011-08-21T09:08:44Z</time>
      </trkpt>
      <trkpt lat="50.30328" lon="3.35313">
        <ele>33.3028564</ele>
        <time>2011-08-21T09:08:48Z</time>
      </trkpt>
      <trkpt lat="50.30293" lon="3.35259">
        <ele>33.3028564</ele>
        <time>2011-08-21T09:08:56Z</time>
      </trkpt>
      <trkpt lat="50.30258" lon="3.35201">
        <ele>32.8222656</ele>
        <time>2011-08-21T09:09:04Z</time>
      </trkpt>
      <trkpt lat="50.30219" lon="3.35135">
        <ele>32.8222656</ele>
        <time>2011-08-21T09:09:13Z</time>
      </trkpt>
      <trkpt lat="50.30188" lon="3.35083">
        <ele>33.7834473</ele>
        <time>2011-08-21T09:09:20Z</time>
      </trkpt>
      <trkpt lat="50.30164" lon="3.35043">
        <ele>33.7834473</ele>
        <time>2011-08-21T09:09:26Z</time>
      </trkpt>
      <trkpt lat="50.30138" lon="3.35002">
        <ele>34.2641602</ele>
        <time>2011-08-21T09:09:32Z</time>
      </trkpt>
      <trkpt lat="50.30106" lon="3.34949">
        <ele>33.7834473</ele>
        <time>2011-08-21T09:09:39Z</time>
      </trkpt>
      <trkpt lat="50.30063" lon="3.34877">
        <ele>33.7834473</ele>
        <time>2011-08-21T09:09:49Z</time>
      </trkpt>
      <trkpt lat="50.3002" lon="3.34805">
        <ele>33.3028564</ele>
        <time>2011-08-21T09:09:59Z</time>
      </trkpt>
      <trkpt lat="50.29976" lon="3.34732">
        <ele>32.8222656</ele>
        <time>2011-08-21T09:10:09Z</time>
      </trkpt>
      <trkpt lat="50.29937" lon="3.34662">
        <ele>32.8222656</ele>
        <time>2011-08-21T09:10:18Z</time>
      </trkpt>
      <trkpt lat="50.29903" lon="3.34604">
        <ele>33.3028564</ele>
        <time>2011-08-21T09:10:26Z</time>
      </trkpt>
      <trkpt lat="50.29864" lon="3.34539">
        <ele>34.2641602</ele>
        <time>2011-08-21T09:10:35Z</time>
      </trkpt>
      <trkpt lat="50.29844" lon="3.34501">
        <ele>34.744873</ele>
        <time>2011-08-21T09:10:41Z</time>
      </trkpt>
      <trkpt lat="50.29817" lon="3.34446">
        <ele>34.2641602</ele>
        <time>2011-08-21T09:10:49Z</time>
      </trkpt>
      <trkpt lat="50.2981" lon="3.34431">
        <ele>34.2641602</ele>
        <time>2011-08-21T09:10:51Z</time>
      </trkpt>
      <trkpt lat="50.298" lon="3.34396">
        <ele>33.7834473</ele>
        <time>2011-08-21T09:10:55Z</time>
      </trkpt>
      <trkpt lat="50.29777" lon="3.34339">
        <ele>33.7834473</ele>
        <time>2011-08-21T09:11:02Z</time>
      </trkpt>
      <trkpt lat="50.2975" lon="3.34281">
        <ele>32.8222656</ele>
        <time>2011-08-21T09:11:09Z</time>
      </trkpt>
      <trkpt lat="50.29741" lon="3.34264">
        <ele>32.3415527</ele>
        <time>2011-08-21T09:11:11Z</time>
      </trkpt>
      <trkpt lat="50.29717" lon="3.3422">
        <ele>31.8607178</ele>
        <time>2011-08-21T09:11:17Z</time>
      </trkpt>
      <trkpt lat="50.29692" lon="3.34175">
        <ele>31.380127</ele>
        <time>2011-08-21T09:11:23Z</time>
      </trkpt>
      <trkpt lat="50.29646" lon="3.34098">
        <ele>31.8607178</ele>
        <time>2011-08-21T09:11:34Z</time>
      </trkpt>
      <trkpt lat="50.29606" lon="3.34039">
        <ele>31.8607178</ele>
        <time>2011-08-21T09:11:43Z</time>
      </trkpt>
      <trkpt lat="50.29557" lon="3.33971">
        <ele>31.8607178</ele>
        <time>2011-08-21T09:11:54Z</time>
      </trkpt>
      <trkpt lat="50.29508" lon="3.33903">
        <ele>31.8607178</ele>
        <time>2011-08-21T09:12:05Z</time>
      </trkpt>
      <trkpt lat="50.29448" lon="3.33822">
        <ele>31.380127</ele>
        <time>2011-08-21T09:12:18Z</time>
      </trkpt>
      <trkpt lat="50.29388" lon="3.3374">
        <ele>31.380127</ele>
        <time>2011-08-21T09:12:31Z</time>
      </trkpt>
      <trkpt lat="50.29341" lon="3.33675">
        <ele>31.380127</ele>
        <time>2011-08-21T09:12:41Z</time>
      </trkpt>
      <trkpt lat="50.29307" lon="3.33637">
        <ele>32.8222656</ele>
        <time>2011-08-21T09:12:48Z</time>
      </trkpt>
      <trkpt lat="50.29267" lon="3.33581">
        <ele>32.8222656</ele>
        <time>2011-08-21T09:12:56Z</time>
      </trkpt>
      <trkpt lat="50.29248" lon="3.33548">
        <ele>31.8607178</ele>
        <time>2011-08-21T09:13:00Z</time>
      </trkpt>
      <trkpt lat="50.29217" lon="3.33505">
        <ele>31.8607178</ele>
        <time>2011-08-21T09:13:06Z</time>
      </trkpt>
      <trkpt lat="50.29172" lon="3.33442">
        <ele>32.3415527</ele>
        <time>2011-08-21T09:13:15Z</time>
      </trkpt>
      <trkpt lat="50.29126" lon="3.33381">
        <ele>32.3415527</ele>
        <time>2011-08-21T09:13:24Z</time>
      </trkpt>
      <trkpt lat="50.29087" lon="3.33328">
        <ele>32.3415527</ele>
        <time>2011-08-21T09:13:32Z</time>
      </trkpt>
      <trkpt lat="50.29047" lon="3.33274">
        <ele>32.8222656</ele>
        <time>2011-08-21T09:13:41Z</time>
      </trkpt>
      <trkpt lat="50.29017" lon="3.33233">
        <ele>33.3028564</ele>
        <time>2011-08-21T09:13:49Z</time>
      </trkpt>
      <trkpt lat="50.28984" lon="3.33185">
        <ele>32.8222656</ele>
        <time>2011-08-21T09:13:58Z</time>
      </trkpt>
      <trkpt lat="50.28952" lon="3.3314">
        <ele>32.8222656</ele>
        <time>2011-08-21T09:14:05Z</time>
      </trkpt>
      <trkpt lat="50.28908" lon="3.3308">
        <ele>33.3028564</ele>
        <time>2011-08-21T09:14:14Z</time>
      </trkpt>
      <trkpt lat="50.28888" lon="3.33054">
        <ele>33.3028564</ele>
        <time>2011-08-21T09:14:18Z</time>
      </trkpt>
      <trkpt lat="50.28861" lon="3.33033">
        <ele>33.7834473</ele>
        <time>2011-08-21T09:14:23Z</time>
      </trkpt>
      <trkpt lat="50.28856" lon="3.33027">
        <ele>33.3028564</ele>
        <time>2011-08-21T09:14:24Z</time>
      </trkpt>
      <trkpt lat="50.28842" lon="3.33009">
        <ele>33.3028564</ele>
        <time>2011-08-21T09:14:27Z</time>
      </trkpt>
      <trkpt lat="50.2881" lon="3.32964">
        <ele>32.8222656</ele>
        <time>2011-08-21T09:14:34Z</time>
      </trkpt>
      <trkpt lat="50.28802" lon="3.32951">
        <ele>32.3415527</ele>
        <time>2011-08-21T09:14:36Z</time>
      </trkpt>
      <trkpt lat="50.28791" lon="3.32926">
        <ele>32.3415527</ele>
        <time>2011-08-21T09:14:39Z</time>
      </trkpt>
      <trkpt lat="50.28762" lon="3.32879">
        <ele>32.3415527</ele>
        <time>2011-08-21T09:14:45Z</time>
      </trkpt>
      <trkpt lat="50.28728" lon="3.32833">
        <ele>32.3415527</ele>
        <time>2011-08-21T09:14:52Z</time>
      </trkpt>
      <trkpt lat="50.28697" lon="3.3279">
        <ele>32.3415527</ele>
        <time>2011-08-21T09:14:59Z</time>
      </trkpt>
      <trkpt lat="50.28651" lon="3.32719">
        <ele>32.8222656</ele>
        <time>2011-08-21T09:15:10Z</time>
      </trkpt>
      <trkpt lat="50.28612" lon="3.32654">
        <ele>33.3028564</ele>
        <time>2011-08-21T09:15:20Z</time>
      </trkpt>
      <trkpt lat="50.28582" lon="3.32598">
        <ele>33.7834473</ele>
        <time>2011-08-21T09:15:28Z</time>
      </trkpt>
      <trkpt lat="50.28548" lon="3.3253">
        <ele>34.744873</ele>
        <time>2011-08-21T09:15:37Z</time>
      </trkpt>
      <trkpt lat="50.28525" lon="3.32484">
        <ele>34.2641602</ele>
        <time>2011-08-21T09:15:43Z</time>
      </trkpt>
      <trkpt lat="50.28485" lon="3.32396">
        <ele>34.2641602</ele>
        <time>2011-08-21T09:15:54Z</time>
      </trkpt>
      <trkpt lat="50.28462" lon="3.32341">
        <ele>34.744873</ele>
        <time>2011-08-21T09:16:01Z</time>
      </trkpt>
      <trkpt lat="50.28443" lon="3.32289">
        <ele>34.2641602</ele>
        <time>2011-08-21T09:16:07Z</time>
      </trkpt>
      <trkpt lat="50.28424" lon="3.32229">
        <ele>34.2641602</ele>
        <time>2011-08-21T09:16:14Z</time>
      </trkpt>
      <trkpt lat="50.28405" lon="3.32166">
        <ele>33.7834473</ele>
        <time>2011-08-21T09:16:21Z</time>
      </trkpt>
      <trkpt lat="50.28373" lon="3.32076">
        <ele>33.7834473</ele>
        <time>2011-08-21T09:16:31Z</time>
      </trkpt>
      <trkpt lat="50.28363" lon="3.3205">
        <ele>33.7834473</ele>
        <time>2011-08-21T09:16:34Z</time>
      </trkpt>
      <trkpt lat="50.2834" lon="3.31988">
        <ele>34.2641602</ele>
        <time>2011-08-21T09:16:41Z</time>
      </trkpt>
      <trkpt lat="50.28314" lon="3.31916">
        <ele>33.7834473</ele>
        <time>2011-08-21T09:16:49Z</time>
      </trkpt>
      <trkpt lat="50.28311" lon="3.31907">
        <ele>33.7834473</ele>
        <time>2011-08-21T09:16:50Z</time>
      </trkpt>
      <trkpt lat="50.28303" lon="3.31861">
        <ele>33.7834473</ele>
        <time>2011-08-21T09:16:55Z</time>
      </trkpt>
      <trkpt lat="50.28295" lon="3.31836">
        <ele>33.7834473</ele>
        <time>2011-08-21T09:16:58Z</time>
      </trkpt>
      <trkpt lat="50.28282" lon="3.318">
        <ele>34.2641602</ele>
        <time>2011-08-21T09:17:02Z</time>
      </trkpt>
      <trkpt lat="50.28269" lon="3.31775">
        <ele>34.2641602</ele>
        <time>2011-08-21T09:17:06Z</time>
      </trkpt>
      <trkpt lat="50.28266" lon="3.31768">
        <ele>34.2641602</ele>
        <time>2011-08-21T09:17:07Z</time>
      </trkpt>
      <trkpt lat="50.28249" lon="3.31713">
        <ele>34.744873</ele>
        <time>2011-08-21T09:17:14Z</time>
      </trkpt>
      <trkpt lat="50.28228" lon="3.31675">
        <ele>33.7834473</ele>
        <time>2011-08-21T09:17:20Z</time>
      </trkpt>
      <trkpt lat="50.28224" lon="3.31669">
        <ele>33.3028564</ele>
        <time>2011-08-21T09:17:21Z</time>
      </trkpt>
      <trkpt lat="50.28213" lon="3.31637">
        <ele>32.8222656</ele>
        <time>2011-08-21T09:17:25Z</time>
      </trkpt>
      <trkpt lat="50.28182" lon="3.3155">
        <ele>32.8222656</ele>
        <time>2011-08-21T09:17:35Z</time>
      </trkpt>
      <trkpt lat="50.28151" lon="3.31473">
        <ele>32.8222656</ele>
        <time>2011-08-21T09:17:44Z</time>
      </trkpt>
      <trkpt lat="50.28118" lon="3.31398">
        <ele>32.8222656</ele>
        <time>2011-08-21T09:17:53Z</time>
      </trkpt>
      <trkpt lat="50.28079" lon="3.31322">
        <ele>32.8222656</ele>
        <time>2011-08-21T09:18:02Z</time>
      </trkpt>
      <trkpt lat="50.28046" lon="3.31262">
        <ele>32.8222656</ele>
        <time>2011-08-21T09:18:09Z</time>
      </trkpt>
      <trkpt lat="50.28004" lon="3.31188">
        <ele>31.8607178</ele>
        <time>2011-08-21T09:18:18Z</time>
      </trkpt>
      <trkpt lat="50.27964" lon="3.31126">
        <ele>32.3415527</ele>
        <time>2011-08-21T09:18:26Z</time>
      </trkpt>
      <trkpt lat="50.2792" lon="3.31062">
        <ele>32.3415527</ele>
        <time>2011-08-21T09:18:35Z</time>
      </trkpt>
      <trkpt lat="50.27882" lon="3.31012">
        <ele>32.3415527</ele>
        <time>2011-08-21T09:18:43Z</time>
      </trkpt>
      <trkpt lat="50.27838" lon="3.3096">
        <ele>32.3415527</ele>
        <time>2011-08-21T09:18:52Z</time>
      </trkpt>
      <trkpt lat="50.27792" lon="3.30908">
        <ele>32.8222656</ele>
        <time>2011-08-21T09:19:01Z</time>
      </trkpt>
      <trkpt lat="50.27757" lon="3.30873">
        <ele>32.8222656</ele>
        <time>2011-08-21T09:19:08Z</time>
      </trkpt>
      <trkpt lat="50.27714" lon="3.30836">
        <ele>31.8607178</ele>
        <time>2011-08-21T09:19:16Z</time>
      </trkpt>
      <trkpt lat="50.27652" lon="3.30783">
        <ele>31.380127</ele>
        <time>2011-08-21T09:19:27Z</time>
      </trkpt>
      <trkpt lat="50.27605" lon="3.30748">
        <ele>31.8607178</ele>
        <time>2011-08-21T09:19:35Z</time>
      </trkpt>
      <trkpt lat="50.27556" lon="3.30713">
        <ele>31.8607178</ele>
        <time>2011-08-21T09:19:43Z</time>
      </trkpt>
      <trkpt lat="50.27502" lon="3.30676">
        <ele>34.2641602</ele>
        <time>2011-08-21T09:19:52Z</time>
      </trkpt>
      <trkpt lat="50.27459" lon="3.30648">
        <ele>35.2254639</ele>
        <time>2011-08-21T09:19:59Z</time>
      </trkpt>
      <trkpt lat="50.27404" lon="3.30611">
        <ele>36.6674805</ele>
        <time>2011-08-21T09:20:08Z</time>
      </trkpt>
      <trkpt lat="50.2736" lon="3.30584">
        <ele>37.1480713</ele>
        <time>2011-08-21T09:20:15Z</time>
      </trkpt>
      <trkpt lat="50.27296" lon="3.30543">
        <ele>37.6286621</ele>
        <time>2011-08-21T09:20:25Z</time>
      </trkpt>
      <trkpt lat="50.27241" lon="3.3051">
        <ele>37.1480713</ele>
        <time>2011-08-21T09:20:34Z</time>
      </trkpt>
      <trkpt lat="50.27178" lon="3.30473">
        <ele>36.6674805</ele>
        <time>2011-08-21T09:20:44Z</time>
      </trkpt>
      <trkpt lat="50.27116" lon="3.30434">
        <ele>37.6286621</ele>
        <time>2011-08-21T09:20:54Z</time>
      </trkpt>
      <trkpt lat="50.27067" lon="3.30402">
        <ele>39.0706787</ele>
        <time>2011-08-21T09:21:02Z</time>
      </trkpt>
      <trkpt lat="50.27011" lon="3.30368">
        <ele>38.109375</ele>
        <time>2011-08-21T09:21:11Z</time>
      </trkpt>
      <trkpt lat="50.26948" lon="3.30333">
        <ele>35.7060547</ele>
        <time>2011-08-21T09:21:21Z</time>
      </trkpt>
      <trkpt lat="50.269" lon="3.30305">
        <ele>37.1480713</ele>
        <time>2011-08-21T09:21:29Z</time>
      </trkpt>
      <trkpt lat="50.26861" lon="3.30282">
        <ele>37.1480713</ele>
        <time>2011-08-21T09:21:36Z</time>
      </trkpt>
      <trkpt lat="50.2682" lon="3.30254">
        <ele>38.109375</ele>
        <time>2011-08-21T09:21:43Z</time>
      </trkpt>
      <trkpt lat="50.26789" lon="3.30224">
        <ele>39.0706787</ele>
        <time>2011-08-21T09:21:49Z</time>
      </trkpt>
      <trkpt lat="50.26747" lon="3.30196">
        <ele>38.5900879</ele>
        <time>2011-08-21T09:21:56Z</time>
      </trkpt>
      <trkpt lat="50.26702" lon="3.3017">
        <ele>38.109375</ele>
        <time>2011-08-21T09:22:04Z</time>
      </trkpt>
      <trkpt lat="50.26654" lon="3.30142">
        <ele>37.6286621</ele>
        <time>2011-08-21T09:22:13Z</time>
      </trkpt>
      <trkpt lat="50.2662" lon="3.30131">
        <ele>37.1480713</ele>
        <time>2011-08-21T09:22:19Z</time>
      </trkpt>
      <trkpt lat="50.26585" lon="3.30116">
        <ele>37.1480713</ele>
        <time>2011-08-21T09:22:25Z</time>
      </trkpt>
      <trkpt lat="50.26535" lon="3.3009">
        <ele>37.6286621</ele>
        <time>2011-08-21T09:22:34Z</time>
      </trkpt>
      <trkpt lat="50.26493" lon="3.30072">
        <ele>38.109375</ele>
        <time>2011-08-21T09:22:42Z</time>
      </trkpt>
      <trkpt lat="50.26445" lon="3.30055">
        <ele>38.109375</ele>
        <time>2011-08-21T09:22:51Z</time>
      </trkpt>
      <trkpt lat="50.2641" lon="3.30042">
        <ele>38.109375</ele>
        <time>2011-08-21T09:22:58Z</time>
      </trkpt>
      <trkpt lat="50.26356" lon="3.30026">
        <ele>38.109375</ele>
        <time>2011-08-21T09:23:08Z</time>
      </trkpt>
      <trkpt lat="50.26306" lon="3.30015">
        <ele>37.6286621</ele>
        <time>2011-08-21T09:23:17Z</time>
      </trkpt>
      <trkpt lat="50.26249" lon="3.30003">
        <ele>37.6286621</ele>
        <time>2011-08-21T09:23:27Z</time>
      </trkpt>
      <trkpt lat="50.26197" lon="3.30003">
        <ele>37.6286621</ele>
        <time>2011-08-21T09:23:36Z</time>
      </trkpt>
      <trkpt lat="50.26152" lon="3.30014">
        <ele>37.1480713</ele>
        <time>2011-08-21T09:23:44Z</time>
      </trkpt>
      <trkpt lat="50.26107" lon="3.30035">
        <ele>37.1480713</ele>
        <time>2011-08-21T09:23:52Z</time>
      </trkpt>
      <trkpt lat="50.26066" lon="3.30061">
        <ele>37.6286621</ele>
        <time>2011-08-21T09:23:59Z</time>
      </trkpt>
      <trkpt lat="50.26009" lon="3.30101">
        <ele>37.1480713</ele>
        <time>2011-08-21T09:24:09Z</time>
      </trkpt>
      <trkpt lat="50.25969" lon="3.30128">
        <ele>35.7060547</ele>
        <time>2011-08-21T09:24:16Z</time>
      </trkpt>
      <trkpt lat="50.25941" lon="3.30148">
        <ele>35.2254639</ele>
        <time>2011-08-21T09:24:21Z</time>
      </trkpt>
      <trkpt lat="50.25896" lon="3.30181">
        <ele>34.744873</ele>
        <time>2011-08-21T09:24:29Z</time>
      </trkpt>
      <trkpt lat="50.25864" lon="3.30204">
        <ele>34.744873</ele>
        <time>2011-08-21T09:24:34Z</time>
      </trkpt>
      <trkpt lat="50.25816" lon="3.30238">
        <ele>34.744873</ele>
        <time>2011-08-21T09:24:41Z</time>
      </trkpt>
      <trkpt lat="50.25774" lon="3.30267">
        <ele>34.744873</ele>
        <time>2011-08-21T09:24:47Z</time>
      </trkpt>
      <trkpt lat="50.25727" lon="3.30301">
        <ele>35.2254639</ele>
        <time>2011-08-21T09:24:54Z</time>
      </trkpt>
      <trkpt lat="50.25681" lon="3.30336">
        <ele>36.1867676</ele>
        <time>2011-08-21T09:25:01Z</time>
      </trkpt>
      <trkpt lat="50.25636" lon="3.30366">
        <ele>37.1480713</ele>
        <time>2011-08-21T09:25:08Z</time>
      </trkpt>
      <trkpt lat="50.25599" lon="3.30392">
        <ele>37.1480713</ele>
        <time>2011-08-21T09:25:14Z</time>
      </trkpt>
      <trkpt lat="50.25558" lon="3.30411">
        <ele>37.1480713</ele>
        <time>2011-08-21T09:25:21Z</time>
      </trkpt>
      <trkpt lat="50.25548" lon="3.30413">
        <ele>37.6286621</ele>
        <time>2011-08-21T09:25:23Z</time>
      </trkpt>
      <trkpt lat="50.25539" lon="3.30413">
        <ele>37.1480713</ele>
        <time>2011-08-21T09:25:25Z</time>
      </trkpt>
      <trkpt lat="50.25528" lon="3.30425">
        <ele>36.6674805</ele>
        <time>2011-08-21T09:25:29Z</time>
      </trkpt>
      <trkpt lat="50.25526" lon="3.3043">
        <ele>36.6674805</ele>
        <time>2011-08-21T09:25:30Z</time>
      </trkpt>
      <trkpt lat="50.2552" lon="3.30483">
        <ele>35.2254639</ele>
        <time>2011-08-21T09:25:37Z</time>
      </trkpt>
      <trkpt lat="50.25514" lon="3.30527">
        <ele>36.1867676</ele>
        <time>2011-08-21T09:25:43Z</time>
      </trkpt>
      <trkpt lat="50.25504" lon="3.30545">
        <ele>37.1480713</ele>
        <time>2011-08-21T09:25:47Z</time>
      </trkpt>
      <trkpt lat="50.25497" lon="3.30546">
        <ele>37.1480713</ele>
        <time>2011-08-21T09:25:49Z</time>
      </trkpt>
      <trkpt lat="50.25468" lon="3.30542">
        <ele>37.1480713</ele>
        <time>2011-08-21T09:25:56Z</time>
      </trkpt>
      <trkpt lat="50.25441" lon="3.30535">
        <ele>37.1480713</ele>
        <time>2011-08-21T09:26:01Z</time>
      </trkpt>
      <trkpt lat="50.25404" lon="3.30514">
        <ele>37.6286621</ele>
        <time>2011-08-21T09:26:08Z</time>
      </trkpt>
      <trkpt lat="50.25365" lon="3.3049">
        <ele>40.0321045</ele>
        <time>2011-08-21T09:26:16Z</time>
      </trkpt>
      <trkpt lat="50.25345" lon="3.30479">
        <ele>40.0321045</ele>
        <time>2011-08-21T09:26:21Z</time>
      </trkpt>
      <trkpt lat="50.25337" lon="3.30483">
        <ele>39.5512695</ele>
        <time>2011-08-21T09:26:25Z</time>
      </trkpt>
      <trkpt lat="50.25336" lon="3.30488">
        <ele>39.0706787</ele>
        <time>2011-08-21T09:26:26Z</time>
      </trkpt>
      <trkpt lat="50.25326" lon="3.3053">
        <ele>36.6674805</ele>
        <time>2011-08-21T09:26:31Z</time>
      </trkpt>
      <trkpt lat="50.25308" lon="3.30574">
        <ele>36.1867676</ele>
        <time>2011-08-21T09:26:36Z</time>
      </trkpt>
      <trkpt lat="50.25284" lon="3.30602">
        <ele>36.1867676</ele>
        <time>2011-08-21T09:26:41Z</time>
      </trkpt>
      <trkpt lat="50.25259" lon="3.30609">
        <ele>36.1867676</ele>
        <time>2011-08-21T09:26:45Z</time>
      </trkpt>
      <trkpt lat="50.25247" lon="3.30607">
        <ele>36.1867676</ele>
        <time>2011-08-21T09:26:47Z</time>
      </trkpt>
      <trkpt lat="50.25189" lon="3.30582">
        <ele>36.6674805</ele>
        <time>2011-08-21T09:26:57Z</time>
      </trkpt>
      <trkpt lat="50.2514" lon="3.3055">
        <ele>36.6674805</ele>
        <time>2011-08-21T09:27:06Z</time>
      </trkpt>
      <trkpt lat="50.25113" lon="3.30534">
        <ele>36.6674805</ele>
        <time>2011-08-21T09:27:11Z</time>
      </trkpt>
      <trkpt lat="50.25056" lon="3.30498">
        <ele>36.1867676</ele>
        <time>2011-08-21T09:27:21Z</time>
      </trkpt>
      <trkpt lat="50.25015" lon="3.30472">
        <ele>36.1867676</ele>
        <time>2011-08-21T09:27:28Z</time>
      </trkpt>
      <trkpt lat="50.24975" lon="3.30447">
        <ele>35.7060547</ele>
        <time>2011-08-21T09:27:35Z</time>
      </trkpt>
      <trkpt lat="50.24924" lon="3.30414">
        <ele>36.1867676</ele>
        <time>2011-08-21T09:27:44Z</time>
      </trkpt>
      <trkpt lat="50.24873" lon="3.30383">
        <ele>35.2254639</ele>
        <time>2011-08-21T09:27:53Z</time>
      </trkpt>
      <trkpt lat="50.24833" lon="3.30357">
        <ele>35.7060547</ele>
        <time>2011-08-21T09:28:00Z</time>
      </trkpt>
      <trkpt lat="50.2481" lon="3.30342">
        <ele>35.7060547</ele>
        <time>2011-08-21T09:28:05Z</time>
      </trkpt>
      <trkpt lat="50.24788" lon="3.30328">
        <ele>36.1867676</ele>
        <time>2011-08-21T09:28:11Z</time>
      </trkpt>
      <trkpt lat="50.24753" lon="3.30309">
        <ele>36.1867676</ele>
        <time>2011-08-21T09:28:18Z</time>
      </trkpt>
      <trkpt lat="50.24742" lon="3.30304">
        <ele>36.1867676</ele>
        <time>2011-08-21T09:28:20Z</time>
      </trkpt>
      <trkpt lat="50.24691" lon="3.30289">
        <ele>36.1867676</ele>
        <time>2011-08-21T09:28:29Z</time>
      </trkpt>
      <trkpt lat="50.24658" lon="3.30288">
        <ele>36.1867676</ele>
        <time>2011-08-21T09:28:35Z</time>
      </trkpt>
      <trkpt lat="50.24606" lon="3.30294">
        <ele>39.0706787</ele>
        <time>2011-08-21T09:28:44Z</time>
      </trkpt>
      <trkpt lat="50.24562" lon="3.30303">
        <ele>40.9934082</ele>
        <time>2011-08-21T09:28:52Z</time>
      </trkpt>
      <trkpt lat="50.24534" lon="3.30307">
        <ele>39.0706787</ele>
        <time>2011-08-21T09:28:57Z</time>
      </trkpt>
      <trkpt lat="50.24497" lon="3.30315">
        <ele>38.5900879</ele>
        <time>2011-08-21T09:29:04Z</time>
      </trkpt>
      <trkpt lat="50.24454" lon="3.30321">
        <ele>38.109375</ele>
        <time>2011-08-21T09:29:12Z</time>
      </trkpt>
      <trkpt lat="50.24406" lon="3.30332">
        <ele>38.109375</ele>
        <time>2011-08-21T09:29:21Z</time>
      </trkpt>
      <trkpt lat="50.24396" lon="3.30334">
        <ele>38.109375</ele>
        <time>2011-08-21T09:29:23Z</time>
      </trkpt>
      <trkpt lat="50.24365" lon="3.30351">
        <ele>38.5900879</ele>
        <time>2011-08-21T09:29:30Z</time>
      </trkpt>
      <trkpt lat="50.24356" lon="3.30356">
        <ele>38.5900879</ele>
        <time>2011-08-21T09:29:32Z</time>
      </trkpt>
      <trkpt lat="50.24334" lon="3.3035">
        <ele>39.0706787</ele>
        <time>2011-08-21T09:29:37Z</time>
      </trkpt>
      <trkpt lat="50.24332" lon="3.30345">
        <ele>39.0706787</ele>
        <time>2011-08-21T09:29:38Z</time>
      </trkpt>
      <trkpt lat="50.24321" lon="3.30319">
        <ele>38.5900879</ele>
        <time>2011-08-21T09:29:43Z</time>
      </trkpt>
      <trkpt lat="50.24308" lon="3.30286">
        <ele>40.9934082</ele>
        <time>2011-08-21T09:29:50Z</time>
      </trkpt>
      <trkpt lat="50.24295" lon="3.30252">
        <ele>42.9160156</ele>
        <time>2011-08-21T09:29:59Z</time>
      </trkpt>
      <trkpt lat="50.24282" lon="3.30213">
        <ele>43.8773193</ele>
        <time>2011-08-21T09:30:08Z</time>
      </trkpt>
      <trkpt lat="50.2427" lon="3.30186">
        <ele>44.3580322</ele>
        <time>2011-08-21T09:30:15Z</time>
      </trkpt>
      <trkpt lat="50.24259" lon="3.30157">
        <ele>44.838623</ele>
        <time>2011-08-21T09:30:22Z</time>
      </trkpt>
      <trkpt lat="50.24246" lon="3.30128">
        <ele>44.838623</ele>
        <time>2011-08-21T09:30:29Z</time>
      </trkpt>
      <trkpt lat="50.24234" lon="3.30098">
        <ele>45.7999268</ele>
        <time>2011-08-21T09:30:36Z</time>
      </trkpt>
      <trkpt lat="50.24222" lon="3.30059">
        <ele>47.2418213</ele>
        <time>2011-08-21T09:30:45Z</time>
      </trkpt>
      <trkpt lat="50.24214" lon="3.30034">
        <ele>48.68396</ele>
        <time>2011-08-21T09:30:51Z</time>
      </trkpt>
      <trkpt lat="50.24202" lon="3.30006">
        <ele>50.1259766</ele>
        <time>2011-08-21T09:30:58Z</time>
      </trkpt>
      <trkpt lat="50.24187" lon="3.29977">
        <ele>51.0871582</ele>
        <time>2011-08-21T09:31:05Z</time>
      </trkpt>
      <trkpt lat="50.24174" lon="3.29949">
        <ele>51.5678711</ele>
        <time>2011-08-21T09:31:11Z</time>
      </trkpt>
      <trkpt lat="50.24161" lon="3.29917">
        <ele>52.048584</ele>
        <time>2011-08-21T09:31:18Z</time>
      </trkpt>
      <trkpt lat="50.24144" lon="3.29877">
        <ele>52.5291748</ele>
        <time>2011-08-21T09:31:26Z</time>
      </trkpt>
      <trkpt lat="50.24121" lon="3.29825">
        <ele>53.0097656</ele>
        <time>2011-08-21T09:31:36Z</time>
      </trkpt>
      <trkpt lat="50.24101" lon="3.2978">
        <ele>53.0097656</ele>
        <time>2011-08-21T09:31:44Z</time>
      </trkpt>
      <trkpt lat="50.24079" lon="3.29734">
        <ele>53.0097656</ele>
        <time>2011-08-21T09:31:52Z</time>
      </trkpt>
      <trkpt lat="50.24059" lon="3.29717">
        <ele>53.9711914</ele>
        <time>2011-08-21T09:31:57Z</time>
      </trkpt>
      <trkpt lat="50.2405" lon="3.29714">
        <ele>53.9711914</ele>
        <time>2011-08-21T09:31:59Z</time>
      </trkpt>
      <trkpt lat="50.24013" lon="3.29704">
        <ele>54.4517822</ele>
        <time>2011-08-21T09:32:07Z</time>
      </trkpt>
      <trkpt lat="50.23979" lon="3.29684">
        <ele>54.932373</ele>
        <time>2011-08-21T09:32:15Z</time>
      </trkpt>
      <trkpt lat="50.23976" lon="3.29681">
        <ele>54.932373</ele>
        <time>2011-08-21T09:32:16Z</time>
      </trkpt>
      <trkpt lat="50.23968" lon="3.29666">
        <ele>54.932373</ele>
        <time>2011-08-21T09:32:21Z</time>
      </trkpt>
      <trkpt lat="50.23968" lon="3.29666">
        <ele>54.932373</ele>
        <time>2011-08-21T09:32:23Z</time>
      </trkpt>
      <trkpt lat="50.23971" lon="3.29662">
        <ele>53.9711914</ele>
        <time>2011-08-21T09:36:42Z</time>
      </trkpt>
      <trkpt lat="50.23973" lon="3.29663">
        <ele>53.9711914</ele>
        <time>2011-08-21T09:36:43Z</time>
      </trkpt>
      <trkpt lat="50.23976" lon="3.29667">
        <ele>53.9711914</ele>
        <time>2011-08-21T09:36:45Z</time>
      </trkpt>
      <trkpt lat="50.23977" lon="3.29668">
        <ele>54.4517822</ele>
        <time>2011-08-21T09:36:46Z</time>
      </trkpt>
      <trkpt lat="50.23993" lon="3.29671">
        <ele>54.4517822</ele>
        <time>2011-08-21T09:36:53Z</time>
      </trkpt>
      <trkpt lat="50.2402" lon="3.29674">
        <ele>53.9711914</ele>
        <time>2011-08-21T09:37:00Z</time>
      </trkpt>
      <trkpt lat="50.24053" lon="3.2967">
        <ele>53.4904785</ele>
        <time>2011-08-21T09:37:06Z</time>
      </trkpt>
      <trkpt lat="50.24084" lon="3.29666">
        <ele>53.9711914</ele>
        <time>2011-08-21T09:37:11Z</time>
      </trkpt>
      <trkpt lat="50.24137" lon="3.29659">
        <ele>53.0097656</ele>
        <time>2011-08-21T09:37:19Z</time>
      </trkpt>
      <trkpt lat="50.24194" lon="3.29651">
        <ele>52.048584</ele>
        <time>2011-08-21T09:37:28Z</time>
      </trkpt>
      <trkpt lat="50.24251" lon="3.29643">
        <ele>52.048584</ele>
        <time>2011-08-21T09:37:37Z</time>
      </trkpt>
      <trkpt lat="50.24322" lon="3.2963">
        <ele>52.048584</ele>
        <time>2011-08-21T09:37:48Z</time>
      </trkpt>
      <trkpt lat="50.24403" lon="3.29614">
        <ele>51.5678711</ele>
        <time>2011-08-21T09:38:00Z</time>
      </trkpt>
      <trkpt lat="50.24445" lon="3.29606">
        <ele>51.5678711</ele>
        <time>2011-08-21T09:38:06Z</time>
      </trkpt>
      <trkpt lat="50.2453" lon="3.2959">
        <ele>52.048584</ele>
        <time>2011-08-21T09:38:18Z</time>
      </trkpt>
      <trkpt lat="50.24596" lon="3.29579">
        <ele>51.5678711</ele>
        <time>2011-08-21T09:38:27Z</time>
      </trkpt>
      <trkpt lat="50.2466" lon="3.29584">
        <ele>49.6452637</ele>
        <time>2011-08-21T09:38:35Z</time>
      </trkpt>
      <trkpt lat="50.24702" lon="3.29587">
        <ele>47.7225342</ele>
        <time>2011-08-21T09:38:40Z</time>
      </trkpt>
      <trkpt lat="50.24765" lon="3.29597">
        <ele>45.3192139</ele>
        <time>2011-08-21T09:38:47Z</time>
      </trkpt>
      <trkpt lat="50.24794" lon="3.29609">
        <ele>43.8773193</ele>
        <time>2011-08-21T09:38:50Z</time>
      </trkpt>
      <trkpt lat="50.24826" lon="3.29643">
        <ele>43.8773193</ele>
        <time>2011-08-21T09:38:54Z</time>
      </trkpt>
      <trkpt lat="50.24832" lon="3.29655">
        <ele>44.3580322</ele>
        <time>2011-08-21T09:38:55Z</time>
      </trkpt>
      <trkpt lat="50.24855" lon="3.29735">
        <ele>45.3192139</ele>
        <time>2011-08-21T09:39:02Z</time>
      </trkpt>
      <trkpt lat="50.24864" lon="3.29777">
        <ele>45.7999268</ele>
        <time>2011-08-21T09:39:06Z</time>
      </trkpt>
      <trkpt lat="50.24878" lon="3.2983">
        <ele>46.2806396</ele>
        <time>2011-08-21T09:39:11Z</time>
      </trkpt>
      <trkpt lat="50.24897" lon="3.29893">
        <ele>45.3192139</ele>
        <time>2011-08-21T09:39:17Z</time>
      </trkpt>
      <trkpt lat="50.24921" lon="3.29972">
        <ele>44.3580322</ele>
        <time>2011-08-21T09:39:24Z</time>
      </trkpt>
      <trkpt lat="50.24933" lon="3.30038">
        <ele>41.9547119</ele>
        <time>2011-08-21T09:39:29Z</time>
      </trkpt>
      <trkpt lat="50.2495" lon="3.30084">
        <ele>39.5512695</ele>
        <time>2011-08-21T09:39:33Z</time>
      </trkpt>
      <trkpt lat="50.24958" lon="3.30092">
        <ele>39.0706787</ele>
        <time>2011-08-21T09:39:34Z</time>
      </trkpt>
      <trkpt lat="50.25016" lon="3.30124">
        <ele>35.7060547</ele>
        <time>2011-08-21T09:39:40Z</time>
      </trkpt>
      <trkpt lat="50.25067" lon="3.30139">
        <ele>34.744873</ele>
        <time>2011-08-21T09:39:45Z</time>
      </trkpt>
      <trkpt lat="50.25125" lon="3.30156">
        <ele>35.2254639</ele>
        <time>2011-08-21T09:39:51Z</time>
      </trkpt>
      <trkpt lat="50.25166" lon="3.30183">
        <ele>35.7060547</ele>
        <time>2011-08-21T09:39:56Z</time>
      </trkpt>
      <trkpt lat="50.25201" lon="3.3022">
        <ele>35.7060547</ele>
        <time>2011-08-21T09:40:01Z</time>
      </trkpt>
      <trkpt lat="50.25241" lon="3.30284">
        <ele>36.1867676</ele>
        <time>2011-08-21T09:40:08Z</time>
      </trkpt>
      <trkpt lat="50.25279" lon="3.30359">
        <ele>36.1867676</ele>
        <time>2011-08-21T09:40:16Z</time>
      </trkpt>
      <trkpt lat="50.25304" lon="3.30427">
        <ele>37.6286621</ele>
        <time>2011-08-21T09:40:23Z</time>
      </trkpt>
      <trkpt lat="50.25317" lon="3.30458">
        <ele>38.5900879</ele>
        <time>2011-08-21T09:40:27Z</time>
      </trkpt>
      <trkpt lat="50.25339" lon="3.30484">
        <ele>39.5512695</ele>
        <time>2011-08-21T09:40:32Z</time>
      </trkpt>
      <trkpt lat="50.25374" lon="3.30505">
        <ele>40.0321045</ele>
        <time>2011-08-21T09:40:39Z</time>
      </trkpt>
      <trkpt lat="50.25424" lon="3.30536">
        <ele>38.5900879</ele>
        <time>2011-08-21T09:40:47Z</time>
      </trkpt>
      <trkpt lat="50.25456" lon="3.30551">
        <ele>38.109375</ele>
        <time>2011-08-21T09:40:52Z</time>
      </trkpt>
      <trkpt lat="50.2549" lon="3.30555">
        <ele>38.5900879</ele>
        <time>2011-08-21T09:40:57Z</time>
      </trkpt>
      <trkpt lat="50.25509" lon="3.30547">
        <ele>38.109375</ele>
        <time>2011-08-21T09:41:00Z</time>
      </trkpt>
      <trkpt lat="50.25517" lon="3.30528">
        <ele>38.109375</ele>
        <time>2011-08-21T09:41:02Z</time>
      </trkpt>
      <trkpt lat="50.25534" lon="3.30425">
        <ele>37.1480713</ele>
        <time>2011-08-21T09:41:12Z</time>
      </trkpt>
      <trkpt lat="50.25551" lon="3.30413">
        <ele>36.6674805</ele>
        <time>2011-08-21T09:41:16Z</time>
      </trkpt>
      <trkpt lat="50.25568" lon="3.3041">
        <ele>37.1480713</ele>
        <time>2011-08-21T09:41:19Z</time>
      </trkpt>
      <trkpt lat="50.25616" lon="3.30385">
        <ele>37.6286621</ele>
        <time>2011-08-21T09:41:27Z</time>
      </trkpt>
      <trkpt lat="50.25656" lon="3.30358">
        <ele>37.1480713</ele>
        <time>2011-08-21T09:41:34Z</time>
      </trkpt>
      <trkpt lat="50.2569" lon="3.30334">
        <ele>35.7060547</ele>
        <time>2011-08-21T09:41:40Z</time>
      </trkpt>
      <trkpt lat="50.25728" lon="3.30306">
        <ele>35.2254639</ele>
        <time>2011-08-21T09:41:46Z</time>
      </trkpt>
      <trkpt lat="50.25769" lon="3.30279">
        <ele>36.6674805</ele>
        <time>2011-08-21T09:41:53Z</time>
      </trkpt>
      <trkpt lat="50.25813" lon="3.30248">
        <ele>37.1480713</ele>
        <time>2011-08-21T09:42:00Z</time>
      </trkpt>
      <trkpt lat="50.25848" lon="3.30222">
        <ele>36.6674805</ele>
        <time>2011-08-21T09:42:06Z</time>
      </trkpt>
      <trkpt lat="50.25893" lon="3.30189">
        <ele>36.1867676</ele>
        <time>2011-08-21T09:42:13Z</time>
      </trkpt>
      <trkpt lat="50.25918" lon="3.30171">
        <ele>35.7060547</ele>
        <time>2011-08-21T09:42:17Z</time>
      </trkpt>
      <trkpt lat="50.25954" lon="3.30146">
        <ele>34.744873</ele>
        <time>2011-08-21T09:42:23Z</time>
      </trkpt>
      <trkpt lat="50.25997" lon="3.30116">
        <ele>35.2254639</ele>
        <time>2011-08-21T09:42:30Z</time>
      </trkpt>
      <trkpt lat="50.26038" lon="3.30087">
        <ele>35.2254639</ele>
        <time>2011-08-21T09:42:37Z</time>
      </trkpt>
      <trkpt lat="50.26087" lon="3.30052">
        <ele>34.744873</ele>
        <time>2011-08-21T09:42:45Z</time>
      </trkpt>
      <trkpt lat="50.2615" lon="3.30018">
        <ele>34.744873</ele>
        <time>2011-08-21T09:42:55Z</time>
      </trkpt>
      <trkpt lat="50.26209" lon="3.30004">
        <ele>34.744873</ele>
        <time>2011-08-21T09:43:04Z</time>
      </trkpt>
      <trkpt lat="50.26261" lon="3.30009">
        <ele>34.744873</ele>
        <time>2011-08-21T09:43:12Z</time>
      </trkpt>
      <trkpt lat="50.26327" lon="3.30023">
        <ele>34.2641602</ele>
        <time>2011-08-21T09:43:22Z</time>
      </trkpt>
      <trkpt lat="50.26386" lon="3.30039">
        <ele>33.7834473</ele>
        <time>2011-08-21T09:43:31Z</time>
      </trkpt>
      <trkpt lat="50.26444" lon="3.3006">
        <ele>33.3028564</ele>
        <time>2011-08-21T09:43:40Z</time>
      </trkpt>
      <trkpt lat="50.26484" lon="3.30076">
        <ele>33.7834473</ele>
        <time>2011-08-21T09:43:46Z</time>
      </trkpt>
      <trkpt lat="50.2655" lon="3.30103">
        <ele>33.7834473</ele>
        <time>2011-08-21T09:43:56Z</time>
      </trkpt>
      <trkpt lat="50.26602" lon="3.30127">
        <ele>33.7834473</ele>
        <time>2011-08-21T09:44:04Z</time>
      </trkpt>
      <trkpt lat="50.26641" lon="3.30142">
        <ele>34.2641602</ele>
        <time>2011-08-21T09:44:10Z</time>
      </trkpt>
      <trkpt lat="50.26653" lon="3.30147">
        <ele>34.2641602</ele>
        <time>2011-08-21T09:44:12Z</time>
      </trkpt>
      <trkpt lat="50.26708" lon="3.3018">
        <ele>34.744873</ele>
        <time>2011-08-21T09:44:21Z</time>
      </trkpt>
      <trkpt lat="50.26769" lon="3.30217">
        <ele>35.2254639</ele>
        <time>2011-08-21T09:44:31Z</time>
      </trkpt>
      <trkpt lat="50.26794" lon="3.30234">
        <ele>35.2254639</ele>
        <time>2011-08-21T09:44:35Z</time>
      </trkpt>
      <trkpt lat="50.26837" lon="3.30273">
        <ele>34.744873</ele>
        <time>2011-08-21T09:44:42Z</time>
      </trkpt>
      <trkpt lat="50.26864" lon="3.30292">
        <ele>32.8222656</ele>
        <time>2011-08-21T09:44:46Z</time>
      </trkpt>
      <trkpt lat="50.26912" lon="3.30321">
        <ele>32.3415527</ele>
        <time>2011-08-21T09:44:53Z</time>
      </trkpt>
      <trkpt lat="50.26964" lon="3.30354">
        <ele>31.380127</ele>
        <time>2011-08-21T09:45:00Z</time>
      </trkpt>
      <trkpt lat="50.27027" lon="3.30393">
        <ele>30.8995361</ele>
        <time>2011-08-21T09:45:09Z</time>
      </trkpt>
      <trkpt lat="50.27076" lon="3.3042">
        <ele>31.8607178</ele>
        <time>2011-08-21T09:45:16Z</time>
      </trkpt>
      <trkpt lat="50.27135" lon="3.3046">
        <ele>30.8995361</ele>
        <time>2011-08-21T09:45:25Z</time>
      </trkpt>
      <trkpt lat="50.27201" lon="3.30499">
        <ele>31.8607178</ele>
        <time>2011-08-21T09:45:35Z</time>
      </trkpt>
      <trkpt lat="50.27256" lon="3.3053">
        <ele>32.8222656</ele>
        <time>2011-08-21T09:45:43Z</time>
      </trkpt>
      <trkpt lat="50.27325" lon="3.30572">
        <ele>33.7834473</ele>
        <time>2011-08-21T09:45:53Z</time>
      </trkpt>
      <trkpt lat="50.2737" lon="3.30601">
        <ele>32.8222656</ele>
        <time>2011-08-21T09:46:00Z</time>
      </trkpt>
      <trkpt lat="50.27416" lon="3.30632">
        <ele>31.380127</ele>
        <time>2011-08-21T09:46:07Z</time>
      </trkpt>
      <trkpt lat="50.27457" lon="3.30657">
        <ele>31.380127</ele>
        <time>2011-08-21T09:46:13Z</time>
      </trkpt>
      <trkpt lat="50.27464" lon="3.30661">
        <ele>31.380127</ele>
        <time>2011-08-21T09:46:14Z</time>
      </trkpt>
      <trkpt lat="50.27503" lon="3.30688">
        <ele>28.4962158</ele>
        <time>2011-08-21T09:46:20Z</time>
      </trkpt>
      <trkpt lat="50.27548" lon="3.30715">
        <ele>27.0543213</ele>
        <time>2011-08-21T09:46:27Z</time>
      </trkpt>
      <trkpt lat="50.2761" lon="3.30759">
        <ele>27.5349121</ele>
        <time>2011-08-21T09:46:37Z</time>
      </trkpt>
      <trkpt lat="50.27656" lon="3.30794">
        <ele>28.9769287</ele>
        <time>2011-08-21T09:46:44Z</time>
      </trkpt>
      <trkpt lat="50.2772" lon="3.30849">
        <ele>29.9381104</ele>
        <time>2011-08-21T09:46:54Z</time>
      </trkpt>
      <trkpt lat="50.2777" lon="3.30894">
        <ele>29.9381104</ele>
        <time>2011-08-21T09:47:02Z</time>
      </trkpt>
      <trkpt lat="50.27817" lon="3.30946">
        <ele>30.4188232</ele>
        <time>2011-08-21T09:47:10Z</time>
      </trkpt>
      <trkpt lat="50.27868" lon="3.31008">
        <ele>30.4188232</ele>
        <time>2011-08-21T09:47:19Z</time>
      </trkpt>
      <trkpt lat="50.27935" lon="3.31095">
        <ele>30.8995361</ele>
        <time>2011-08-21T09:47:31Z</time>
      </trkpt>
      <trkpt lat="50.27993" lon="3.31181">
        <ele>30.4188232</ele>
        <time>2011-08-21T09:47:42Z</time>
      </trkpt>
      <trkpt lat="50.28033" lon="3.31251">
        <ele>29.4575195</ele>
        <time>2011-08-21T09:47:50Z</time>
      </trkpt>
      <trkpt lat="50.28078" lon="3.31331">
        <ele>29.9381104</ele>
        <time>2011-08-21T09:47:59Z</time>
      </trkpt>
      <trkpt lat="50.28119" lon="3.31414">
        <ele>29.4575195</ele>
        <time>2011-08-21T09:48:08Z</time>
      </trkpt>
      <trkpt lat="50.28123" lon="3.31423">
        <ele>29.4575195</ele>
        <time>2011-08-21T09:48:09Z</time>
      </trkpt>
      <trkpt lat="50.28145" lon="3.3148">
        <ele>28.0155029</ele>
        <time>2011-08-21T09:48:15Z</time>
      </trkpt>
      <trkpt lat="50.28172" lon="3.31547">
        <ele>28.0155029</ele>
        <time>2011-08-21T09:48:22Z</time>
      </trkpt>
      <trkpt lat="50.28208" lon="3.31642">
        <ele>28.4962158</ele>
        <time>2011-08-21T09:48:32Z</time>
      </trkpt>
      <trkpt lat="50.28231" lon="3.31696">
        <ele>29.4575195</ele>
        <time>2011-08-21T09:48:38Z</time>
      </trkpt>
      <trkpt lat="50.28259" lon="3.3175">
        <ele>31.380127</ele>
        <time>2011-08-21T09:48:45Z</time>
      </trkpt>
      <trkpt lat="50.28282" lon="3.31809">
        <ele>31.8607178</ele>
        <time>2011-08-21T09:48:52Z</time>
      </trkpt>
      <trkpt lat="50.28298" lon="3.31851">
        <ele>32.8222656</ele>
        <time>2011-08-21T09:48:57Z</time>
      </trkpt>
      <trkpt lat="50.28305" lon="3.31875">
        <ele>32.8222656</ele>
        <time>2011-08-21T09:49:00Z</time>
      </trkpt>
      <trkpt lat="50.2831" lon="3.31902">
        <ele>32.8222656</ele>
        <time>2011-08-21T09:49:03Z</time>
      </trkpt>
      <trkpt lat="50.28322" lon="3.31959">
        <ele>30.8995361</ele>
        <time>2011-08-21T09:49:09Z</time>
      </trkpt>
      <trkpt lat="50.28354" lon="3.32037">
        <ele>30.4188232</ele>
        <time>2011-08-21T09:49:18Z</time>
      </trkpt>
      <trkpt lat="50.28378" lon="3.321">
        <ele>29.9381104</ele>
        <time>2011-08-21T09:49:25Z</time>
      </trkpt>
      <trkpt lat="50.28403" lon="3.32172">
        <ele>30.4188232</ele>
        <time>2011-08-21T09:49:33Z</time>
      </trkpt>
      <trkpt lat="50.28422" lon="3.32236">
        <ele>30.8995361</ele>
        <time>2011-08-21T09:49:40Z</time>
      </trkpt>
      <trkpt lat="50.28442" lon="3.32302">
        <ele>30.8995361</ele>
        <time>2011-08-21T09:49:47Z</time>
      </trkpt>
      <trkpt lat="50.28454" lon="3.32339">
        <ele>31.380127</ele>
        <time>2011-08-21T09:49:51Z</time>
      </trkpt>
      <trkpt lat="50.28479" lon="3.32397">
        <ele>29.9381104</ele>
        <time>2011-08-21T09:49:58Z</time>
      </trkpt>
      <trkpt lat="50.28515" lon="3.3248">
        <ele>28.4962158</ele>
        <time>2011-08-21T09:50:07Z</time>
      </trkpt>
      <trkpt lat="50.28545" lon="3.32541">
        <ele>28.9769287</ele>
        <time>2011-08-21T09:50:14Z</time>
      </trkpt>
      <trkpt lat="50.28554" lon="3.32557">
        <ele>28.9769287</ele>
        <time>2011-08-21T09:50:16Z</time>
      </trkpt>
      <trkpt lat="50.28584" lon="3.32604">
        <ele>30.4188232</ele>
        <time>2011-08-21T09:50:22Z</time>
      </trkpt>
      <trkpt lat="50.28611" lon="3.32652">
        <ele>30.8995361</ele>
        <time>2011-08-21T09:50:28Z</time>
      </trkpt>
      <trkpt lat="50.28653" lon="3.32722">
        <ele>30.8995361</ele>
        <time>2011-08-21T09:50:37Z</time>
      </trkpt>
      <trkpt lat="50.28688" lon="3.32772">
        <ele>31.380127</ele>
        <time>2011-08-21T09:50:44Z</time>
      </trkpt>
      <trkpt lat="50.28728" lon="3.32829">
        <ele>31.380127</ele>
        <time>2011-08-21T09:50:52Z</time>
      </trkpt>
      <trkpt lat="50.28759" lon="3.3287">
        <ele>31.8607178</ele>
        <time>2011-08-21T09:50:58Z</time>
      </trkpt>
      <trkpt lat="50.28788" lon="3.32911">
        <ele>31.380127</ele>
        <time>2011-08-21T09:51:04Z</time>
      </trkpt>
      <trkpt lat="50.28802" lon="3.32955">
        <ele>30.8995361</ele>
        <time>2011-08-21T09:51:09Z</time>
      </trkpt>
      <trkpt lat="50.28805" lon="3.32964">
        <ele>30.8995361</ele>
        <time>2011-08-21T09:51:10Z</time>
      </trkpt>
      <trkpt lat="50.28811" lon="3.32979">
        <ele>30.8995361</ele>
        <time>2011-08-21T09:51:12Z</time>
      </trkpt>
      <trkpt lat="50.28825" lon="3.33">
        <ele>30.8995361</ele>
        <time>2011-08-21T09:51:15Z</time>
      </trkpt>
      <trkpt lat="50.28852" lon="3.33028">
        <ele>32.8222656</ele>
        <time>2011-08-21T09:51:20Z</time>
      </trkpt>
      <trkpt lat="50.28857" lon="3.33035">
        <ele>32.8222656</ele>
        <time>2011-08-21T09:51:21Z</time>
      </trkpt>
      <trkpt lat="50.28879" lon="3.33055">
        <ele>31.380127</ele>
        <time>2011-08-21T09:51:25Z</time>
      </trkpt>
      <trkpt lat="50.28911" lon="3.33092">
        <ele>30.4188232</ele>
        <time>2011-08-21T09:51:31Z</time>
      </trkpt>
      <trkpt lat="50.28949" lon="3.33145">
        <ele>29.9381104</ele>
        <time>2011-08-21T09:51:39Z</time>
      </trkpt>
      <trkpt lat="50.28983" lon="3.3319">
        <ele>30.4188232</ele>
        <time>2011-08-21T09:51:46Z</time>
      </trkpt>
      <trkpt lat="50.29032" lon="3.33255">
        <ele>30.4188232</ele>
        <time>2011-08-21T09:51:56Z</time>
      </trkpt>
      <trkpt lat="50.29071" lon="3.33308">
        <ele>30.4188232</ele>
        <time>2011-08-21T09:52:04Z</time>
      </trkpt>
      <trkpt lat="50.29114" lon="3.33366">
        <ele>30.4188232</ele>
        <time>2011-08-21T09:52:13Z</time>
      </trkpt>
      <trkpt lat="50.29152" lon="3.33419">
        <ele>29.9381104</ele>
        <time>2011-08-21T09:52:21Z</time>
      </trkpt>
      <trkpt lat="50.29195" lon="3.3348">
        <ele>29.4575195</ele>
        <time>2011-08-21T09:52:30Z</time>
      </trkpt>
      <trkpt lat="50.29238" lon="3.33539">
        <ele>29.4575195</ele>
        <time>2011-08-21T09:52:39Z</time>
      </trkpt>
      <trkpt lat="50.29243" lon="3.33545">
        <ele>29.4575195</ele>
        <time>2011-08-21T09:52:40Z</time>
      </trkpt>
      <trkpt lat="50.2927" lon="3.33594">
        <ele>30.4188232</ele>
        <time>2011-08-21T09:52:47Z</time>
      </trkpt>
      <trkpt lat="50.29304" lon="3.33642">
        <ele>31.380127</ele>
        <time>2011-08-21T09:52:55Z</time>
      </trkpt>
      <trkpt lat="50.29335" lon="3.33675">
        <ele>30.8995361</ele>
        <time>2011-08-21T09:53:01Z</time>
      </trkpt>
      <trkpt lat="50.2938" lon="3.33738">
        <ele>30.4188232</ele>
        <time>2011-08-21T09:53:10Z</time>
      </trkpt>
      <trkpt lat="50.29429" lon="3.33804">
        <ele>29.9381104</ele>
        <time>2011-08-21T09:53:20Z</time>
      </trkpt>
      <trkpt lat="50.29462" lon="3.33849">
        <ele>29.4575195</ele>
        <time>2011-08-21T09:53:27Z</time>
      </trkpt>
      <trkpt lat="50.29503" lon="3.33906">
        <ele>28.9769287</ele>
        <time>2011-08-21T09:53:36Z</time>
      </trkpt>
      <trkpt lat="50.29545" lon="3.33964">
        <ele>28.4962158</ele>
        <time>2011-08-21T09:53:45Z</time>
      </trkpt>
      <trkpt lat="50.29591" lon="3.34029">
        <ele>28.0155029</ele>
        <time>2011-08-21T09:53:55Z</time>
      </trkpt>
      <trkpt lat="50.29648" lon="3.34117">
        <ele>27.5349121</ele>
        <time>2011-08-21T09:54:08Z</time>
      </trkpt>
      <trkpt lat="50.29686" lon="3.34182">
        <ele>27.5349121</ele>
        <time>2011-08-21T09:54:17Z</time>
      </trkpt>
      <trkpt lat="50.29723" lon="3.34249">
        <ele>26.5736084</ele>
        <time>2011-08-21T09:54:26Z</time>
      </trkpt>
      <trkpt lat="50.29751" lon="3.34301">
        <ele>28.9769287</ele>
        <time>2011-08-21T09:54:33Z</time>
      </trkpt>
      <trkpt lat="50.29762" lon="3.34319">
        <ele>29.9381104</ele>
        <time>2011-08-21T09:54:36Z</time>
      </trkpt>
      <trkpt lat="50.29778" lon="3.34351">
        <ele>29.4575195</ele>
        <time>2011-08-21T09:54:41Z</time>
      </trkpt>
      <trkpt lat="50.29794" lon="3.34389">
        <ele>29.9381104</ele>
        <time>2011-08-21T09:54:46Z</time>
      </trkpt>
      <trkpt lat="50.29802" lon="3.34423">
        <ele>29.9381104</ele>
        <time>2011-08-21T09:54:50Z</time>
      </trkpt>
      <trkpt lat="50.29822" lon="3.3447">
        <ele>30.4188232</ele>
        <time>2011-08-21T09:54:56Z</time>
      </trkpt>
      <trkpt lat="50.29853" lon="3.3453">
        <ele>31.380127</ele>
        <time>2011-08-21T09:55:04Z</time>
      </trkpt>
      <trkpt lat="50.29883" lon="3.3458">
        <ele>30.4188232</ele>
        <time>2011-08-21T09:55:10Z</time>
      </trkpt>
      <trkpt lat="50.29918" lon="3.34635">
        <ele>30.4188232</ele>
        <time>2011-08-21T09:55:17Z</time>
      </trkpt>
      <trkpt lat="50.29958" lon="3.34705">
        <ele>30.8995361</ele>
        <time>2011-08-21T09:55:26Z</time>
      </trkpt>
      <trkpt lat="50.30004" lon="3.34788">
        <ele>29.4575195</ele>
        <time>2011-08-21T09:55:37Z</time>
      </trkpt>
      <trkpt lat="50.30045" lon="3.34855">
        <ele>30.4188232</ele>
        <time>2011-08-21T09:55:46Z</time>
      </trkpt>
      <trkpt lat="50.30092" lon="3.34933">
        <ele>30.4188232</ele>
        <time>2011-08-21T09:55:57Z</time>
      </trkpt>
      <trkpt lat="50.30134" lon="3.35002">
        <ele>30.4188232</ele>
        <time>2011-08-21T09:56:07Z</time>
      </trkpt>
      <trkpt lat="50.30149" lon="3.35026">
        <ele>30.8995361</ele>
        <time>2011-08-21T09:56:11Z</time>
      </trkpt>
      <trkpt lat="50.30167" lon="3.35053">
        <ele>30.8995361</ele>
        <time>2011-08-21T09:56:16Z</time>
      </trkpt>
      <trkpt lat="50.30171" lon="3.3506">
        <ele>30.8995361</ele>
        <time>2011-08-21T09:56:17Z</time>
      </trkpt>
      <trkpt lat="50.30208" lon="3.35125">
        <ele>30.4188232</ele>
        <time>2011-08-21T09:56:26Z</time>
      </trkpt>
      <trkpt lat="50.30247" lon="3.3519">
        <ele>30.8995361</ele>
        <time>2011-08-21T09:56:35Z</time>
      </trkpt>
      <trkpt lat="50.30282" lon="3.35247">
        <ele>31.380127</ele>
        <time>2011-08-21T09:56:43Z</time>
      </trkpt>
      <trkpt lat="50.30321" lon="3.35311">
        <ele>31.8607178</ele>
        <time>2011-08-21T09:56:52Z</time>
      </trkpt>
      <trkpt lat="50.3036" lon="3.35375">
        <ele>31.380127</ele>
        <time>2011-08-21T09:57:01Z</time>
      </trkpt>
      <trkpt lat="50.30398" lon="3.35439">
        <ele>31.380127</ele>
        <time>2011-08-21T09:57:10Z</time>
      </trkpt>
      <trkpt lat="50.30431" lon="3.35497">
        <ele>30.4188232</ele>
        <time>2011-08-21T09:57:18Z</time>
      </trkpt>
      <trkpt lat="50.30469" lon="3.35562">
        <ele>28.9769287</ele>
        <time>2011-08-21T09:57:27Z</time>
      </trkpt>
      <trkpt lat="50.3051" lon="3.35625">
        <ele>29.4575195</ele>
        <time>2011-08-21T09:57:36Z</time>
      </trkpt>
      <trkpt lat="50.3054" lon="3.35677">
        <ele>29.4575195</ele>
        <time>2011-08-21T09:57:43Z</time>
      </trkpt>
      <trkpt lat="50.30552" lon="3.35697">
        <ele>28.9769287</ele>
        <time>2011-08-21T09:57:46Z</time>
      </trkpt>
      <trkpt lat="50.30583" lon="3.35752">
        <ele>30.8995361</ele>
        <time>2011-08-21T09:57:54Z</time>
      </trkpt>
      <trkpt lat="50.30604" lon="3.35791">
        <ele>33.7834473</ele>
        <time>2011-08-21T09:58:00Z</time>
      </trkpt>
      <trkpt lat="50.30619" lon="3.35818">
        <ele>34.744873</ele>
        <time>2011-08-21T09:58:04Z</time>
      </trkpt>
      <trkpt lat="50.30646" lon="3.35874">
        <ele>33.7834473</ele>
        <time>2011-08-21T09:58:11Z</time>
      </trkpt>
      <trkpt lat="50.30677" lon="3.3594">
        <ele>32.8222656</ele>
        <time>2011-08-21T09:58:20Z</time>
      </trkpt>
      <trkpt lat="50.30708" lon="3.3601">
        <ele>31.380127</ele>
        <time>2011-08-21T09:58:29Z</time>
      </trkpt>
      <trkpt lat="50.30742" lon="3.36091">
        <ele>31.380127</ele>
        <time>2011-08-21T09:58:39Z</time>
      </trkpt>
      <trkpt lat="50.3076" lon="3.36137">
        <ele>31.8607178</ele>
        <time>2011-08-21T09:58:45Z</time>
      </trkpt>
      <trkpt lat="50.30783" lon="3.36198">
        <ele>30.4188232</ele>
        <time>2011-08-21T09:58:53Z</time>
      </trkpt>
      <trkpt lat="50.30801" lon="3.36254">
        <ele>29.9381104</ele>
        <time>2011-08-21T09:59:00Z</time>
      </trkpt>
      <trkpt lat="50.30825" lon="3.36327">
        <ele>28.9769287</ele>
        <time>2011-08-21T09:59:09Z</time>
      </trkpt>
      <trkpt lat="50.3085" lon="3.36412">
        <ele>27.5349121</ele>
        <time>2011-08-21T09:59:19Z</time>
      </trkpt>
      <trkpt lat="50.30871" lon="3.36485">
        <ele>26.5736084</ele>
        <time>2011-08-21T09:59:28Z</time>
      </trkpt>
      <trkpt lat="50.3089" lon="3.36549">
        <ele>26.0928955</ele>
        <time>2011-08-21T09:59:36Z</time>
      </trkpt>
      <trkpt lat="50.30904" lon="3.36598">
        <ele>26.0928955</ele>
        <time>2011-08-21T09:59:42Z</time>
      </trkpt>
      <trkpt lat="50.30925" lon="3.3665">
        <ele>27.5349121</ele>
        <time>2011-08-21T09:59:49Z</time>
      </trkpt>
      <trkpt lat="50.3096" lon="3.36703">
        <ele>29.4575195</ele>
        <time>2011-08-21T09:59:57Z</time>
      </trkpt>
      <trkpt lat="50.30964" lon="3.3671">
        <ele>29.4575195</ele>
        <time>2011-08-21T09:59:58Z</time>
      </trkpt>
      <trkpt lat="50.30979" lon="3.36748">
        <ele>29.4575195</ele>
        <time>2011-08-21T10:00:03Z</time>
      </trkpt>
      <trkpt lat="50.30982" lon="3.36782">
        <ele>29.9381104</ele>
        <time>2011-08-21T10:00:07Z</time>
      </trkpt>
      <trkpt lat="50.3098" lon="3.36799">
        <ele>29.9381104</ele>
        <time>2011-08-21T10:00:09Z</time>
      </trkpt>
      <trkpt lat="50.30982" lon="3.36841">
        <ele>29.9381104</ele>
        <time>2011-08-21T10:00:14Z</time>
      </trkpt>
      <trkpt lat="50.30997" lon="3.36919">
        <ele>29.9381104</ele>
        <time>2011-08-21T10:00:23Z</time>
      </trkpt>
      <trkpt lat="50.31014" lon="3.36997">
        <ele>29.9381104</ele>
        <time>2011-08-21T10:00:32Z</time>
      </trkpt>
      <trkpt lat="50.31032" lon="3.37084">
        <ele>29.9381104</ele>
        <time>2011-08-21T10:00:42Z</time>
      </trkpt>
      <trkpt lat="50.31049" lon="3.37166">
        <ele>29.4575195</ele>
        <time>2011-08-21T10:00:51Z</time>
      </trkpt>
      <trkpt lat="50.31054" lon="3.37191">
        <ele>28.4962158</ele>
        <time>2011-08-21T10:00:53Z</time>
      </trkpt>
      <trkpt lat="50.31058" lon="3.37205">
        <ele>28.4962158</ele>
        <time>2011-08-21T10:00:55Z</time>
      </trkpt>
      <trkpt lat="50.31076" lon="3.37292">
        <ele>29.4575195</ele>
        <time>2011-08-21T10:01:05Z</time>
      </trkpt>
      <trkpt lat="50.311" lon="3.37396">
        <ele>29.9381104</ele>
        <time>2011-08-21T10:01:17Z</time>
      </trkpt>
      <trkpt lat="50.31123" lon="3.37482">
        <ele>29.4575195</ele>
        <time>2011-08-21T10:01:27Z</time>
      </trkpt>
      <trkpt lat="50.31148" lon="3.37567">
        <ele>28.9769287</ele>
        <time>2011-08-21T10:01:37Z</time>
      </trkpt>
      <trkpt lat="50.31172" lon="3.37639">
        <ele>28.9769287</ele>
        <time>2011-08-21T10:01:46Z</time>
      </trkpt>
      <trkpt lat="50.31187" lon="3.37681">
        <ele>29.4575195</ele>
        <time>2011-08-21T10:01:52Z</time>
      </trkpt>
      <trkpt lat="50.31213" lon="3.37731">
        <ele>29.9381104</ele>
        <time>2011-08-21T10:01:59Z</time>
      </trkpt>
      <trkpt lat="50.31238" lon="3.37796">
        <ele>29.4575195</ele>
        <time>2011-08-21T10:02:07Z</time>
      </trkpt>
      <trkpt lat="50.31272" lon="3.37872">
        <ele>29.4575195</ele>
        <time>2011-08-21T10:02:17Z</time>
      </trkpt>
      <trkpt lat="50.31308" lon="3.37948">
        <ele>29.4575195</ele>
        <time>2011-08-21T10:02:27Z</time>
      </trkpt>
      <trkpt lat="50.31347" lon="3.38019">
        <ele>29.9381104</ele>
        <time>2011-08-21T10:02:37Z</time>
      </trkpt>
      <trkpt lat="50.3139" lon="3.3809">
        <ele>30.4188232</ele>
        <time>2011-08-21T10:02:47Z</time>
      </trkpt>
      <trkpt lat="50.31442" lon="3.3817">
        <ele>30.4188232</ele>
        <time>2011-08-21T10:02:59Z</time>
      </trkpt>
      <trkpt lat="50.31461" lon="3.3821">
        <ele>30.8995361</ele>
        <time>2011-08-21T10:03:05Z</time>
      </trkpt>
      <trkpt lat="50.31483" lon="3.38247">
        <ele>31.380127</ele>
        <time>2011-08-21T10:03:11Z</time>
      </trkpt>
      <trkpt lat="50.31522" lon="3.38308">
        <ele>31.380127</ele>
        <time>2011-08-21T10:03:21Z</time>
      </trkpt>
      <trkpt lat="50.31571" lon="3.38385">
        <ele>31.380127</ele>
        <time>2011-08-21T10:03:33Z</time>
      </trkpt>
      <trkpt lat="50.31617" lon="3.38457">
        <ele>30.8995361</ele>
        <time>2011-08-21T10:03:44Z</time>
      </trkpt>
      <trkpt lat="50.31656" lon="3.38529">
        <ele>30.8995361</ele>
        <time>2011-08-21T10:03:54Z</time>
      </trkpt>
      <trkpt lat="50.31688" lon="3.38595">
        <ele>31.380127</ele>
        <time>2011-08-21T10:04:03Z</time>
      </trkpt>
      <trkpt lat="50.31719" lon="3.38671">
        <ele>30.8995361</ele>
        <time>2011-08-21T10:04:13Z</time>
      </trkpt>
      <trkpt lat="50.31748" lon="3.38755">
        <ele>30.4188232</ele>
        <time>2011-08-21T10:04:24Z</time>
      </trkpt>
      <trkpt lat="50.31761" lon="3.38795">
        <ele>29.4575195</ele>
        <time>2011-08-21T10:04:29Z</time>
      </trkpt>
      <trkpt lat="50.31781" lon="3.38867">
        <ele>29.9381104</ele>
        <time>2011-08-21T10:04:38Z</time>
      </trkpt>
      <trkpt lat="50.31796" lon="3.38925">
        <ele>28.9769287</ele>
        <time>2011-08-21T10:04:45Z</time>
      </trkpt>
      <trkpt lat="50.3181" lon="3.38984">
        <ele>29.4575195</ele>
        <time>2011-08-21T10:04:52Z</time>
      </trkpt>
      <trkpt lat="50.31824" lon="3.39041">
        <ele>29.9381104</ele>
        <time>2011-08-21T10:04:59Z</time>
      </trkpt>
      <trkpt lat="50.31827" lon="3.39056">
        <ele>29.9381104</ele>
        <time>2011-08-21T10:05:01Z</time>
      </trkpt>
      <trkpt lat="50.31827" lon="3.39079">
        <ele>29.4575195</ele>
        <time>2011-08-21T10:05:04Z</time>
      </trkpt>
      <trkpt lat="50.31838" lon="3.39118">
        <ele>27.5349121</ele>
        <time>2011-08-21T10:05:09Z</time>
      </trkpt>
      <trkpt lat="50.31857" lon="3.39144">
        <ele>26.0928955</ele>
        <time>2011-08-21T10:05:13Z</time>
      </trkpt>
      <trkpt lat="50.31863" lon="3.39164">
        <ele>25.6123047</ele>
        <time>2011-08-21T10:05:18Z</time>
      </trkpt>
      <trkpt lat="50.31868" lon="3.39184">
        <ele>26.0928955</ele>
        <time>2011-08-21T10:05:23Z</time>
      </trkpt>
      <trkpt lat="50.31877" lon="3.39219">
        <ele>27.5349121</ele>
        <time>2011-08-21T10:05:29Z</time>
      </trkpt>
      <trkpt lat="50.31879" lon="3.39239">
        <ele>28.9769287</ele>
        <time>2011-08-21T10:05:33Z</time>
      </trkpt>
      <trkpt lat="50.31887" lon="3.39274">
        <ele>28.9769287</ele>
        <time>2011-08-21T10:05:38Z</time>
      </trkpt>
      <trkpt lat="50.31894" lon="3.39296">
        <ele>28.9769287</ele>
        <time>2011-08-21T10:05:41Z</time>
      </trkpt>
      <trkpt lat="50.31913" lon="3.39378">
        <ele>29.4575195</ele>
        <time>2011-08-21T10:05:51Z</time>
      </trkpt>
      <trkpt lat="50.31932" lon="3.39453">
        <ele>29.4575195</ele>
        <time>2011-08-21T10:06:00Z</time>
      </trkpt>
      <trkpt lat="50.31946" lon="3.39509">
        <ele>29.4575195</ele>
        <time>2011-08-21T10:06:07Z</time>
      </trkpt>
      <trkpt lat="50.31949" lon="3.39535">
        <ele>29.4575195</ele>
        <time>2011-08-21T10:06:10Z</time>
      </trkpt>
      <trkpt lat="50.3195" lon="3.39567">
        <ele>31.380127</ele>
        <time>2011-08-21T10:06:15Z</time>
      </trkpt>
      <trkpt lat="50.31952" lon="3.3958">
        <ele>31.380127</ele>
        <time>2011-08-21T10:06:19Z</time>
      </trkpt>
      <trkpt lat="50.31943" lon="3.3959">
        <ele>31.380127</ele>
        <time>2011-08-21T10:06:23Z</time>
      </trkpt>
      <trkpt lat="50.31901" lon="3.39615">
        <ele>30.8995361</ele>
        <time>2011-08-21T10:06:32Z</time>
      </trkpt>
      <trkpt lat="50.31888" lon="3.39627">
        <ele>30.4188232</ele>
        <time>2011-08-21T10:06:35Z</time>
      </trkpt>
      <trkpt lat="50.31884" lon="3.39642">
        <ele>30.4188232</ele>
        <time>2011-08-21T10:06:38Z</time>
      </trkpt>
      <trkpt lat="50.31886" lon="3.39648">
        <ele>30.4188232</ele>
        <time>2011-08-21T10:06:39Z</time>
      </trkpt>
      <trkpt lat="50.31886" lon="3.39673">
        <ele>30.4188232</ele>
        <time>2011-08-21T10:06:43Z</time>
      </trkpt>
      <trkpt lat="50.3189" lon="3.39702">
        <ele>29.9381104</ele>
        <time>2011-08-21T10:06:47Z</time>
      </trkpt>
      <trkpt lat="50.31914" lon="3.39748">
        <ele>28.9769287</ele>
        <time>2011-08-21T10:06:54Z</time>
      </trkpt>
      <trkpt lat="50.31917" lon="3.39754">
        <ele>28.9769287</ele>
        <time>2011-08-21T10:06:55Z</time>
      </trkpt>
      <trkpt lat="50.31933" lon="3.39787">
        <ele>28.0155029</ele>
        <time>2011-08-21T10:07:00Z</time>
      </trkpt>
      <trkpt lat="50.31959" lon="3.39838">
        <ele>27.5349121</ele>
        <time>2011-08-21T10:07:08Z</time>
      </trkpt>
      <trkpt lat="50.31968" lon="3.39857">
        <ele>28.0155029</ele>
        <time>2011-08-21T10:07:11Z</time>
      </trkpt>
      <trkpt lat="50.31972" lon="3.39871">
        <ele>28.0155029</ele>
        <time>2011-08-21T10:07:13Z</time>
      </trkpt>
      <trkpt lat="50.31983" lon="3.39916">
        <ele>28.4962158</ele>
        <time>2011-08-21T10:07:19Z</time>
      </trkpt>
      <trkpt lat="50.31999" lon="3.3997">
        <ele>28.0155029</ele>
        <time>2011-08-21T10:07:26Z</time>
      </trkpt>
      <trkpt lat="50.32013" lon="3.40022">
        <ele>28.0155029</ele>
        <time>2011-08-21T10:07:33Z</time>
      </trkpt>
      <trkpt lat="50.3203" lon="3.40064">
        <ele>28.4962158</ele>
        <time>2011-08-21T10:07:39Z</time>
      </trkpt>
      <trkpt lat="50.32037" lon="3.40095">
        <ele>28.4962158</ele>
        <time>2011-08-21T10:07:43Z</time>
      </trkpt>
      <trkpt lat="50.32046" lon="3.40133">
        <ele>28.4962158</ele>
        <time>2011-08-21T10:07:48Z</time>
      </trkpt>
      <trkpt lat="50.32053" lon="3.40154">
        <ele>28.9769287</ele>
        <time>2011-08-21T10:07:51Z</time>
      </trkpt>
      <trkpt lat="50.32059" lon="3.40166">
        <ele>28.4962158</ele>
        <time>2011-08-21T10:07:53Z</time>
      </trkpt>
      <trkpt lat="50.32068" lon="3.40207">
        <ele>28.9769287</ele>
        <time>2011-08-21T10:07:58Z</time>
      </trkpt>
      <trkpt lat="50.32081" lon="3.40265">
        <ele>28.9769287</ele>
        <time>2011-08-21T10:08:05Z</time>
      </trkpt>
      <trkpt lat="50.32097" lon="3.40324">
        <ele>28.0155029</ele>
        <time>2011-08-21T10:08:12Z</time>
      </trkpt>
      <trkpt lat="50.32111" lon="3.40365">
        <ele>28.0155029</ele>
        <time>2011-08-21T10:08:17Z</time>
      </trkpt>
      <trkpt lat="50.32126" lon="3.40434">
        <ele>28.0155029</ele>
        <time>2011-08-21T10:08:25Z</time>
      </trkpt>
      <trkpt lat="50.32129" lon="3.40453">
        <ele>28.0155029</ele>
        <time>2011-08-21T10:08:27Z</time>
      </trkpt>
      <trkpt lat="50.32142" lon="3.40501">
        <ele>28.0155029</ele>
        <time>2011-08-21T10:08:33Z</time>
      </trkpt>
      <trkpt lat="50.3215" lon="3.40526">
        <ele>28.4962158</ele>
        <time>2011-08-21T10:08:37Z</time>
      </trkpt>
      <trkpt lat="50.32161" lon="3.40581">
        <ele>28.4962158</ele>
        <time>2011-08-21T10:08:44Z</time>
      </trkpt>
      <trkpt lat="50.32178" lon="3.40645">
        <ele>28.4962158</ele>
        <time>2011-08-21T10:08:52Z</time>
      </trkpt>
      <trkpt lat="50.3219" lon="3.40695">
        <ele>28.4962158</ele>
        <time>2011-08-21T10:08:58Z</time>
      </trkpt>
      <trkpt lat="50.32195" lon="3.40718">
        <ele>28.4962158</ele>
        <time>2011-08-21T10:09:01Z</time>
      </trkpt>
      <trkpt lat="50.32202" lon="3.4075">
        <ele>28.4962158</ele>
        <time>2011-08-21T10:09:06Z</time>
      </trkpt>
      <trkpt lat="50.32202" lon="3.40757">
        <ele>29.4575195</ele>
        <time>2011-08-21T10:09:07Z</time>
      </trkpt>
      <trkpt lat="50.32203" lon="3.40779">
        <ele>30.8995361</ele>
        <time>2011-08-21T10:09:10Z</time>
      </trkpt>
      <trkpt lat="50.32202" lon="3.40795">
        <ele>31.8607178</ele>
        <time>2011-08-21T10:09:12Z</time>
      </trkpt>
      <trkpt lat="50.32201" lon="3.4082">
        <ele>31.380127</ele>
        <time>2011-08-21T10:09:15Z</time>
      </trkpt>
      <trkpt lat="50.32202" lon="3.40865">
        <ele>30.8995361</ele>
        <time>2011-08-21T10:09:21Z</time>
      </trkpt>
      <trkpt lat="50.32203" lon="3.40884">
        <ele>30.4188232</ele>
        <time>2011-08-21T10:09:24Z</time>
      </trkpt>
      <trkpt lat="50.32212" lon="3.40894">
        <ele>30.4188232</ele>
        <time>2011-08-21T10:09:28Z</time>
      </trkpt>
      <trkpt lat="50.32244" lon="3.40894">
        <ele>30.8995361</ele>
        <time>2011-08-21T10:09:36Z</time>
      </trkpt>
      <trkpt lat="50.32278" lon="3.40889">
        <ele>32.3415527</ele>
        <time>2011-08-21T10:09:44Z</time>
      </trkpt>
      <trkpt lat="50.32307" lon="3.40888">
        <ele>32.8222656</ele>
        <time>2011-08-21T10:09:51Z</time>
      </trkpt>
      <trkpt lat="50.32342" lon="3.40884">
        <ele>31.8607178</ele>
        <time>2011-08-21T10:09:58Z</time>
      </trkpt>
      <trkpt lat="50.32381" lon="3.40881">
        <ele>31.8607178</ele>
        <time>2011-08-21T10:10:05Z</time>
      </trkpt>
      <trkpt lat="50.3243" lon="3.40876">
        <ele>30.8995361</ele>
        <time>2011-08-21T10:10:13Z</time>
      </trkpt>
      <trkpt lat="50.32477" lon="3.40869">
        <ele>29.4575195</ele>
        <time>2011-08-21T10:10:20Z</time>
      </trkpt>
      <trkpt lat="50.32535" lon="3.40853">
        <ele>28.0155029</ele>
        <time>2011-08-21T10:10:28Z</time>
      </trkpt>
      <trkpt lat="50.32555" lon="3.40843">
        <ele>27.5349121</ele>
        <time>2011-08-21T10:10:31Z</time>
      </trkpt>
      <trkpt lat="50.32561" lon="3.40839">
        <ele>27.5349121</ele>
        <time>2011-08-21T10:10:32Z</time>
      </trkpt>
      <trkpt lat="50.32573" lon="3.4083">
        <ele>27.0543213</ele>
        <time>2011-08-21T10:10:34Z</time>
      </trkpt>
      <trkpt lat="50.32589" lon="3.40801">
        <ele>26.5736084</ele>
        <time>2011-08-21T10:10:38Z</time>
      </trkpt>
      <trkpt lat="50.32603" lon="3.40788">
        <ele>26.5736084</ele>
        <time>2011-08-21T10:10:41Z</time>
      </trkpt>
      <trkpt lat="50.32625" lon="3.40789">
        <ele>27.0543213</ele>
        <time>2011-08-21T10:10:45Z</time>
      </trkpt>
      <trkpt lat="50.32638" lon="3.40788">
        <ele>27.0543213</ele>
        <time>2011-08-21T10:10:48Z</time>
      </trkpt>
      <trkpt lat="50.32672" lon="3.40754">
        <ele>27.5349121</ele>
        <time>2011-08-21T10:10:55Z</time>
      </trkpt>
      <trkpt lat="50.32698" lon="3.40722">
        <ele>27.5349121</ele>
        <time>2011-08-21T10:11:01Z</time>
      </trkpt>
      <trkpt lat="50.32728" lon="3.40685">
        <ele>27.5349121</ele>
        <time>2011-08-21T10:11:08Z</time>
      </trkpt>
      <trkpt lat="50.32764" lon="3.40644">
        <ele>28.4962158</ele>
        <time>2011-08-21T10:11:16Z</time>
      </trkpt>
      <trkpt lat="50.32797" lon="3.4061">
        <ele>29.4575195</ele>
        <time>2011-08-21T10:11:23Z</time>
      </trkpt>
      <trkpt lat="50.32834" lon="3.40587">
        <ele>30.4188232</ele>
        <time>2011-08-21T10:11:30Z</time>
      </trkpt>
      <trkpt lat="50.32881" lon="3.40566">
        <ele>30.4188232</ele>
        <time>2011-08-21T10:11:39Z</time>
      </trkpt>
      <trkpt lat="50.32904" lon="3.40558">
        <ele>29.9381104</ele>
        <time>2011-08-21T10:11:44Z</time>
      </trkpt>
      <trkpt lat="50.32918" lon="3.40569">
        <ele>29.4575195</ele>
        <time>2011-08-21T10:11:48Z</time>
      </trkpt>
      <trkpt lat="50.32921" lon="3.40592">
        <ele>29.9381104</ele>
        <time>2011-08-21T10:11:51Z</time>
      </trkpt>
      <trkpt lat="50.32927" lon="3.40665">
        <ele>29.4575195</ele>
        <time>2011-08-21T10:11:59Z</time>
      </trkpt>
      <trkpt lat="50.32936" lon="3.40731">
        <ele>29.4575195</ele>
        <time>2011-08-21T10:12:06Z</time>
      </trkpt>
      <trkpt lat="50.32946" lon="3.40788">
        <ele>28.9769287</ele>
        <time>2011-08-21T10:12:12Z</time>
      </trkpt>
      <trkpt lat="50.32958" lon="3.40861">
        <ele>28.4962158</ele>
        <time>2011-08-21T10:12:20Z</time>
      </trkpt>
      <trkpt lat="50.3296" lon="3.4087">
        <ele>28.4962158</ele>
        <time>2011-08-21T10:12:21Z</time>
      </trkpt>
      <trkpt lat="50.32975" lon="3.40951">
        <ele>28.9769287</ele>
        <time>2011-08-21T10:12:30Z</time>
      </trkpt>
      <trkpt lat="50.32994" lon="3.41033">
        <ele>28.9769287</ele>
        <time>2011-08-21T10:12:39Z</time>
      </trkpt>
      <trkpt lat="50.33013" lon="3.41105">
        <ele>29.4575195</ele>
        <time>2011-08-21T10:12:47Z</time>
      </trkpt>
      <trkpt lat="50.33029" lon="3.41167">
        <ele>28.4962158</ele>
        <time>2011-08-21T10:12:54Z</time>
      </trkpt>
      <trkpt lat="50.33053" lon="3.41255">
        <ele>28.4962158</ele>
        <time>2011-08-21T10:13:04Z</time>
      </trkpt>
      <trkpt lat="50.33067" lon="3.41304">
        <ele>29.4575195</ele>
        <time>2011-08-21T10:13:10Z</time>
      </trkpt>
      <trkpt lat="50.33072" lon="3.41332">
        <ele>29.4575195</ele>
        <time>2011-08-21T10:13:14Z</time>
      </trkpt>
      <trkpt lat="50.33082" lon="3.41351">
        <ele>30.4188232</ele>
        <time>2011-08-21T10:13:19Z</time>
      </trkpt>
      <trkpt lat="50.33092" lon="3.41352">
        <ele>30.8995361</ele>
        <time>2011-08-21T10:13:23Z</time>
      </trkpt>
      <trkpt lat="50.33092" lon="3.41352">
        <ele>31.380127</ele>
        <time>2011-08-21T10:13:25Z</time>
      </trkpt>
    </trkseg>
  </trk>
</gpx>